Wetterdaten: Sonntag, 04.09.2016
Datum Zeit Temp. A. Temp. A. max Feuchte A. Luftdruck Regen Wind Richtung Richtung Sonnenschein ET UV Solar Taupunkt Windben
04.09.2016 00:00 14,7 C 14,7 C 91 % 1017,6 hPa 0,0 mm 0,1 km/h (0 Bft) S 183 0 min 0,000 mm 0,0 UV-I 0 W/m 13,2 C 1,6 km/h (1 Bft)
04.09.2016 00:01 14,7 C 14,7 C 91 % 1017,6 hPa 0,0 mm 0,0 km/h (0 Bft) S 183 0 min 0,000 mm 0,0 UV-I 0 W/m 13,2 C 0,0 km/h (0 Bft)
04.09.2016 00:02 14,7 C 14,7 C 91 % 1017,6 hPa 0,0 mm 0,3 km/h (0 Bft) S 183 0 min 0,000 mm 0,0 UV-I 0 W/m 13,2 C 1,6 km/h (1 Bft)
04.09.2016 00:03 14,7 C 14,7 C 91 % 1017,6 hPa 0,0 mm 1,1 km/h (1 Bft) S 183 0 min 0,000 mm 0,0 UV-I 0 W/m 13,2 C 3,2 km/h (1 Bft)
04.09.2016 00:04 14,7 C 14,7 C 91 % 1017,5 hPa 0,0 mm 0,3 km/h (0 Bft) S 183 0 min 0,000 mm 0,0 UV-I 0 W/m 13,2 C 1,6 km/h (1 Bft)
04.09.2016 00:05 14,7 C 14,7 C 92 % 1017,5 hPa 0,0 mm 0,0 km/h (0 Bft) S 183 0 min 0,000 mm 0,0 UV-I 0 W/m 13,4 C 0,0 km/h (0 Bft)
04.09.2016 00:06 14,6 C 14,7 C 91 % 1017,5 hPa 0,0 mm 0,0 km/h (0 Bft) S 183 0 min 0,000 mm 0,0 UV-I 0 W/m 13,1 C 0,0 km/h (0 Bft)
04.09.2016 00:07 14,6 C 14,7 C 91 % 1017,5 hPa 0,0 mm 0,3 km/h (0 Bft) S 183 0 min 0,000 mm 0,0 UV-I 0 W/m 13,1 C 1,6 km/h (1 Bft)
04.09.2016 00:08 14,6 C 14,7 C 91 % 1017,5 hPa 0,0 mm 0,3 km/h (0 Bft) S 183 0 min 0,000 mm 0,0 UV-I 0 W/m 13,1 C 1,6 km/h (1 Bft)
04.09.2016 00:09 14,7 C 14,7 C 91 % 1017,5 hPa 0,0 mm 0,2 km/h (0 Bft) S 183 0 min 0,000 mm 0,0 UV-I 0 W/m 13,2 C 1,6 km/h (1 Bft)
04.09.2016 00:10 14,7 C 14,7 C 91 % 1017,5 hPa 0,0 mm 0,4 km/h (0 Bft) S 184 0 min 0,000 mm 0,0 UV-I 0 W/m 13,2 C 1,6 km/h (1 Bft)
04.09.2016 00:11 14,7 C 14,7 C 91 % 1017,5 hPa 0,0 mm 0,8 km/h (0 Bft) S 178 0 min 0,000 mm 0,0 UV-I 0 W/m 13,2 C 1,6 km/h (1 Bft)
04.09.2016 00:12 14,7 C 14,7 C 91 % 1017,5 hPa 0,0 mm 1,3 km/h (1 Bft) O-SO 121 0 min 0,000 mm 0,0 UV-I 0 W/m 13,2 C 3,2 km/h (1 Bft)
04.09.2016 00:13 14,7 C 14,8 C 91 % 1017,5 hPa 0,0 mm 0,9 km/h (0 Bft) O-SO 121 0 min 0,000 mm 0,0 UV-I 0 W/m 13,2 C 1,6 km/h (1 Bft)
04.09.2016 00:14 14,8 C 14,8 C 91 % 1017,5 hPa 0,0 mm 0,2 km/h (0 Bft) O-SO 121 0 min 0,000 mm 0,0 UV-I 0 W/m 13,3 C 1,6 km/h (1 Bft)
04.09.2016 00:15 14,8 C 14,8 C 92 % 1017,5 hPa 0,0 mm 0,0 km/h (0 Bft) O-SO 121 0 min 0,000 mm 0,0 UV-I 0 W/m 13,5 C 0,0 km/h (0 Bft)
04.09.2016 00:16 14,8 C 14,8 C 91 % 1017,5 hPa 0,0 mm 0,0 km/h (0 Bft) O-SO 121 0 min 0,000 mm 0,0 UV-I 0 W/m 13,3 C 0,0 km/h (0 Bft)
04.09.2016 00:17 14,8 C 14,8 C 91 % 1017,4 hPa 0,0 mm 0,0 km/h (0 Bft) O-SO 121 0 min 0,000 mm 0,0 UV-I 0 W/m 13,3 C 0,0 km/h (0 Bft)
04.09.2016 00:18 14,9 C 14,9 C 91 % 1017,5 hPa 0,0 mm 0,0 km/h (0 Bft) O-SO 121 0 min 0,000 mm 0,0 UV-I 0 W/m 13,4 C 0,0 km/h (0 Bft)
04.09.2016 00:19 14,9 C 14,9 C 91 % 1017,4 hPa 0,0 mm 0,4 km/h (0 Bft) O-SO 121 0 min 0,000 mm 0,0 UV-I 0 W/m 13,4 C 1,6 km/h (1 Bft)
04.09.2016 00:20 14,9 C 14,9 C 91 % 1017,5 hPa 0,0 mm 0,2 km/h (0 Bft) O-SO 121 0 min 0,000 mm 0,0 UV-I 0 W/m 13,4 C 1,6 km/h (1 Bft)
04.09.2016 00:21 14,9 C 14,9 C 91 % 1017,4 hPa 0,0 mm 0,5 km/h (0 Bft) O-SO 121 0 min 0,000 mm 0,0 UV-I 0 W/m 13,4 C 1,6 km/h (1 Bft)
04.09.2016 00:22 14,9 C 14,9 C 91 % 1017,5 hPa 0,0 mm 0,0 km/h (0 Bft) O-SO 121 0 min 0,000 mm 0,0 UV-I 0 W/m 13,4 C 0,0 km/h (0 Bft)
04.09.2016 00:23 14,9 C 14,9 C 91 % 1017,5 hPa 0,0 mm 0,0 km/h (0 Bft) O-SO 121 0 min 0,000 mm 0,0 UV-I 0 W/m 13,4 C 0,0 km/h (0 Bft)
04.09.2016 00:24 14,9 C 14,9 C 91 % 1017,5 hPa 0,0 mm 0,0 km/h (0 Bft) O-SO 121 0 min 0,000 mm 0,0 UV-I 0 W/m 13,4 C 0,0 km/h (0 Bft)
04.09.2016 00:25 14,9 C 14,9 C 91 % 1017,5 hPa 0,0 mm 0,8 km/h (0 Bft) O 82 0 min 0,000 mm 0,0 UV-I 0 W/m 13,4 C 3,2 km/h (1 Bft)
04.09.2016 00:26 14,9 C 14,9 C 90 % 1017,5 hPa 0,0 mm 0,0 km/h (0 Bft) O 82 0 min 0,000 mm 0,0 UV-I 0 W/m 13,3 C 0,0 km/h (0 Bft)
04.09.2016 00:27 14,8 C 14,9 C 91 % 1017,4 hPa 0,0 mm 0,4 km/h (0 Bft) O 82 0 min 0,000 mm 0,0 UV-I 0 W/m 13,3 C 1,6 km/h (1 Bft)
04.09.2016 00:28 14,8 C 14,8 C 91 % 1017,4 hPa 0,0 mm 0,1 km/h (0 Bft) O 82 0 min 0,000 mm 0,0 UV-I 0 W/m 13,3 C 1,6 km/h (1 Bft)
04.09.2016 00:29 14,8 C 14,8 C 91 % 1017,4 hPa 0,0 mm 0,0 km/h (0 Bft) O 82 0 min 0,000 mm 0,0 UV-I 0 W/m 13,3 C 0,0 km/h (0 Bft)
04.09.2016 00:30 14,8 C 14,8 C 91 % 1017,4 hPa 0,0 mm 0,0 km/h (0 Bft) O 82 0 min 0,000 mm 0,0 UV-I 0 W/m 13,3 C 0,0 km/h (0 Bft)
04.09.2016 00:31 14,8 C 14,8 C 91 % 1017,3 hPa 0,0 mm 0,0 km/h (0 Bft) O 82 0 min 0,000 mm 0,0 UV-I 0 W/m 13,3 C 0,0 km/h (0 Bft)
04.09.2016 00:32 14,8 C 14,8 C 91 % 1017,3 hPa 0,0 mm 0,4 km/h (0 Bft) O 82 0 min 0,000 mm 0,0 UV-I 0 W/m 13,3 C 1,6 km/h (1 Bft)
04.09.2016 00:33 14,9 C 14,9 C 91 % 1017,4 hPa 0,0 mm 1,5 km/h (1 Bft) O 82 0 min 0,000 mm 0,0 UV-I 0 W/m 13,4 C 3,2 km/h (1 Bft)
04.09.2016 00:34 14,9 C 14,9 C 92 % 1017,4 hPa 0,0 mm 2,0 km/h (1 Bft) O 82 0 min 0,000 mm 0,0 UV-I 0 W/m 13,6 C 3,2 km/h (1 Bft)
04.09.2016 00:35 15,0 C 15,0 C 91 % 1017,3 hPa 0,0 mm 0,5 km/h (0 Bft) O 82 0 min 0,000 mm 0,0 UV-I 0 W/m 13,5 C 1,6 km/h (1 Bft)
04.09.2016 00:36 15,1 C 15,1 C 91 % 1017,3 hPa 0,0 mm 1,3 km/h (1 Bft) NW 316 0 min 0,000 mm 0,0 UV-I 0 W/m 13,6 C 4,8 km/h (1 Bft)
04.09.2016 00:37 15,1 C 15,1 C 91 % 1017,3 hPa 0,0 mm 2,1 km/h (1 Bft) NW 316 0 min 0,000 mm 0,0 UV-I 0 W/m 13,6 C 3,2 km/h (1 Bft)
04.09.2016 00:38 15,0 C 15,1 C 90 % 1017,2 hPa 0,0 mm 0,1 km/h (0 Bft) NW 316 0 min 0,000 mm 0,0 UV-I 0 W/m 13,4 C 1,6 km/h (1 Bft)
04.09.2016 00:39 15,0 C 15,0 C 90 % 1017,3 hPa 0,0 mm 1,0 km/h (0 Bft) NW 317 0 min 0,000 mm 0,0 UV-I 0 W/m 13,4 C 1,6 km/h (1 Bft)
04.09.2016 00:40 15,0 C 15,0 C 90 % 1017,2 hPa 0,0 mm 0,7 km/h (0 Bft) NW 317 0 min 0,000 mm 0,0 UV-I 0 W/m 13,4 C 3,2 km/h (1 Bft)
04.09.2016 00:41 15,0 C 15,0 C 90 % 1017,2 hPa 0,0 mm 0,0 km/h (0 Bft) NW 317 0 min 0,000 mm 0,0 UV-I 0 W/m 13,4 C 0,0 km/h (0 Bft)
04.09.2016 00:42 15,0 C 15,0 C 90 % 1017,2 hPa 0,0 mm 0,2 km/h (0 Bft) NW 317 0 min 0,000 mm 0,0 UV-I 0 W/m 13,4 C 1,6 km/h (1 Bft)
04.09.2016 00:43 15,0 C 15,0 C 91 % 1017,2 hPa 0,0 mm 1,3 km/h (1 Bft) NW 317 0 min 0,000 mm 0,0 UV-I 0 W/m 13,5 C 1,6 km/h (1 Bft)
04.09.2016 00:44 15,0 C 15,0 C 90 % 1017,2 hPa 0,0 mm 0,3 km/h (0 Bft) NW 317 0 min 0,000 mm 0,0 UV-I 0 W/m 13,4 C 1,6 km/h (1 Bft)
04.09.2016 00:45 14,9 C 15,0 C 90 % 1017,2 hPa 0,0 mm 0,1 km/h (0 Bft) NW 317 0 min 0,000 mm 0,0 UV-I 0 W/m 13,3 C 1,6 km/h (1 Bft)
04.09.2016 00:46 14,9 C 14,9 C 91 % 1017,2 hPa 0,0 mm 0,3 km/h (0 Bft) NW 317 0 min 0,000 mm 0,0 UV-I 0 W/m 13,4 C 1,6 km/h (1 Bft)
04.09.2016 00:47 14,9 C 14,9 C 91 % 1017,2 hPa 0,0 mm 0,0 km/h (0 Bft) NW 317 0 min 0,000 mm 0,0 UV-I 0 W/m 13,4 C 0,0 km/h (0 Bft)
04.09.2016 00:48 14,8 C 14,9 C 91 % 1017,2 hPa 0,0 mm 1,0 km/h (0 Bft) NW 317 0 min 0,000 mm 0,0 UV-I 0 W/m 13,3 C 1,6 km/h (1 Bft)
04.09.2016 00:49 14,8 C 14,9 C 91 % 1017,2 hPa 0,0 mm 0,0 km/h (0 Bft) NW 317 0 min 0,000 mm 0,0 UV-I 0 W/m 13,3 C 0,0 km/h (0 Bft)
04.09.2016 00:50 14,8 C 14,8 C 91 % 1017,2 hPa 0,0 mm 0,8 km/h (0 Bft) NW 317 0 min 0,000 mm 0,0 UV-I 0 W/m 13,3 C 1,6 km/h (1 Bft)
04.09.2016 00:51 14,8 C 14,8 C 91 % 1017,2 hPa 0,0 mm 0,1 km/h (0 Bft) NW 317 0 min 0,000 mm 0,0 UV-I 0 W/m 13,3 C 1,6 km/h (1 Bft)
04.09.2016 00:52 14,8 C 14,8 C 91 % 1017,2 hPa 0,0 mm 0,0 km/h (0 Bft) NW 317 0 min 0,000 mm 0,0 UV-I 0 W/m 13,3 C 0,0 km/h (0 Bft)
04.09.2016 00:53 14,8 C 14,8 C 91 % 1017,1 hPa 0,0 mm 0,9 km/h (0 Bft) NW 316 0 min 0,000 mm 0,0 UV-I 0 W/m 13,3 C 3,2 km/h (1 Bft)
04.09.2016 00:54 14,8 C 14,8 C 91 % 1017,1 hPa 0,0 mm 0,1 km/h (0 Bft) NW 316 0 min 0,000 mm 0,0 UV-I 0 W/m 13,3 C 1,6 km/h (1 Bft)
04.09.2016 00:55 14,7 C 14,8 C 91 % 1017,2 hPa 0,0 mm 0,0 km/h (0 Bft) NW 316 0 min 0,000 mm 0,0 UV-I 0 W/m 13,2 C 0,0 km/h (0 Bft)
04.09.2016 00:56 14,7 C 14,8 C 91 % 1017,1 hPa 0,0 mm 0,0 km/h (0 Bft) NW 316 0 min 0,000 mm 0,0 UV-I 0 W/m 13,2 C 0,0 km/h (0 Bft)
04.09.2016 00:57 14,7 C 14,8 C 91 % 1017,2 hPa 0,0 mm 0,0 km/h (0 Bft) NW 316 0 min 0,000 mm 0,0 UV-I 0 W/m 13,2 C 0,0 km/h (0 Bft)
04.09.2016 00:58 14,7 C 14,7 C 91 % 1017,2 hPa 0,0 mm 0,0 km/h (0 Bft) NW 316 0 min 0,000 mm 0,0 UV-I 0 W/m 13,2 C 0,0 km/h (0 Bft)
04.09.2016 00:59 14,7 C 14,7 C 91 % 1017,2 hPa 0,0 mm 0,0 km/h (0 Bft) NW 316 0 min 0,000 mm 0,0 UV-I 0 W/m 13,2 C 0,0 km/h (0 Bft)
04.09.2016 01:00 14,7 C 14,7 C 91 % 1017,2 hPa 0,0 mm 1,8 km/h (1 Bft) NW 316 0 min 0,000 mm 0,0 UV-I 0 W/m 13,2 C 3,2 km/h (1 Bft)
04.09.2016 01:02 14,5 C 14,7 C 91 % 1017,2 hPa 0,0 mm 0,6 km/h (0 Bft) NW 316 0 min 0,000 mm 0,0 UV-I 0 W/m 13,0 C 1,6 km/h (1 Bft)
04.09.2016 01:03 14,4 C 14,5 C 91 % 1017,2 hPa 0,0 mm 0,0 km/h (0 Bft) NW 316 0 min 0,000 mm 0,0 UV-I 0 W/m 12,9 C 0,0 km/h (0 Bft)
04.09.2016 01:04 14,4 C 14,4 C 91 % 1017,2 hPa 0,0 mm 0,0 km/h (0 Bft) NW 316 0 min 0,000 mm 0,0 UV-I 0 W/m 12,9 C 0,0 km/h (0 Bft)
04.09.2016 01:05 14,4 C 14,4 C 91 % 1017,2 hPa 0,0 mm 0,0 km/h (0 Bft) NW 316 0 min 0,000 mm 0,0 UV-I 0 W/m 12,9 C 0,0 km/h (0 Bft)
04.09.2016 01:06 14,4 C 14,4 C 91 % 1017,2 hPa 0,0 mm 0,0 km/h (0 Bft) NW 316 0 min 0,000 mm 0,0 UV-I 0 W/m 12,9 C 0,0 km/h (0 Bft)
04.09.2016 01:07 14,4 C 14,4 C 92 % 1017,2 hPa 0,0 mm 0,0 km/h (0 Bft) NW 316 0 min 0,000 mm 0,0 UV-I 0 W/m 13,1 C 0,0 km/h (0 Bft)
04.09.2016 01:08 14,3 C 14,4 C 92 % 1017,2 hPa 0,0 mm 0,3 km/h (0 Bft) NW 316 0 min 0,000 mm 0,0 UV-I 0 W/m 13,0 C 1,6 km/h (1 Bft)
04.09.2016 01:09 14,3 C 14,4 C 92 % 1017,2 hPa 0,0 mm 0,6 km/h (0 Bft) NW 316 0 min 0,000 mm 0,0 UV-I 0 W/m 13,0 C 1,6 km/h (1 Bft)
04.09.2016 01:10 14,3 C 14,3 C 91 % 1017,2 hPa 0,0 mm 0,1 km/h (0 Bft) NW 316 0 min 0,000 mm 0,0 UV-I 0 W/m 12,8 C 1,6 km/h (1 Bft)
04.09.2016 01:11 14,2 C 14,3 C 92 % 1017,2 hPa 0,0 mm 0,2 km/h (0 Bft) NW 316 0 min 0,000 mm 0,0 UV-I 0 W/m 12,9 C 1,6 km/h (1 Bft)
04.09.2016 01:12 14,3 C 14,3 C 92 % 1017,2 hPa 0,0 mm 0,5 km/h (0 Bft) NW 316 0 min 0,000 mm 0,0 UV-I 0 W/m 13,0 C 1,6 km/h (1 Bft)
04.09.2016 01:13 14,4 C 14,4 C 92 % 1017,2 hPa 0,0 mm 0,7 km/h (0 Bft) NW 316 0 min 0,000 mm 0,0 UV-I 0 W/m 13,1 C 1,6 km/h (1 Bft)
04.09.2016 01:14 14,3 C 14,4 C 91 % 1017,1 hPa 0,0 mm 0,0 km/h (0 Bft) NW 316 0 min 0,000 mm 0,0 UV-I 0 W/m 12,8 C 0,0 km/h (0 Bft)
04.09.2016 01:15 14,3 C 14,3 C 91 % 1017,2 hPa 0,0 mm 0,0 km/h (0 Bft) NW 316 0 min 0,000 mm 0,0 UV-I 0 W/m 12,8 C 0,0 km/h (0 Bft)
04.09.2016 01:16 14,3 C 14,3 C 92 % 1017,1 hPa 0,0 mm 0,0 km/h (0 Bft) NW 316 0 min 0,000 mm 0,0 UV-I 0 W/m 13,0 C 0,0 km/h (0 Bft)
04.09.2016 01:17 14,3 C 14,3 C 92 % 1017,2 hPa 0,0 mm 1,1 km/h (1 Bft) NW 316 0 min 0,000 mm 0,0 UV-I 0 W/m 13,0 C 3,2 km/h (1 Bft)
04.09.2016 01:18 14,3 C 14,3 C 92 % 1017,2 hPa 0,0 mm 0,8 km/h (0 Bft) NW 316 0 min 0,000 mm 0,0 UV-I 0 W/m 13,0 C 1,6 km/h (1 Bft)
04.09.2016 01:19 14,3 C 14,3 C 92 % 1017,1 hPa 0,0 mm 0,5 km/h (0 Bft) NW 316 0 min 0,000 mm 0,0 UV-I 0 W/m 13,0 C 1,6 km/h (1 Bft)
04.09.2016 01:20 14,3 C 14,3 C 92 % 1017,2 hPa 0,0 mm 1,1 km/h (1 Bft) NW 316 0 min 0,000 mm 0,0 UV-I 0 W/m 13,0 C 1,6 km/h (1 Bft)
04.09.2016 01:21 14,3 C 14,3 C 92 % 1017,1 hPa 0,0 mm 0,1 km/h (0 Bft) NW 316 0 min 0,000 mm 0,0 UV-I 0 W/m 13,0 C 1,6 km/h (1 Bft)
04.09.2016 01:22 14,3 C 14,3 C 92 % 1017,1 hPa 0,0 mm 0,1 km/h (0 Bft) NW 316 0 min 0,000 mm 0,0 UV-I 0 W/m 13,0 C 1,6 km/h (1 Bft)
04.09.2016 01:23 14,2 C 14,3 C 92 % 1017,1 hPa 0,0 mm 0,5 km/h (0 Bft) NW 316 0 min 0,000 mm 0,0 UV-I 0 W/m 12,9 C 1,6 km/h (1 Bft)
04.09.2016 01:24 14,2 C 14,2 C 92 % 1017,1 hPa 0,0 mm 0,3 km/h (0 Bft) NW 316 0 min 0,000 mm 0,0 UV-I 0 W/m 12,9 C 1,6 km/h (1 Bft)
04.09.2016 01:25 14,1 C 14,2 C 92 % 1017,1 hPa 0,0 mm 0,0 km/h (0 Bft) NW 316 0 min 0,000 mm 0,0 UV-I 0 W/m 12,8 C 0,0 km/h (0 Bft)
04.09.2016 01:26 14,0 C 14,1 C 91 % 1017,2 hPa 0,0 mm 0,0 km/h (0 Bft) NW 316 0 min 0,000 mm 0,0 UV-I 0 W/m 12,6 C 0,0 km/h (0 Bft)
04.09.2016 01:27 13,9 C 14,0 C 92 % 1017,2 hPa 0,0 mm 0,0 km/h (0 Bft) NW 316 0 min 0,000 mm 0,0 UV-I 0 W/m 12,6 C 0,0 km/h (0 Bft)
04.09.2016 01:28 13,9 C 13,9 C 92 % 1017,2 hPa 0,0 mm 0,0 km/h (0 Bft) NW 316 0 min 0,000 mm 0,0 UV-I 0 W/m 12,6 C 0,0 km/h (0 Bft)
04.09.2016 01:29 13,8 C 13,9 C 92 % 1017,1 hPa 0,0 mm 0,2 km/h (0 Bft) NW 316 0 min 0,000 mm 0,0 UV-I 0 W/m 12,5 C 1,6 km/h (1 Bft)
04.09.2016 01:30 13,9 C 13,9 C 93 % 1017,2 hPa 0,0 mm 0,8 km/h (0 Bft) NW 316 0 min 0,000 mm 0,0 UV-I 0 W/m 12,8 C 1,6 km/h (1 Bft)
04.09.2016 01:31 13,9 C 13,9 C 93 % 1017,1 hPa 0,0 mm 0,1 km/h (0 Bft) NW 316 0 min 0,000 mm 0,0 UV-I 0 W/m 12,8 C 1,6 km/h (1 Bft)
04.09.2016 01:32 13,9 C 13,9 C 93 % 1017,2 hPa 0,0 mm 0,0 km/h (0 Bft) NW 316 0 min 0,000 mm 0,0 UV-I 0 W/m 12,8 C 0,0 km/h (0 Bft)
04.09.2016 01:33 13,9 C 13,9 C 93 % 1017,1 hPa 0,0 mm 0,0 km/h (0 Bft) NW 316 0 min 0,000 mm 0,0 UV-I 0 W/m 12,8 C 0,0 km/h (0 Bft)
04.09.2016 01:34 13,8 C 13,9 C 92 % 1017,1 hPa 0,0 mm 0,0 km/h (0 Bft) NW 316 0 min 0,000 mm 0,0 UV-I 0 W/m 12,5 C 0,0 km/h (0 Bft)
04.09.2016 01:35 13,8 C 13,8 C 92 % 1017,1 hPa 0,0 mm 0,0 km/h (0 Bft) NW 316 0 min 0,000 mm 0,0 UV-I 0 W/m 12,5 C 0,0 km/h (0 Bft)
04.09.2016 01:36 13,7 C 13,8 C 92 % 1017,1 hPa 0,0 mm 0,1 km/h (0 Bft) NW 316 0 min 0,000 mm 0,0 UV-I 0 W/m 12,4 C 1,6 km/h (1 Bft)
04.09.2016 01:37 13,6 C 13,7 C 92 % 1017,1 hPa 0,0 mm 1,1 km/h (1 Bft) NW 316 0 min 0,000 mm 0,0 UV-I 0 W/m 12,3 C 3,2 km/h (1 Bft)
04.09.2016 01:38 13,6 C 13,6 C 92 % 1017,1 hPa 0,0 mm 1,7 km/h (1 Bft) NW 317 0 min 0,000 mm 0,0 UV-I 0 W/m 12,3 C 3,2 km/h (1 Bft)
04.09.2016 01:39 13,6 C 13,6 C 93 % 1017,1 hPa 0,0 mm 1,1 km/h (1 Bft) NW 317 0 min 0,000 mm 0,0 UV-I 0 W/m 12,5 C 3,2 km/h (1 Bft)
04.09.2016 01:40 13,5 C 13,6 C 93 % 1017,1 hPa 0,0 mm 0,1 km/h (0 Bft) NW 317 0 min 0,000 mm 0,0 UV-I 0 W/m 12,4 C 1,6 km/h (1 Bft)
04.09.2016 01:41 13,5 C 13,6 C 93 % 1017,2 hPa 0,0 mm 0,2 km/h (0 Bft) NW 317 0 min 0,000 mm 0,0 UV-I 0 W/m 12,4 C 1,6 km/h (1 Bft)
04.09.2016 01:42 13,5 C 13,6 C 93 % 1017,1 hPa 0,0 mm 0,4 km/h (0 Bft) NW 317 0 min 0,000 mm 0,0 UV-I 0 W/m 12,4 C 1,6 km/h (1 Bft)
04.09.2016 01:43 13,6 C 13,6 C 93 % 1017,1 hPa 0,0 mm 0,1 km/h (0 Bft) NW 317 0 min 0,000 mm 0,0 UV-I 0 W/m 12,5 C 1,6 km/h (1 Bft)
04.09.2016 01:44 13,6 C 13,6 C 93 % 1017,2 hPa 0,0 mm 0,1 km/h (0 Bft) NW 317 0 min 0,000 mm 0,0 UV-I 0 W/m 12,5 C 1,6 km/h (1 Bft)
04.09.2016 01:45 13,6 C 13,6 C 94 % 1017,1 hPa 0,0 mm 0,0 km/h (0 Bft) NW 317 0 min 0,000 mm 0,0 UV-I 0 W/m 12,7 C 0,0 km/h (0 Bft)
04.09.2016 01:46 13,6 C 13,6 C 94 % 1017,1 hPa 0,0 mm 0,1 km/h (0 Bft) NW 317 0 min 0,000 mm 0,0 UV-I 0 W/m 12,7 C 1,6 km/h (1 Bft)
04.09.2016 01:47 13,6 C 13,6 C 93 % 1017,1 hPa 0,0 mm 0,9 km/h (0 Bft) NW 317 0 min 0,000 mm 0,0 UV-I 0 W/m 12,5 C 3,2 km/h (1 Bft)
04.09.2016 01:48 13,5 C 13,6 C 93 % 1017,1 hPa 0,0 mm 1,4 km/h (1 Bft) NW 317 0 min 0,000 mm 0,0 UV-I 0 W/m 12,4 C 3,2 km/h (1 Bft)
04.09.2016 01:49 13,5 C 13,5 C 93 % 1017,1 hPa 0,0 mm 2,1 km/h (1 Bft) NW 317 0 min 0,000 mm 0,0 UV-I 0 W/m 12,4 C 3,2 km/h (1 Bft)
04.09.2016 01:50 13,5 C 13,5 C 93 % 1017,2 hPa 0,0 mm 2,0 km/h (1 Bft) W-NW 300 0 min 0,000 mm 0,0 UV-I 0 W/m 12,4 C 3,2 km/h (1 Bft)
04.09.2016 01:51 13,6 C 13,6 C 93 % 1017,2 hPa 0,0 mm 2,9 km/h (1 Bft) W-NW 300 0 min 0,000 mm 0,0 UV-I 0 W/m 12,5 C 4,8 km/h (1 Bft)
04.09.2016 01:52 13,5 C 13,6 C 93 % 1017,1 hPa 0,0 mm 1,5 km/h (1 Bft) W-NW 300 0 min 0,000 mm 0,0 UV-I 0 W/m 12,4 C 3,2 km/h (1 Bft)
04.09.2016 01:53 13,4 C 13,6 C 93 % 1017,2 hPa 0,0 mm 0,2 km/h (0 Bft) W-NW 300 0 min 0,000 mm 0,0 UV-I 0 W/m 12,3 C 1,6 km/h (1 Bft)
04.09.2016 01:54 13,4 C 13,4 C 93 % 1017,1 hPa 0,0 mm 0,0 km/h (0 Bft) W-NW 300 0 min 0,000 mm 0,0 UV-I 0 W/m 12,3 C 0,0 km/h (0 Bft)
04.09.2016 01:55 13,4 C 13,4 C 93 % 1017,1 hPa 0,0 mm 0,0 km/h (0 Bft) W-NW 300 0 min 0,000 mm 0,0 UV-I 0 W/m 12,3 C 0,0 km/h (0 Bft)
04.09.2016 01:56 13,4 C 13,4 C 93 % 1017,2 hPa 0,0 mm 0,0 km/h (0 Bft) W-NW 300 0 min 0,000 mm 0,0 UV-I 0 W/m 12,3 C 0,0 km/h (0 Bft)
04.09.2016 01:57 13,4 C 13,4 C 93 % 1017,1 hPa 0,0 mm 0,7 km/h (0 Bft) W-NW 300 0 min 0,000 mm 0,0 UV-I 0 W/m 12,3 C 1,6 km/h (1 Bft)
04.09.2016 01:58 13,5 C 13,5 C 94 % 1017,2 hPa 0,0 mm 0,1 km/h (0 Bft) W-NW 300 0 min 0,000 mm 0,0 UV-I 0 W/m 12,6 C 1,6 km/h (1 Bft)
04.09.2016 01:59 13,5 C 13,5 C 93 % 1017,1 hPa 0,0 mm 0,0 km/h (0 Bft) W-NW 300 0 min 0,000 mm 0,0 UV-I 0 W/m 12,4 C 0,0 km/h (0 Bft)
04.09.2016 02:00 13,5 C 13,5 C 93 % 1017,2 hPa 0,0 mm 0,0 km/h (0 Bft) W-NW 300 0 min 0,000 mm 0,0 UV-I 0 W/m 12,4 C 0,0 km/h (0 Bft)
04.09.2016 02:01 13,4 C 13,5 C 93 % 1017,2 hPa 0,0 mm 1,2 km/h (1 Bft) W-NW 300 0 min 0,000 mm 0,0 UV-I 0 W/m 12,3 C 3,2 km/h (1 Bft)
04.09.2016 02:02 13,4 C 13,4 C 93 % 1017,1 hPa 0,0 mm 2,1 km/h (1 Bft) W-NW 287 0 min 0,000 mm 0,0 UV-I 0 W/m 12,3 C 3,2 km/h (1 Bft)
04.09.2016 02:03 13,4 C 13,4 C 93 % 1017,1 hPa 0,0 mm 0,6 km/h (0 Bft) W-NW 287 0 min 0,000 mm 0,0 UV-I 0 W/m 12,3 C 1,6 km/h (1 Bft)
04.09.2016 02:04 13,4 C 13,4 C 93 % 1017,1 hPa 0,0 mm 1,0 km/h (0 Bft) W-NW 287 0 min 0,000 mm 0,0 UV-I 0 W/m 12,3 C 3,2 km/h (1 Bft)
04.09.2016 02:05 13,5 C 13,5 C 94 % 1017,1 hPa 0,0 mm 0,4 km/h (0 Bft) W-NW 287 0 min 0,000 mm 0,0 UV-I 0 W/m 12,6 C 1,6 km/h (1 Bft)
04.09.2016 02:06 13,6 C 13,6 C 93 % 1017,1 hPa 0,0 mm 2,1 km/h (1 Bft) W-NW 287 0 min 0,000 mm 0,0 UV-I 0 W/m 12,5 C 3,2 km/h (1 Bft)
04.09.2016 02:07 13,6 C 13,6 C 93 % 1017,1 hPa 0,0 mm 0,8 km/h (0 Bft) W-NW 287 0 min 0,000 mm 0,0 UV-I 0 W/m 12,5 C 3,2 km/h (1 Bft)
04.09.2016 02:08 13,6 C 13,6 C 93 % 1017,1 hPa 0,0 mm 0,4 km/h (0 Bft) W-NW 287 0 min 0,000 mm 0,0 UV-I 0 W/m 12,5 C 1,6 km/h (1 Bft)
04.09.2016 02:09 13,7 C 13,7 C 93 % 1017,1 hPa 0,0 mm 1,4 km/h (1 Bft) W-NW 287 0 min 0,000 mm 0,0 UV-I 0 W/m 12,6 C 1,6 km/h (1 Bft)
04.09.2016 02:10 13,7 C 13,7 C 93 % 1017,1 hPa 0,0 mm 0,2 km/h (0 Bft) W-NW 287 0 min 0,000 mm 0,0 UV-I 0 W/m 12,6 C 1,6 km/h (1 Bft)
04.09.2016 02:11 13,6 C 13,7 C 93 % 1017,1 hPa 0,0 mm 0,2 km/h (0 Bft) W-NW 287 0 min 0,000 mm 0,0 UV-I 0 W/m 12,5 C 1,6 km/h (1 Bft)
04.09.2016 02:12 13,6 C 13,6 C 92 % 1017,1 hPa 0,0 mm 0,0 km/h (0 Bft) W-NW 287 0 min 0,000 mm 0,0 UV-I 0 W/m 12,3 C 0,0 km/h (0 Bft)
04.09.2016 02:13 13,5 C 13,6 C 92 % 1017,1 hPa 0,0 mm 0,3 km/h (0 Bft) W-NW 287 0 min 0,000 mm 0,0 UV-I 0 W/m 12,2 C 1,6 km/h (1 Bft)
04.09.2016 02:14 13,4 C 13,5 C 92 % 1017,1 hPa 0,0 mm 0,0 km/h (0 Bft) W-NW 287 0 min 0,000 mm 0,0 UV-I 0 W/m 12,1 C 0,0 km/h (0 Bft)
04.09.2016 02:15 13,4 C 13,4 C 92 % 1017,1 hPa 0,0 mm 0,0 km/h (0 Bft) W-NW 287 0 min 0,000 mm 0,0 UV-I 0 W/m 12,1 C 0,0 km/h (0 Bft)
04.09.2016 02:16 13,4 C 13,4 C 92 % 1017,1 hPa 0,0 mm 0,0 km/h (0 Bft) W-NW 287 0 min 0,000 mm 0,0 UV-I 0 W/m 12,1 C 0,0 km/h (0 Bft)
04.09.2016 02:17 13,3 C 13,4 C 93 % 1017,0 hPa 0,0 mm 0,2 km/h (0 Bft) W-NW 287 0 min 0,000 mm 0,0 UV-I 0 W/m 12,2 C 1,6 km/h (1 Bft)
04.09.2016 02:18 13,3 C 13,3 C 92 % 1017,0 hPa 0,0 mm 1,5 km/h (1 Bft) W-NW 287 0 min 0,000 mm 0,0 UV-I 0 W/m 12,0 C 3,2 km/h (1 Bft)
04.09.2016 02:19 13,3 C 13,3 C 93 % 1017,0 hPa 0,0 mm 0,2 km/h (0 Bft) W-NW 287 0 min 0,000 mm 0,0 UV-I 0 W/m 12,2 C 1,6 km/h (1 Bft)
04.09.2016 02:20 13,3 C 13,3 C 93 % 1017,0 hPa 0,0 mm 0,1 km/h (0 Bft) W-NW 287 0 min 0,000 mm 0,0 UV-I 0 W/m 12,2 C 1,6 km/h (1 Bft)
04.09.2016 02:21 13,2 C 13,3 C 93 % 1017,0 hPa 0,0 mm 1,1 km/h (1 Bft) W-NW 287 0 min 0,000 mm 0,0 UV-I 0 W/m 12,1 C 3,2 km/h (1 Bft)
04.09.2016 02:22 13,2 C 13,3 C 93 % 1017,0 hPa 0,0 mm 1,7 km/h (1 Bft) W-NW 287 0 min 0,000 mm 0,0 UV-I 0 W/m 12,1 C 3,2 km/h (1 Bft)
04.09.2016 02:23 13,2 C 13,2 C 93 % 1017,0 hPa 0,0 mm 0,0 km/h (0 Bft) W-NW 287 0 min 0,000 mm 0,0 UV-I 0 W/m 12,1 C 0,0 km/h (0 Bft)
04.09.2016 02:24 13,2 C 13,2 C 93 % 1017,0 hPa 0,0 mm 0,3 km/h (0 Bft) W-NW 287 0 min 0,000 mm 0,0 UV-I 0 W/m 12,1 C 1,6 km/h (1 Bft)
04.09.2016 02:25 13,1 C 13,2 C 92 % 1016,9 hPa 0,0 mm 0,3 km/h (0 Bft) W-NW 287 0 min 0,000 mm 0,0 UV-I 0 W/m 11,8 C 1,6 km/h (1 Bft)
04.09.2016 02:26 13,1 C 13,1 C 93 % 1017,0 hPa 0,0 mm 0,7 km/h (0 Bft) W-NW 287 0 min 0,000 mm 0,0 UV-I 0 W/m 12,0 C 3,2 km/h (1 Bft)
04.09.2016 02:27 13,1 C 13,1 C 93 % 1017,0 hPa 0,0 mm 1,1 km/h (1 Bft) W-NW 287 0 min 0,000 mm 0,0 UV-I 0 W/m 12,0 C 3,2 km/h (1 Bft)
04.09.2016 02:28 12,9 C 13,1 C 93 % 1017,0 hPa 0,0 mm 1,0 km/h (0 Bft) W-NW 287 0 min 0,000 mm 0,0 UV-I 0 W/m 11,8 C 1,6 km/h (1 Bft)
04.09.2016 02:29 12,9 C 12,9 C 93 % 1017,0 hPa 0,0 mm 0,0 km/h (0 Bft) W-NW 287 0 min 0,000 mm 0,0 UV-I 0 W/m 11,8 C 0,0 km/h (0 Bft)
04.09.2016 02:30 12,9 C 12,9 C 93 % 1016,9 hPa 0,0 mm 0,0 km/h (0 Bft) W-NW 287 0 min 0,000 mm 0,0 UV-I 0 W/m 11,8 C 0,0 km/h (0 Bft)
04.09.2016 02:31 12,8 C 12,9 C 93 % 1016,9 hPa 0,0 mm 0,0 km/h (0 Bft) W-NW 287 0 min 0,000 mm 0,0 UV-I 0 W/m 11,7 C 0,0 km/h (0 Bft)
04.09.2016 02:32 12,8 C 12,8 C 93 % 1016,9 hPa 0,0 mm 0,0 km/h (0 Bft) W-NW 287 0 min 0,000 mm 0,0 UV-I 0 W/m 11,7 C 0,0 km/h (0 Bft)
04.09.2016 02:33 12,8 C 12,8 C 94 % 1016,9 hPa 0,0 mm 0,0 km/h (0 Bft) W-NW 287 0 min 0,000 mm 0,0 UV-I 0 W/m 11,9 C 0,0 km/h (0 Bft)
04.09.2016 02:34 12,8 C 12,9 C 94 % 1016,9 hPa 0,0 mm 0,0 km/h (0 Bft) W-NW 287 0 min 0,000 mm 0,0 UV-I 0 W/m 11,9 C 0,0 km/h (0 Bft)
04.09.2016 02:35 12,8 C 12,8 C 94 % 1016,9 hPa 0,0 mm 0,0 km/h (0 Bft) W-NW 287 0 min 0,000 mm 0,0 UV-I 0 W/m 11,9 C 0,0 km/h (0 Bft)
04.09.2016 02:36 12,7 C 12,8 C 94 % 1016,9 hPa 0,0 mm 0,0 km/h (0 Bft) W-NW 287 0 min 0,000 mm 0,0 UV-I 0 W/m 11,8 C 0,0 km/h (0 Bft)
04.09.2016 02:37 12,7 C 12,7 C 94 % 1016,9 hPa 0,0 mm 0,0 km/h (0 Bft) W-NW 287 0 min 0,000 mm 0,0 UV-I 0 W/m 11,8 C 0,0 km/h (0 Bft)
04.09.2016 02:38 12,7 C 12,7 C 94 % 1016,9 hPa 0,0 mm 0,0 km/h (0 Bft) W-NW 287 0 min 0,000 mm 0,0 UV-I 0 W/m 11,8 C 0,0 km/h (0 Bft)
04.09.2016 02:39 12,6 C 12,7 C 94 % 1016,9 hPa 0,0 mm 0,0 km/h (0 Bft) W-NW 287 0 min 0,000 mm 0,0 UV-I 0 W/m 11,7 C 0,0 km/h (0 Bft)
04.09.2016 02:40 12,6 C 12,6 C 94 % 1016,9 hPa 0,0 mm 0,0 km/h (0 Bft) W-NW 287 0 min 0,000 mm 0,0 UV-I 0 W/m 11,7 C 0,0 km/h (0 Bft)
04.09.2016 02:41 12,6 C 12,6 C 94 % 1016,9 hPa 0,0 mm 0,0 km/h (0 Bft) W-NW 287 0 min 0,000 mm 0,0 UV-I 0 W/m 11,7 C 0,0 km/h (0 Bft)
04.09.2016 02:42 12,7 C 12,7 C 94 % 1016,9 hPa 0,0 mm 0,0 km/h (0 Bft) W-NW 287 0 min 0,000 mm 0,0 UV-I 0 W/m 11,8 C 0,0 km/h (0 Bft)
04.09.2016 02:43 12,7 C 12,7 C 94 % 1016,9 hPa 0,0 mm 0,0 km/h (0 Bft) W-NW 287 0 min 0,000 mm 0,0 UV-I 0 W/m 11,8 C 0,0 km/h (0 Bft)
04.09.2016 02:44 12,7 C 12,7 C 94 % 1016,8 hPa 0,0 mm 0,0 km/h (0 Bft) W-NW 287 0 min 0,000 mm 0,0 UV-I 0 W/m 11,8 C 0,0 km/h (0 Bft)
04.09.2016 02:45 12,7 C 12,7 C 94 % 1016,8 hPa 0,0 mm 0,0 km/h (0 Bft) W-NW 287 0 min 0,000 mm 0,0 UV-I 0 W/m 11,8 C 0,0 km/h (0 Bft)
04.09.2016 02:46 12,8 C 12,8 C 95 % 1016,8 hPa 0,0 mm 0,0 km/h (0 Bft) W-NW 287 0 min 0,000 mm 0,0 UV-I 0 W/m 12,0 C 0,0 km/h (0 Bft)
04.09.2016 02:47 12,7 C 12,8 C 94 % 1016,8 hPa 0,0 mm 0,0 km/h (0 Bft) W-NW 287 0 min 0,000 mm 0,0 UV-I 0 W/m 11,8 C 0,0 km/h (0 Bft)
04.09.2016 02:48 12,7 C 12,7 C 94 % 1016,8 hPa 0,0 mm 0,0 km/h (0 Bft) W-NW 287 0 min 0,000 mm 0,0 UV-I 0 W/m 11,8 C 0,0 km/h (0 Bft)
04.09.2016 02:49 12,7 C 12,7 C 94 % 1016,7 hPa 0,0 mm 0,0 km/h (0 Bft) W-NW 287 0 min 0,000 mm 0,0 UV-I 0 W/m 11,8 C 0,0 km/h (0 Bft)
04.09.2016 02:50 12,7 C 12,7 C 94 % 1016,8 hPa 0,0 mm 0,0 km/h (0 Bft) W-NW 287 0 min 0,000 mm 0,0 UV-I 0 W/m 11,8 C 0,0 km/h (0 Bft)
04.09.2016 02:51 12,7 C 12,7 C 94 % 1016,7 hPa 0,0 mm 0,0 km/h (0 Bft) W-NW 287 0 min 0,000 mm 0,0 UV-I 0 W/m 11,8 C 0,0 km/h (0 Bft)
04.09.2016 02:52 12,7 C 12,7 C 94 % 1016,7 hPa 0,0 mm 0,0 km/h (0 Bft) W-NW 287 0 min 0,000 mm 0,0 UV-I 0 W/m 11,8 C 0,0 km/h (0 Bft)
04.09.2016 02:53 12,6 C 12,7 C 94 % 1016,7 hPa 0,0 mm 0,0 km/h (0 Bft) W-NW 287 0 min 0,000 mm 0,0 UV-I 0 W/m 11,7 C 0,0 km/h (0 Bft)
04.09.2016 02:54 12,6 C 12,7 C 94 % 1016,7 hPa 0,0 mm 0,0 km/h (0 Bft) W-NW 287 0 min 0,000 mm 0,0 UV-I 0 W/m 11,7 C 0,0 km/h (0 Bft)
04.09.2016 02:55 12,6 C 12,6 C 94 % 1016,7 hPa 0,0 mm 0,0 km/h (0 Bft) W-NW 287 0 min 0,000 mm 0,0 UV-I 0 W/m 11,7 C 0,0 km/h (0 Bft)
04.09.2016 02:56 12,5 C 12,6 C 94 % 1016,7 hPa 0,0 mm 0,0 km/h (0 Bft) W-NW 287 0 min 0,000 mm 0,0 UV-I 0 W/m 11,6 C 0,0 km/h (0 Bft)
04.09.2016 02:57 12,6 C 12,6 C 94 % 1016,7 hPa 0,0 mm 0,0 km/h (0 Bft) W-NW 287 0 min 0,000 mm 0,0 UV-I 0 W/m 11,7 C 0,0 km/h (0 Bft)
04.09.2016 02:58 12,6 C 12,6 C 95 % 1016,7 hPa 0,0 mm 0,0 km/h (0 Bft) W-NW 287 0 min 0,000 mm 0,0 UV-I 0 W/m 11,8 C 0,0 km/h (0 Bft)
04.09.2016 02:59 12,5 C 12,6 C 94 % 1016,7 hPa 0,0 mm 0,3 km/h (0 Bft) W-NW 287 0 min 0,000 mm 0,0 UV-I 0 W/m 11,6 C 1,6 km/h (1 Bft)
04.09.2016 03:00 12,5 C 12,5 C 94 % 1016,7 hPa 0,0 mm 0,7 km/h (0 Bft) W-NW 287 0 min 0,000 mm 0,0 UV-I 0 W/m 11,6 C 3,2 km/h (1 Bft)
04.09.2016 03:01 12,4 C 12,5 C 94 % 1016,7 hPa 0,0 mm 0,0 km/h (0 Bft) W-NW 287 0 min 0,000 mm 0,0 UV-I 0 W/m 11,5 C 0,0 km/h (0 Bft)
04.09.2016 03:02 12,4 C 12,5 C 95 % 1016,7 hPa 0,0 mm 0,0 km/h (0 Bft) W-NW 287 0 min 0,000 mm 0,0 UV-I 0 W/m 11,6 C 0,0 km/h (0 Bft)
04.09.2016 03:03 12,4 C 12,4 C 95 % 1016,7 hPa 0,0 mm 0,0 km/h (0 Bft) W-NW 287 0 min 0,000 mm 0,0 UV-I 0 W/m 11,6 C 0,0 km/h (0 Bft)
04.09.2016 03:04 12,4 C 12,4 C 95 % 1016,7 hPa 0,0 mm 0,0 km/h (0 Bft) W-NW 287 0 min 0,000 mm 0,0 UV-I 0 W/m 11,6 C 0,0 km/h (0 Bft)
04.09.2016 03:05 12,4 C 12,4 C 94 % 1016,7 hPa 0,0 mm 0,0 km/h (0 Bft) W-NW 287 0 min 0,000 mm 0,0 UV-I 0 W/m 11,5 C 0,0 km/h (0 Bft)
04.09.2016 03:06 12,4 C 12,4 C 94 % 1016,7 hPa 0,0 mm 0,0 km/h (0 Bft) W-NW 287 0 min 0,000 mm 0,0 UV-I 0 W/m 11,5 C 0,0 km/h (0 Bft)
04.09.2016 03:07 12,4 C 12,4 C 95 % 1016,7 hPa 0,0 mm 0,0 km/h (0 Bft) W-NW 287 0 min 0,000 mm 0,0 UV-I 0 W/m 11,6 C 0,0 km/h (0 Bft)
04.09.2016 03:08 12,4 C 12,4 C 95 % 1016,7 hPa 0,0 mm 0,0 km/h (0 Bft) W-NW 287 0 min 0,000 mm 0,0 UV-I 0 W/m 11,6 C 0,0 km/h (0 Bft)
04.09.2016 03:09 12,4 C 12,4 C 95 % 1016,7 hPa 0,0 mm 0,0 km/h (0 Bft) W-NW 287 0 min 0,000 mm 0,0 UV-I 0 W/m 11,6 C 0,0 km/h (0 Bft)
04.09.2016 03:10 12,4 C 12,4 C 95 % 1016,7 hPa 0,0 mm 0,0 km/h (0 Bft) W-NW 287 0 min 0,000 mm 0,0 UV-I 0 W/m 11,6 C 0,0 km/h (0 Bft)
04.09.2016 03:11 12,4 C 12,4 C 95 % 1016,8 hPa 0,0 mm 0,0 km/h (0 Bft) W-NW 287 0 min 0,000 mm 0,0 UV-I 0 W/m 11,6 C 0,0 km/h (0 Bft)
04.09.2016 03:12 12,4 C 12,4 C 95 % 1016,8 hPa 0,0 mm 0,0 km/h (0 Bft) W-NW 287 0 min 0,000 mm 0,0 UV-I 0 W/m 11,6 C 0,0 km/h (0 Bft)
04.09.2016 03:13 12,4 C 12,4 C 95 % 1016,7 hPa 0,0 mm 0,0 km/h (0 Bft) W-NW 287 0 min 0,000 mm 0,0 UV-I 0 W/m 11,6 C 0,0 km/h (0 Bft)
04.09.2016 03:14 12,4 C 12,4 C 95 % 1016,7 hPa 0,0 mm 0,0 km/h (0 Bft) W-NW 287 0 min 0,000 mm 0,0 UV-I 0 W/m 11,6 C 0,0 km/h (0 Bft)
04.09.2016 03:15 12,4 C 12,5 C 95 % 1016,7 hPa 0,0 mm 0,0 km/h (0 Bft) W-NW 287 0 min 0,000 mm 0,0 UV-I 0 W/m 11,6 C 0,0 km/h (0 Bft)
04.09.2016 03:16 12,4 C 12,4 C 95 % 1016,7 hPa 0,0 mm 0,0 km/h (0 Bft) W-NW 287 0 min 0,000 mm 0,0 UV-I 0 W/m 11,6 C 0,0 km/h (0 Bft)
04.09.2016 03:17 12,5 C 12,5 C 95 % 1016,7 hPa 0,0 mm 0,0 km/h (0 Bft) W-NW 287 0 min 0,000 mm 0,0 UV-I 0 W/m 11,7 C 0,0 km/h (0 Bft)
04.09.2016 03:18 12,4 C 12,5 C 95 % 1016,7 hPa 0,0 mm 0,0 km/h (0 Bft) W-NW 287 0 min 0,000 mm 0,0 UV-I 0 W/m 11,6 C 0,0 km/h (0 Bft)
04.09.2016 03:19 12,4 C 12,4 C 95 % 1016,7 hPa 0,0 mm 0,0 km/h (0 Bft) W-NW 287 0 min 0,000 mm 0,0 UV-I 0 W/m 11,6 C 0,0 km/h (0 Bft)
04.09.2016 03:20 12,4 C 12,4 C 95 % 1016,7 hPa 0,0 mm 0,3 km/h (0 Bft) W-NW 287 0 min 0,000 mm 0,0 UV-I 0 W/m 11,6 C 1,6 km/h (1 Bft)
04.09.2016 03:21 12,5 C 12,5 C 95 % 1016,7 hPa 0,0 mm 0,2 km/h (0 Bft) W-NW 287 0 min 0,000 mm 0,0 UV-I 0 W/m 11,7 C 1,6 km/h (1 Bft)
04.09.2016 03:22 12,5 C 12,6 C 95 % 1016,7 hPa 0,0 mm 0,1 km/h (0 Bft) W-NW 287 0 min 0,000 mm 0,0 UV-I 0 W/m 11,7 C 1,6 km/h (1 Bft)
04.09.2016 03:23 12,5 C 12,5 C 95 % 1016,7 hPa 0,0 mm 0,0 km/h (0 Bft) W-NW 287 0 min 0,000 mm 0,0 UV-I 0 W/m 11,7 C 0,0 km/h (0 Bft)
04.09.2016 03:24 12,5 C 12,5 C 95 % 1016,7 hPa 0,0 mm 0,8 km/h (0 Bft) W-NW 287 0 min 0,000 mm 0,0 UV-I 0 W/m 11,7 C 1,6 km/h (1 Bft)
04.09.2016 03:25 12,5 C 12,6 C 95 % 1016,6 hPa 0,0 mm 0,9 km/h (0 Bft) W-NW 287 0 min 0,000 mm 0,0 UV-I 0 W/m 11,7 C 1,6 km/h (1 Bft)
04.09.2016 03:26 12,5 C 12,6 C 95 % 1016,7 hPa 0,0 mm 0,4 km/h (0 Bft) W-NW 287 0 min 0,000 mm 0,0 UV-I 0 W/m 11,7 C 1,6 km/h (1 Bft)
04.09.2016 03:27 12,5 C 12,5 C 95 % 1016,7 hPa 0,0 mm 0,8 km/h (0 Bft) W-NW 287 0 min 0,000 mm 0,0 UV-I 0 W/m 11,7 C 1,6 km/h (1 Bft)
04.09.2016 03:28 12,5 C 12,5 C 95 % 1016,6 hPa 0,0 mm 0,6 km/h (0 Bft) W-NW 287 0 min 0,000 mm 0,0 UV-I 0 W/m 11,7 C 1,6 km/h (1 Bft)
04.09.2016 03:29 12,5 C 12,5 C 95 % 1016,6 hPa 0,0 mm 0,0 km/h (0 Bft) W-NW 287 0 min 0,000 mm 0,0 UV-I 0 W/m 11,7 C 0,0 km/h (0 Bft)
04.09.2016 03:30 12,5 C 12,5 C 95 % 1016,7 hPa 0,0 mm 0,1 km/h (0 Bft) W-NW 287 0 min 0,000 mm 0,0 UV-I 0 W/m 11,7 C 1,6 km/h (1 Bft)
04.09.2016 03:31 12,5 C 12,6 C 95 % 1016,6 hPa 0,0 mm 0,0 km/h (0 Bft) W-NW 287 0 min 0,000 mm 0,0 UV-I 0 W/m 11,7 C 0,0 km/h (0 Bft)
04.09.2016 03:32 12,5 C 12,6 C 95 % 1016,6 hPa 0,0 mm 0,0 km/h (0 Bft) W-NW 287 0 min 0,000 mm 0,0 UV-I 0 W/m 11,7 C 0,0 km/h (0 Bft)
04.09.2016 03:33 12,4 C 12,5 C 95 % 1016,6 hPa 0,0 mm 0,0 km/h (0 Bft) W-NW 287 0 min 0,000 mm 0,0 UV-I 0 W/m 11,6 C 0,0 km/h (0 Bft)
04.09.2016 03:34 12,4 C 12,4 C 95 % 1016,6 hPa 0,0 mm 0,0 km/h (0 Bft) W-NW 287 0 min 0,000 mm 0,0 UV-I 0 W/m 11,6 C 0,0 km/h (0 Bft)
04.09.2016 03:35 12,4 C 12,4 C 95 % 1016,6 hPa 0,0 mm 0,0 km/h (0 Bft) W-NW 287 0 min 0,000 mm 0,0 UV-I 0 W/m 11,6 C 0,0 km/h (0 Bft)
04.09.2016 03:36 12,4 C 12,4 C 95 % 1016,6 hPa 0,0 mm 0,0 km/h (0 Bft) W-NW 287 0 min 0,000 mm 0,0 UV-I 0 W/m 11,6 C 0,0 km/h (0 Bft)
04.09.2016 03:37 12,4 C 12,4 C 95 % 1016,6 hPa 0,0 mm 0,1 km/h (0 Bft) W-NW 287 0 min 0,000 mm 0,0 UV-I 0 W/m 11,6 C 1,6 km/h (1 Bft)
04.09.2016 03:38 12,4 C 12,4 C 95 % 1016,6 hPa 0,0 mm 0,0 km/h (0 Bft) W-NW 287 0 min 0,000 mm 0,0 UV-I 0 W/m 11,6 C 0,0 km/h (0 Bft)
04.09.2016 03:39 12,4 C 12,4 C 95 % 1016,6 hPa 0,0 mm 0,0 km/h (0 Bft) W-NW 287 0 min 0,000 mm 0,0 UV-I 0 W/m 11,6 C 0,0 km/h (0 Bft)
04.09.2016 03:40 12,3 C 12,4 C 95 % 1016,6 hPa 0,0 mm 0,0 km/h (0 Bft) W-NW 287 0 min 0,000 mm 0,0 UV-I 0 W/m 11,5 C 0,0 km/h (0 Bft)
04.09.2016 03:41 12,3 C 12,3 C 95 % 1016,6 hPa 0,0 mm 0,0 km/h (0 Bft) W-NW 287 0 min 0,000 mm 0,0 UV-I 0 W/m 11,5 C 0,0 km/h (0 Bft)
04.09.2016 03:42 12,3 C 12,3 C 95 % 1016,6 hPa 0,0 mm 0,0 km/h (0 Bft) W-NW 287 0 min 0,000 mm 0,0 UV-I 0 W/m 11,5 C 0,0 km/h (0 Bft)
04.09.2016 03:43 12,3 C 12,3 C 95 % 1016,6 hPa 0,0 mm 0,0 km/h (0 Bft) W-NW 287 0 min 0,000 mm 0,0 UV-I 0 W/m 11,5 C 0,0 km/h (0 Bft)
04.09.2016 03:44 12,3 C 12,3 C 95 % 1016,6 hPa 0,0 mm 0,0 km/h (0 Bft) W-NW 287 0 min 0,000 mm 0,0 UV-I 0 W/m 11,5 C 0,0 km/h (0 Bft)
04.09.2016 03:45 12,2 C 12,3 C 95 % 1016,6 hPa 0,0 mm 0,3 km/h (0 Bft) W-NW 287 0 min 0,000 mm 0,0 UV-I 0 W/m 11,4 C 1,6 km/h (1 Bft)
04.09.2016 03:46 12,2 C 12,2 C 95 % 1016,6 hPa 0,0 mm 0,1 km/h (0 Bft) W-NW 287 0 min 0,000 mm 0,0 UV-I 0 W/m 11,4 C 1,6 km/h (1 Bft)
04.09.2016 03:47 12,2 C 12,2 C 95 % 1016,6 hPa 0,0 mm 0,0 km/h (0 Bft) W-NW 287 0 min 0,000 mm 0,0 UV-I 0 W/m 11,4 C 0,0 km/h (0 Bft)
04.09.2016 03:48 12,1 C 12,2 C 95 % 1016,6 hPa 0,0 mm 0,1 km/h (0 Bft) W-NW 287 0 min 0,000 mm 0,0 UV-I 0 W/m 11,3 C 1,6 km/h (1 Bft)
04.09.2016 03:49 12,1 C 12,1 C 95 % 1016,5 hPa 0,0 mm 0,0 km/h (0 Bft) W-NW 287 0 min 0,000 mm 0,0 UV-I 0 W/m 11,3 C 0,0 km/h (0 Bft)
04.09.2016 03:50 12,1 C 12,1 C 95 % 1016,6 hPa 0,0 mm 0,0 km/h (0 Bft) W-NW 287 0 min 0,000 mm 0,0 UV-I 0 W/m 11,3 C 0,0 km/h (0 Bft)
04.09.2016 03:51 12,1 C 12,1 C 95 % 1016,5 hPa 0,0 mm 0,0 km/h (0 Bft) W-NW 287 0 min 0,000 mm 0,0 UV-I 0 W/m 11,3 C 0,0 km/h (0 Bft)
04.09.2016 03:52 12,1 C 12,1 C 95 % 1016,5 hPa 0,0 mm 0,0 km/h (0 Bft) W-NW 287 0 min 0,000 mm 0,0 UV-I 0 W/m 11,3 C 0,0 km/h (0 Bft)
04.09.2016 03:53 12,2 C 12,2 C 95 % 1016,4 hPa 0,0 mm 0,0 km/h (0 Bft) W-NW 287 0 min 0,000 mm 0,0 UV-I 0 W/m 11,4 C 0,0 km/h (0 Bft)
04.09.2016 03:54 12,1 C 12,2 C 95 % 1016,5 hPa 0,0 mm 0,0 km/h (0 Bft) W-NW 287 0 min 0,000 mm 0,0 UV-I 0 W/m 11,3 C 0,0 km/h (0 Bft)
04.09.2016 03:55 12,1 C 12,1 C 94 % 1016,4 hPa 0,0 mm 0,0 km/h (0 Bft) W-NW 287 0 min 0,000 mm 0,0 UV-I 0 W/m 11,2 C 0,0 km/h (0 Bft)
04.09.2016 03:56 12,1 C 12,1 C 94 % 1016,4 hPa 0,0 mm 0,0 km/h (0 Bft) W-NW 287 0 min 0,000 mm 0,0 UV-I 0 W/m 11,2 C 0,0 km/h (0 Bft)
04.09.2016 03:57 12,1 C 12,1 C 93 % 1016,5 hPa 0,0 mm 0,2 km/h (0 Bft) W-NW 287 0 min 0,000 mm 0,0 UV-I 0 W/m 11,0 C 1,6 km/h (1 Bft)
04.09.2016 03:58 12,0 C 12,1 C 93 % 1016,4 hPa 0,0 mm 0,0 km/h (0 Bft) W-NW 287 0 min 0,000 mm 0,0 UV-I 0 W/m 10,9 C 0,0 km/h (0 Bft)
04.09.2016 03:59 12,0 C 12,0 C 93 % 1016,4 hPa 0,0 mm 0,8 km/h (0 Bft) W-NW 287 0 min 0,000 mm 0,0 UV-I 0 W/m 10,9 C 1,6 km/h (1 Bft)
04.09.2016 04:00 12,0 C 12,1 C 93 % 1016,5 hPa 0,0 mm 0,5 km/h (0 Bft) W-NW 287 0 min 0,000 mm 0,0 UV-I 0 W/m 10,9 C 1,6 km/h (1 Bft)
04.09.2016 04:01 12,1 C 12,1 C 93 % 1016,5 hPa 0,0 mm 0,9 km/h (0 Bft) W-NW 287 0 min 0,000 mm 0,0 UV-I 0 W/m 11,0 C 1,6 km/h (1 Bft)
04.09.2016 04:02 12,1 C 12,1 C 93 % 1016,5 hPa 0,0 mm 0,0 km/h (0 Bft) W-NW 287 0 min 0,000 mm 0,0 UV-I 0 W/m 11,0 C 0,0 km/h (0 Bft)
04.09.2016 04:03 12,1 C 12,1 C 93 % 1016,5 hPa 0,0 mm 0,2 km/h (0 Bft) W-NW 287 0 min 0,000 mm 0,0 UV-I 0 W/m 11,0 C 1,6 km/h (1 Bft)
04.09.2016 04:04 12,1 C 12,1 C 93 % 1016,5 hPa 0,0 mm 0,4 km/h (0 Bft) W-NW 287 0 min 0,000 mm 0,0 UV-I 0 W/m 11,0 C 1,6 km/h (1 Bft)
04.09.2016 04:05 12,0 C 12,1 C 93 % 1016,4 hPa 0,0 mm 1,4 km/h (1 Bft) W-NW 287 0 min 0,000 mm 0,0 UV-I 0 W/m 10,9 C 3,2 km/h (1 Bft)
04.09.2016 04:06 11,9 C 12,0 C 93 % 1016,4 hPa 0,0 mm 1,0 km/h (0 Bft) W-NW 287 0 min 0,000 mm 0,0 UV-I 0 W/m 10,8 C 1,6 km/h (1 Bft)
04.09.2016 04:07 12,0 C 12,0 C 93 % 1016,4 hPa 0,0 mm 0,0 km/h (0 Bft) W-NW 287 0 min 0,000 mm 0,0 UV-I 0 W/m 10,9 C 0,0 km/h (0 Bft)
04.09.2016 04:08 11,9 C 12,0 C 93 % 1016,4 hPa 0,0 mm 0,0 km/h (0 Bft) W-NW 287 0 min 0,000 mm 0,0 UV-I 0 W/m 10,8 C 0,0 km/h (0 Bft)
04.09.2016 04:09 11,9 C 11,9 C 93 % 1016,5 hPa 0,0 mm 0,1 km/h (0 Bft) W-NW 287 0 min 0,000 mm 0,0 UV-I 0 W/m 10,8 C 1,6 km/h (1 Bft)
04.09.2016 04:10 11,9 C 12,0 C 93 % 1016,5 hPa 0,0 mm 0,6 km/h (0 Bft) W-NW 287 0 min 0,000 mm 0,0 UV-I 0 W/m 10,8 C 1,6 km/h (1 Bft)
04.09.2016 04:11 12,0 C 12,0 C 93 % 1016,4 hPa 0,0 mm 0,0 km/h (0 Bft) W-NW 287 0 min 0,000 mm 0,0 UV-I 0 W/m 10,9 C 0,0 km/h (0 Bft)
04.09.2016 04:12 12,0 C 12,0 C 93 % 1016,4 hPa 0,0 mm 0,0 km/h (0 Bft) W-NW 287 0 min 0,000 mm 0,0 UV-I 0 W/m 10,9 C 0,0 km/h (0 Bft)
04.09.2016 04:13 12,0 C 12,0 C 93 % 1016,4 hPa 0,0 mm 0,0 km/h (0 Bft) W-NW 287 0 min 0,000 mm 0,0 UV-I 0 W/m 10,9 C 0,0 km/h (0 Bft)
04.09.2016 04:14 12,1 C 12,1 C 94 % 1016,4 hPa 0,0 mm 0,0 km/h (0 Bft) W-NW 287 0 min 0,000 mm 0,0 UV-I 0 W/m 11,2 C 0,0 km/h (0 Bft)
04.09.2016 04:15 12,1 C 12,1 C 93 % 1016,4 hPa 0,0 mm 0,0 km/h (0 Bft) W-NW 287 0 min 0,000 mm 0,0 UV-I 0 W/m 11,0 C 0,0 km/h (0 Bft)
04.09.2016 04:16 12,0 C 12,1 C 93 % 1016,4 hPa 0,0 mm 0,0 km/h (0 Bft) W-NW 287 0 min 0,000 mm 0,0 UV-I 0 W/m 10,9 C 0,0 km/h (0 Bft)
04.09.2016 04:17 11,9 C 12,0 C 93 % 1016,4 hPa 0,0 mm 0,0 km/h (0 Bft) W-NW 287 0 min 0,000 mm 0,0 UV-I 0 W/m 10,8 C 0,0 km/h (0 Bft)
04.09.2016 04:18 11,9 C 11,9 C 93 % 1016,4 hPa 0,0 mm 0,2 km/h (0 Bft) W-NW 287 0 min 0,000 mm 0,0 UV-I 0 W/m 10,8 C 1,6 km/h (1 Bft)
04.09.2016 04:19 11,9 C 11,9 C 93 % 1016,4 hPa 0,0 mm 1,3 km/h (1 Bft) W-NW 287 0 min 0,000 mm 0,0 UV-I 0 W/m 10,8 C 3,2 km/h (1 Bft)
04.09.2016 04:20 11,9 C 11,9 C 93 % 1016,4 hPa 0,0 mm 0,5 km/h (0 Bft) W-NW 287 0 min 0,000 mm 0,0 UV-I 0 W/m 10,8 C 1,6 km/h (1 Bft)
04.09.2016 04:21 12,0 C 12,0 C 93 % 1016,4 hPa 0,0 mm 0,0 km/h (0 Bft) W-NW 287 0 min 0,000 mm 0,0 UV-I 0 W/m 10,9 C 0,0 km/h (0 Bft)
04.09.2016 04:22 12,1 C 12,1 C 93 % 1016,3 hPa 0,0 mm 0,0 km/h (0 Bft) W-NW 287 0 min 0,000 mm 0,0 UV-I 0 W/m 11,0 C 0,0 km/h (0 Bft)
04.09.2016 04:23 12,1 C 12,1 C 93 % 1016,4 hPa 0,0 mm 0,0 km/h (0 Bft) W-NW 287 0 min 0,000 mm 0,0 UV-I 0 W/m 11,0 C 0,0 km/h (0 Bft)
04.09.2016 04:24 12,1 C 12,1 C 93 % 1016,4 hPa 0,0 mm 0,6 km/h (0 Bft) W-NW 287 0 min 0,000 mm 0,0 UV-I 0 W/m 11,0 C 1,6 km/h (1 Bft)
04.09.2016 04:25 12,0 C 12,1 C 93 % 1016,4 hPa 0,0 mm 0,7 km/h (0 Bft) W-NW 287 0 min 0,000 mm 0,0 UV-I 0 W/m 10,9 C 1,6 km/h (1 Bft)
04.09.2016 04:26 12,0 C 12,0 C 93 % 1016,4 hPa 0,0 mm 0,6 km/h (0 Bft) W-NW 287 0 min 0,000 mm 0,0 UV-I 0 W/m 10,9 C 1,6 km/h (1 Bft)
04.09.2016 04:27 11,9 C 12,0 C 93 % 1016,4 hPa 0,0 mm 0,1 km/h (0 Bft) W-NW 287 0 min 0,000 mm 0,0 UV-I 0 W/m 10,8 C 1,6 km/h (1 Bft)
04.09.2016 04:28 11,9 C 11,9 C 93 % 1016,3 hPa 0,0 mm 0,0 km/h (0 Bft) W-NW 287 0 min 0,000 mm 0,0 UV-I 0 W/m 10,8 C 0,0 km/h (0 Bft)
04.09.2016 04:29 11,9 C 11,9 C 92 % 1016,4 hPa 0,0 mm 0,0 km/h (0 Bft) W-NW 287 0 min 0,000 mm 0,0 UV-I 0 W/m 10,6 C 0,0 km/h (0 Bft)
04.09.2016 04:30 11,8 C 11,9 C 92 % 1016,3 hPa 0,0 mm 0,0 km/h (0 Bft) W-NW 287 0 min 0,000 mm 0,0 UV-I 0 W/m 10,5 C 0,0 km/h (0 Bft)
04.09.2016 04:31 11,8 C 11,8 C 92 % 1016,4 hPa 0,0 mm 0,0 km/h (0 Bft) W-NW 287 0 min 0,000 mm 0,0 UV-I 0 W/m 10,5 C 0,0 km/h (0 Bft)
04.09.2016 04:32 11,8 C 11,8 C 93 % 1016,4 hPa 0,0 mm 1,9 km/h (1 Bft) W-NW 287 0 min 0,000 mm 0,0 UV-I 0 W/m 10,7 C 3,2 km/h (1 Bft)
04.09.2016 04:33 11,8 C 11,8 C 92 % 1016,4 hPa 0,0 mm 0,5 km/h (0 Bft) W-NW 287 0 min 0,000 mm 0,0 UV-I 0 W/m 10,5 C 1,6 km/h (1 Bft)
04.09.2016 04:34 11,8 C 11,8 C 92 % 1016,4 hPa 0,0 mm 0,9 km/h (0 Bft) W-NW 287 0 min 0,000 mm 0,0 UV-I 0 W/m 10,5 C 3,2 km/h (1 Bft)
04.09.2016 04:35 11,7 C 11,8 C 93 % 1016,4 hPa 0,0 mm 1,5 km/h (1 Bft) W-NW 287 0 min 0,000 mm 0,0 UV-I 0 W/m 10,6 C 3,2 km/h (1 Bft)
04.09.2016 04:36 11,7 C 11,7 C 92 % 1016,4 hPa 0,0 mm 0,7 km/h (0 Bft) W-NW 287 0 min 0,000 mm 0,0 UV-I 0 W/m 10,4 C 1,6 km/h (1 Bft)
04.09.2016 04:37 11,7 C 11,7 C 93 % 1016,4 hPa 0,0 mm 0,0 km/h (0 Bft) W-NW 287 0 min 0,000 mm 0,0 UV-I 0 W/m 10,6 C 0,0 km/h (0 Bft)
04.09.2016 04:38 11,7 C 11,7 C 93 % 1016,3 hPa 0,0 mm 0,9 km/h (0 Bft) SW 217 0 min 0,000 mm 0,0 UV-I 0 W/m 10,6 C 3,2 km/h (1 Bft)
04.09.2016 04:39 11,8 C 11,8 C 93 % 1016,3 hPa 0,0 mm 0,0 km/h (0 Bft) SW 217 0 min 0,000 mm 0,0 UV-I 0 W/m 10,7 C 0,0 km/h (0 Bft)
04.09.2016 04:40 11,8 C 11,8 C 93 % 1016,3 hPa 0,0 mm 0,0 km/h (0 Bft) SW 217 0 min 0,000 mm 0,0 UV-I 0 W/m 10,7 C 0,0 km/h (0 Bft)
04.09.2016 04:41 11,8 C 11,8 C 93 % 1016,3 hPa 0,0 mm 0,0 km/h (0 Bft) SW 217 0 min 0,000 mm 0,0 UV-I 0 W/m 10,7 C 0,0 km/h (0 Bft)
04.09.2016 04:42 11,8 C 11,8 C 92 % 1016,3 hPa 0,0 mm 0,0 km/h (0 Bft) SW 217 0 min 0,000 mm 0,0 UV-I 0 W/m 10,5 C 0,0 km/h (0 Bft)
04.09.2016 04:43 11,8 C 11,8 C 92 % 1016,3 hPa 0,0 mm 0,0 km/h (0 Bft) SW 217 0 min 0,000 mm 0,0 UV-I 0 W/m 10,5 C 0,0 km/h (0 Bft)
04.09.2016 04:44 11,8 C 11,8 C 92 % 1016,3 hPa 0,0 mm 0,0 km/h (0 Bft) SW 217 0 min 0,000 mm 0,0 UV-I 0 W/m 10,5 C 0,0 km/h (0 Bft)
04.09.2016 04:45 11,8 C 11,8 C 92 % 1016,3 hPa 0,0 mm 0,0 km/h (0 Bft) SW 217 0 min 0,000 mm 0,0 UV-I 0 W/m 10,5 C 0,0 km/h (0 Bft)
04.09.2016 04:46 11,8 C 11,8 C 92 % 1016,3 hPa 0,0 mm 0,0 km/h (0 Bft) SW 217 0 min 0,000 mm 0,0 UV-I 0 W/m 10,5 C 0,0 km/h (0 Bft)
04.09.2016 04:47 11,8 C 11,8 C 93 % 1016,3 hPa 0,0 mm 0,0 km/h (0 Bft) SW 217 0 min 0,000 mm 0,0 UV-I 0 W/m 10,7 C 0,0 km/h (0 Bft)
04.09.2016 04:48 11,9 C 11,9 C 93 % 1016,3 hPa 0,0 mm 0,0 km/h (0 Bft) SW 217 0 min 0,000 mm 0,0 UV-I 0 W/m 10,8 C 0,0 km/h (0 Bft)
04.09.2016 04:49 11,9 C 11,9 C 92 % 1016,3 hPa 0,0 mm 0,0 km/h (0 Bft) SW 217 0 min 0,000 mm 0,0 UV-I 0 W/m 10,6 C 0,0 km/h (0 Bft)
04.09.2016 04:50 11,9 C 11,9 C 92 % 1016,2 hPa 0,0 mm 0,0 km/h (0 Bft) SW 217 0 min 0,000 mm 0,0 UV-I 0 W/m 10,6 C 0,0 km/h (0 Bft)
04.09.2016 04:51 11,9 C 11,9 C 92 % 1016,2 hPa 0,0 mm 0,0 km/h (0 Bft) SW 217 0 min 0,000 mm 0,0 UV-I 0 W/m 10,6 C 0,0 km/h (0 Bft)
04.09.2016 04:52 11,9 C 11,9 C 92 % 1016,3 hPa 0,0 mm 0,0 km/h (0 Bft) SW 217 0 min 0,000 mm 0,0 UV-I 0 W/m 10,6 C 0,0 km/h (0 Bft)
04.09.2016 04:53 11,9 C 11,9 C 92 % 1016,2 hPa 0,0 mm 0,0 km/h (0 Bft) SW 217 0 min 0,000 mm 0,0 UV-I 0 W/m 10,6 C 0,0 km/h (0 Bft)
04.09.2016 04:54 11,9 C 11,9 C 92 % 1016,3 hPa 0,0 mm 0,0 km/h (0 Bft) SW 217 0 min 0,000 mm 0,0 UV-I 0 W/m 10,6 C 0,0 km/h (0 Bft)
04.09.2016 04:55 12,0 C 12,0 C 92 % 1016,3 hPa 0,0 mm 0,0 km/h (0 Bft) SW 217 0 min 0,000 mm 0,0 UV-I 0 W/m 10,7 C 0,0 km/h (0 Bft)
04.09.2016 04:56 12,1 C 12,1 C 91 % 1016,3 hPa 0,0 mm 0,0 km/h (0 Bft) SW 217 0 min 0,000 mm 0,0 UV-I 0 W/m 10,7 C 0,0 km/h (0 Bft)
04.09.2016 04:57 12,1 C 12,1 C 91 % 1016,3 hPa 0,0 mm 0,0 km/h (0 Bft) SW 217 0 min 0,000 mm 0,0 UV-I 0 W/m 10,7 C 0,0 km/h (0 Bft)
04.09.2016 04:58 12,1 C 12,2 C 91 % 1016,3 hPa 0,0 mm 0,0 km/h (0 Bft) SW 217 0 min 0,000 mm 0,0 UV-I 0 W/m 10,7 C 0,0 km/h (0 Bft)
04.09.2016 04:59 12,1 C 12,1 C 91 % 1016,2 hPa 0,0 mm 0,0 km/h (0 Bft) SW 217 0 min 0,000 mm 0,0 UV-I 0 W/m 10,7 C 0,0 km/h (0 Bft)
04.09.2016 05:00 12,0 C 12,1 C 90 % 1016,3 hPa 0,0 mm 0,0 km/h (0 Bft) SW 217 0 min 0,000 mm 0,0 UV-I 0 W/m 10,4 C 0,0 km/h (0 Bft)
04.09.2016 05:01 11,9 C 12,0 C 90 % 1016,3 hPa 0,0 mm 0,0 km/h (0 Bft) SW 217 0 min 0,000 mm 0,0 UV-I 0 W/m 10,3 C 0,0 km/h (0 Bft)
04.09.2016 05:02 11,9 C 11,9 C 90 % 1016,3 hPa 0,0 mm 0,0 km/h (0 Bft) W 267 0 min 0,000 mm 0,0 UV-I 0 W/m 10,3 C 0,0 km/h (0 Bft)
04.09.2016 05:03 11,9 C 11,9 C 90 % 1016,3 hPa 0,0 mm 0,7 km/h (0 Bft) W 267 0 min 0,000 mm 0,0 UV-I 0 W/m 10,3 C 1,6 km/h (1 Bft)
04.09.2016 05:04 11,9 C 11,9 C 91 % 1016,3 hPa 0,0 mm 0,5 km/h (0 Bft) W 267 0 min 0,000 mm 0,0 UV-I 0 W/m 10,5 C 1,6 km/h (1 Bft)
04.09.2016 05:05 11,9 C 11,9 C 91 % 1016,4 hPa 0,0 mm 0,3 km/h (0 Bft) W 267 0 min 0,000 mm 0,0 UV-I 0 W/m 10,5 C 1,6 km/h (1 Bft)
04.09.2016 05:06 11,9 C 11,9 C 91 % 1016,3 hPa 0,0 mm 1,1 km/h (1 Bft) W 267 0 min 0,000 mm 0,0 UV-I 0 W/m 10,5 C 3,2 km/h (1 Bft)
04.09.2016 05:07 11,9 C 11,9 C 91 % 1016,3 hPa 0,0 mm 0,1 km/h (0 Bft) W 267 0 min 0,000 mm 0,0 UV-I 0 W/m 10,5 C 1,6 km/h (1 Bft)
04.09.2016 05:08 11,9 C 11,9 C 91 % 1016,3 hPa 0,0 mm 2,3 km/h (1 Bft) W-NW 288 0 min 0,000 mm 0,0 UV-I 0 W/m 10,5 C 3,2 km/h (1 Bft)
04.09.2016 05:09 11,9 C 11,9 C 91 % 1016,4 hPa 0,0 mm 0,9 km/h (0 Bft) W-NW 288 0 min 0,000 mm 0,0 UV-I 0 W/m 10,5 C 3,2 km/h (1 Bft)
04.09.2016 05:10 11,9 C 11,9 C 91 % 1016,4 hPa 0,0 mm 0,5 km/h (0 Bft) W-NW 288 0 min 0,000 mm 0,0 UV-I 0 W/m 10,5 C 1,6 km/h (1 Bft)
04.09.2016 05:11 11,8 C 11,9 C 90 % 1016,3 hPa 0,0 mm 0,4 km/h (0 Bft) W-NW 288 0 min 0,000 mm 0,0 UV-I 0 W/m 10,2 C 1,6 km/h (1 Bft)
04.09.2016 05:12 11,8 C 11,8 C 90 % 1016,3 hPa 0,0 mm 2,4 km/h (1 Bft) W-NW 287 0 min 0,000 mm 0,0 UV-I 0 W/m 10,2 C 3,2 km/h (1 Bft)
04.09.2016 05:13 11,8 C 11,8 C 91 % 1016,4 hPa 0,0 mm 1,1 km/h (1 Bft) W-NW 287 0 min 0,000 mm 0,0 UV-I 0 W/m 10,4 C 3,2 km/h (1 Bft)
04.09.2016 05:14 11,8 C 11,8 C 91 % 1016,3 hPa 0,0 mm 0,0 km/h (0 Bft) W-NW 287 0 min 0,000 mm 0,0 UV-I 0 W/m 10,4 C 0,0 km/h (0 Bft)
04.09.2016 05:15 11,8 C 11,8 C 91 % 1016,3 hPa 0,0 mm 1,2 km/h (1 Bft) W-NW 287 0 min 0,000 mm 0,0 UV-I 0 W/m 10,4 C 3,2 km/h (1 Bft)
04.09.2016 05:16 11,8 C 11,8 C 90 % 1016,3 hPa 0,0 mm 0,4 km/h (0 Bft) W-NW 287 0 min 0,000 mm 0,0 UV-I 0 W/m 10,2 C 3,2 km/h (1 Bft)
04.09.2016 05:17 11,8 C 11,8 C 90 % 1016,3 hPa 0,0 mm 0,4 km/h (0 Bft) W-NW 287 0 min 0,000 mm 0,0 UV-I 0 W/m 10,2 C 1,6 km/h (1 Bft)
04.09.2016 05:18 11,7 C 11,8 C 91 % 1016,3 hPa 0,0 mm 0,0 km/h (0 Bft) W-NW 287 0 min 0,000 mm 0,0 UV-I 0 W/m 10,3 C 0,0 km/h (0 Bft)
04.09.2016 05:19 11,7 C 11,7 C 91 % 1016,3 hPa 0,0 mm 0,1 km/h (0 Bft) W-NW 287 0 min 0,000 mm 0,0 UV-I 0 W/m 10,3 C 1,6 km/h (1 Bft)
04.09.2016 05:20 11,7 C 11,7 C 91 % 1016,3 hPa 0,0 mm 0,0 km/h (0 Bft) W-NW 287 0 min 0,000 mm 0,0 UV-I 0 W/m 10,3 C 0,0 km/h (0 Bft)
04.09.2016 05:21 11,7 C 11,7 C 91 % 1016,3 hPa 0,0 mm 0,6 km/h (0 Bft) W-NW 287 0 min 0,000 mm 0,0 UV-I 0 W/m 10,3 C 1,6 km/h (1 Bft)
04.09.2016 05:22 11,8 C 11,8 C 91 % 1016,3 hPa 0,0 mm 0,2 km/h (0 Bft) W-NW 287 0 min 0,000 mm 0,0 UV-I 0 W/m 10,4 C 1,6 km/h (1 Bft)
04.09.2016 05:23 11,8 C 11,8 C 91 % 1016,3 hPa 0,0 mm 1,3 km/h (1 Bft) W-NW 290 0 min 0,000 mm 0,0 UV-I 0 W/m 10,4 C 3,2 km/h (1 Bft)
04.09.2016 05:24 11,8 C 11,8 C 91 % 1016,3 hPa 0,0 mm 0,5 km/h (0 Bft) W-NW 290 0 min 0,000 mm 0,0 UV-I 0 W/m 10,4 C 1,6 km/h (1 Bft)
04.09.2016 05:25 11,9 C 11,9 C 91 % 1016,3 hPa 0,0 mm 0,1 km/h (0 Bft) W-NW 290 0 min 0,000 mm 0,0 UV-I 0 W/m 10,5 C 1,6 km/h (1 Bft)
04.09.2016 05:26 11,9 C 11,9 C 90 % 1016,3 hPa 0,0 mm 0,5 km/h (0 Bft) W-NW 290 0 min 0,000 mm 0,0 UV-I 0 W/m 10,3 C 1,6 km/h (1 Bft)
04.09.2016 05:27 11,9 C 11,9 C 90 % 1016,3 hPa 0,0 mm 0,1 km/h (0 Bft) W-NW 290 0 min 0,000 mm 0,0 UV-I 0 W/m 10,3 C 1,6 km/h (1 Bft)
04.09.2016 05:28 11,9 C 11,9 C 90 % 1016,3 hPa 0,0 mm 0,3 km/h (0 Bft) W-NW 290 0 min 0,000 mm 0,0 UV-I 0 W/m 10,3 C 1,6 km/h (1 Bft)
04.09.2016 05:29 11,9 C 11,9 C 90 % 1016,3 hPa 0,0 mm 0,4 km/h (0 Bft) W-NW 290 0 min 0,000 mm 0,0 UV-I 0 W/m 10,3 C 1,6 km/h (1 Bft)
04.09.2016 05:30 11,9 C 11,9 C 90 % 1016,3 hPa 0,0 mm 0,5 km/h (0 Bft) W-NW 290 0 min 0,000 mm 0,0 UV-I 0 W/m 10,3 C 1,6 km/h (1 Bft)
04.09.2016 05:31 11,9 C 11,9 C 90 % 1016,3 hPa 0,0 mm 0,2 km/h (0 Bft) W-NW 290 0 min 0,000 mm 0,0 UV-I 0 W/m 10,3 C 1,6 km/h (1 Bft)
04.09.2016 05:32 11,9 C 11,9 C 90 % 1016,3 hPa 0,0 mm 0,1 km/h (0 Bft) W-NW 290 0 min 0,000 mm 0,0 UV-I 0 W/m 10,3 C 1,6 km/h (1 Bft)
04.09.2016 05:33 11,9 C 11,9 C 90 % 1016,4 hPa 0,0 mm 1,4 km/h (1 Bft) W-NW 291 0 min 0,000 mm 0,0 UV-I 0 W/m 10,3 C 3,2 km/h (1 Bft)
04.09.2016 05:34 11,9 C 11,9 C 89 % 1016,4 hPa 0,0 mm 0,3 km/h (0 Bft) W-NW 291 0 min 0,000 mm 0,0 UV-I 0 W/m 10,1 C 1,6 km/h (1 Bft)
04.09.2016 05:35 11,9 C 11,9 C 89 % 1016,3 hPa 0,0 mm 0,5 km/h (0 Bft) W-NW 291 0 min 0,000 mm 0,0 UV-I 0 W/m 10,1 C 1,6 km/h (1 Bft)
04.09.2016 05:36 11,9 C 11,9 C 89 % 1016,4 hPa 0,0 mm 0,5 km/h (0 Bft) W-NW 291 0 min 0,000 mm 0,0 UV-I 0 W/m 10,1 C 1,6 km/h (1 Bft)
04.09.2016 05:37 11,9 C 11,9 C 89 % 1016,4 hPa 0,0 mm 0,4 km/h (0 Bft) W-NW 291 0 min 0,000 mm 0,0 UV-I 0 W/m 10,1 C 1,6 km/h (1 Bft)
04.09.2016 05:38 11,8 C 11,9 C 89 % 1016,4 hPa 0,0 mm 0,4 km/h (0 Bft) W-NW 291 0 min 0,000 mm 0,0 UV-I 0 W/m 10,0 C 1,6 km/h (1 Bft)
04.09.2016 05:39 11,8 C 11,8 C 89 % 1016,4 hPa 0,0 mm 0,9 km/h (0 Bft) W-NW 291 0 min 0,000 mm 0,0 UV-I 0 W/m 10,0 C 1,6 km/h (1 Bft)
04.09.2016 05:40 11,8 C 11,8 C 89 % 1016,4 hPa 0,0 mm 0,1 km/h (0 Bft) W-NW 291 0 min 0,000 mm 0,0 UV-I 0 W/m 10,0 C 1,6 km/h (1 Bft)
04.09.2016 05:41 11,8 C 11,8 C 89 % 1016,4 hPa 0,0 mm 0,7 km/h (0 Bft) W-NW 291 0 min 0,000 mm 0,0 UV-I 0 W/m 10,0 C 3,2 km/h (1 Bft)
04.09.2016 05:42 11,8 C 11,8 C 90 % 1016,4 hPa 0,0 mm 0,5 km/h (0 Bft) W-NW 291 0 min 0,000 mm 0,0 UV-I 0 W/m 10,2 C 1,6 km/h (1 Bft)
04.09.2016 05:43 11,8 C 11,8 C 89 % 1016,4 hPa 0,0 mm 0,7 km/h (0 Bft) W-NW 291 0 min 0,000 mm 0,0 UV-I 0 W/m 10,0 C 1,6 km/h (1 Bft)
04.09.2016 05:44 11,8 C 11,8 C 89 % 1016,5 hPa 0,0 mm 0,2 km/h (0 Bft) W-NW 291 0 min 0,000 mm 0,0 UV-I 0 W/m 10,0 C 1,6 km/h (1 Bft)
04.09.2016 05:45 11,7 C 11,8 C 89 % 1016,5 hPa 0,0 mm 0,0 km/h (0 Bft) W-NW 291 0 min 0,000 mm 0,0 UV-I 0 W/m 9,9 C 0,0 km/h (0 Bft)
04.09.2016 05:46 11,7 C 11,7 C 89 % 1016,5 hPa 0,0 mm 0,0 km/h (0 Bft) W-NW 291 0 min 0,000 mm 0,0 UV-I 0 W/m 9,9 C 0,0 km/h (0 Bft)
04.09.2016 05:47 11,7 C 11,7 C 89 % 1016,5 hPa 0,0 mm 0,3 km/h (0 Bft) W-NW 291 0 min 0,000 mm 0,0 UV-I 0 W/m 9,9 C 1,6 km/h (1 Bft)
04.09.2016 05:48 11,6 C 11,7 C 90 % 1016,5 hPa 0,0 mm 0,1 km/h (0 Bft) W-NW 291 0 min 0,000 mm 0,0 UV-I 0 W/m 10,0 C 1,6 km/h (1 Bft)
04.09.2016 05:49 11,6 C 11,6 C 90 % 1016,5 hPa 0,0 mm 0,0 km/h (0 Bft) W-NW 291 0 min 0,000 mm 0,0 UV-I 0 W/m 10,0 C 0,0 km/h (0 Bft)
04.09.2016 05:50 11,6 C 11,6 C 90 % 1016,5 hPa 0,0 mm 0,1 km/h (0 Bft) W-NW 291 0 min 0,000 mm 0,0 UV-I 0 W/m 10,0 C 1,6 km/h (1 Bft)
04.09.2016 05:51 11,6 C 11,6 C 90 % 1016,5 hPa 0,0 mm 0,3 km/h (0 Bft) W-NW 291 0 min 0,000 mm 0,0 UV-I 0 W/m 10,0 C 1,6 km/h (1 Bft)
04.09.2016 05:52 11,6 C 11,6 C 90 % 1016,5 hPa 0,0 mm 0,2 km/h (0 Bft) W-NW 291 0 min 0,000 mm 0,0 UV-I 0 W/m 10,0 C 1,6 km/h (1 Bft)
04.09.2016 05:53 11,6 C 11,6 C 90 % 1016,5 hPa 0,0 mm 0,1 km/h (0 Bft) W-NW 291 0 min 0,000 mm 0,0 UV-I 0 W/m 10,0 C 1,6 km/h (1 Bft)
04.09.2016 05:54 11,6 C 11,6 C 90 % 1016,4 hPa 0,0 mm 0,0 km/h (0 Bft) W-NW 291 0 min 0,000 mm 0,0 UV-I 0 W/m 10,0 C 0,0 km/h (0 Bft)
04.09.2016 05:55 11,6 C 11,6 C 90 % 1016,4 hPa 0,0 mm 0,0 km/h (0 Bft) W-NW 291 0 min 0,000 mm 0,0 UV-I 0 W/m 10,0 C 0,0 km/h (0 Bft)
04.09.2016 05:56 11,6 C 11,6 C 90 % 1016,5 hPa 0,0 mm 0,6 km/h (0 Bft) W-NW 291 0 min 0,000 mm 0,0 UV-I 0 W/m 10,0 C 1,6 km/h (1 Bft)
04.09.2016 05:57 11,5 C 11,6 C 90 % 1016,4 hPa 0,0 mm 0,0 km/h (0 Bft) W-NW 291 0 min 0,000 mm 0,0 UV-I 0 W/m 9,9 C 0,0 km/h (0 Bft)
04.09.2016 05:58 11,4 C 11,5 C 90 % 1016,4 hPa 0,0 mm 0,0 km/h (0 Bft) W-NW 291 0 min 0,000 mm 0,0 UV-I 0 W/m 9,8 C 0,0 km/h (0 Bft)
04.09.2016 05:59 11,4 C 11,4 C 90 % 1016,4 hPa 0,0 mm 0,0 km/h (0 Bft) W-NW 291 0 min 0,000 mm 0,0 UV-I 0 W/m 9,8 C 0,0 km/h (0 Bft)
04.09.2016 06:00 11,3 C 11,4 C 91 % 1016,4 hPa 0,0 mm 0,2 km/h (0 Bft) W-NW 291 0 min 0,000 mm 0,0 UV-I 0 W/m 9,9 C 1,6 km/h (1 Bft)
04.09.2016 06:01 11,3 C 11,4 C 91 % 1016,4 hPa 0,0 mm 0,0 km/h (0 Bft) W-NW 291 0 min 0,000 mm 0,0 UV-I 0 W/m 9,9 C 0,0 km/h (0 Bft)
04.09.2016 06:02 11,3 C 11,3 C 90 % 1016,4 hPa 0,0 mm 0,6 km/h (0 Bft) W-NW 291 0 min 0,000 mm 0,0 UV-I 0 W/m 9,7 C 1,6 km/h (1 Bft)
04.09.2016 06:03 11,3 C 11,3 C 91 % 1016,4 hPa 0,0 mm 0,5 km/h (0 Bft) W-NW 291 0 min 0,000 mm 0,0 UV-I 0 W/m 9,9 C 1,6 km/h (1 Bft)
04.09.2016 06:04 11,3 C 11,3 C 91 % 1016,4 hPa 0,0 mm 0,8 km/h (0 Bft) W-NW 291 0 min 0,000 mm 0,0 UV-I 0 W/m 9,9 C 1,6 km/h (1 Bft)
04.09.2016 06:05 11,3 C 11,3 C 91 % 1016,4 hPa 0,0 mm 0,2 km/h (0 Bft) W-NW 291 0 min 0,000 mm 0,0 UV-I 0 W/m 9,9 C 1,6 km/h (1 Bft)
04.09.2016 06:06 11,3 C 11,3 C 91 % 1016,4 hPa 0,0 mm 0,0 km/h (0 Bft) W-NW 291 0 min 0,000 mm 0,0 UV-I 0 W/m 9,9 C 0,0 km/h (0 Bft)
04.09.2016 06:07 11,3 C 11,3 C 91 % 1016,4 hPa 0,0 mm 0,7 km/h (0 Bft) W-NW 294 0 min 0,000 mm 0,0 UV-I 0 W/m 9,9 C 1,6 km/h (1 Bft)
04.09.2016 06:08 11,3 C 11,3 C 91 % 1016,4 hPa 0,0 mm 0,8 km/h (0 Bft) W-NW 294 0 min 0,000 mm 0,0 UV-I 0 W/m 9,9 C 3,2 km/h (1 Bft)
04.09.2016 06:09 11,3 C 11,3 C 91 % 1016,4 hPa 0,0 mm 0,2 km/h (0 Bft) W-NW 294 0 min 0,000 mm 0,0 UV-I 0 W/m 9,9 C 1,6 km/h (1 Bft)
04.09.2016 06:10 11,3 C 11,3 C 91 % 1016,4 hPa 0,0 mm 0,8 km/h (0 Bft) W-NW 294 0 min 0,000 mm 0,0 UV-I 0 W/m 9,9 C 1,6 km/h (1 Bft)
04.09.2016 06:11 11,4 C 11,4 C 91 % 1016,4 hPa 0,0 mm 1,7 km/h (1 Bft) SO 143 0 min 0,000 mm 0,0 UV-I 0 W/m 10,0 C 4,8 km/h (1 Bft)
04.09.2016 06:12 11,4 C 11,4 C 91 % 1016,4 hPa 0,0 mm 1,0 km/h (0 Bft) SO 143 0 min 0,000 mm 0,0 UV-I 0 W/m 10,0 C 3,2 km/h (1 Bft)
04.09.2016 06:13 11,4 C 11,4 C 91 % 1016,4 hPa 0,0 mm 0,0 km/h (0 Bft) SO 143 0 min 0,000 mm 0,0 UV-I 0 W/m 10,0 C 0,0 km/h (0 Bft)
04.09.2016 06:14 11,4 C 11,4 C 91 % 1016,4 hPa 0,0 mm 0,6 km/h (0 Bft) SO 143 0 min 0,000 mm 0,0 UV-I 0 W/m 10,0 C 1,6 km/h (1 Bft)
04.09.2016 06:15 11,4 C 11,4 C 90 % 1016,4 hPa 0,0 mm 1,0 km/h (0 Bft) S-SW 205 0 min 0,000 mm 0,0 UV-I 0 W/m 9,8 C 3,2 km/h (1 Bft)
04.09.2016 06:16 11,4 C 11,4 C 90 % 1016,3 hPa 0,0 mm 1,5 km/h (1 Bft) NO 34 0 min 0,000 mm 0,0 UV-I 0 W/m 9,8 C 3,2 km/h (1 Bft)
04.09.2016 06:17 11,5 C 11,5 C 91 % 1016,4 hPa 0,0 mm 1,1 km/h (1 Bft) N-NO 33 0 min 0,000 mm 0,0 UV-I 0 W/m 10,1 C 1,6 km/h (1 Bft)
04.09.2016 06:18 11,6 C 11,6 C 91 % 1016,3 hPa 0,0 mm 1,5 km/h (1 Bft) N-NO 26 0 min 0,000 mm 0,0 UV-I 0 W/m 10,2 C 3,2 km/h (1 Bft)
04.09.2016 06:19 11,7 C 11,7 C 90 % 1016,4 hPa 0,0 mm 0,7 km/h (0 Bft) N-NO 26 0 min 0,000 mm 0,0 UV-I 0 W/m 10,1 C 1,6 km/h (1 Bft)
04.09.2016 06:20 11,9 C 11,9 C 90 % 1016,4 hPa 0,0 mm 0,8 km/h (0 Bft) O-NO 77 0 min 0,000 mm 0,0 UV-I 0 W/m 10,3 C 1,6 km/h (1 Bft)
04.09.2016 06:21 12,0 C 12,0 C 90 % 1016,4 hPa 0,0 mm 2,4 km/h (1 Bft) S-SW 212 0 min 0,000 mm 0,0 UV-I 0 W/m 10,4 C 6,4 km/h (2 Bft)
04.09.2016 06:22 12,1 C 12,1 C 89 % 1016,3 hPa 0,0 mm 2,3 km/h (1 Bft) W 265 0 min 0,000 mm 0,0 UV-I 0 W/m 10,3 C 3,2 km/h (1 Bft)
04.09.2016 06:23 12,2 C 12,2 C 89 % 1016,4 hPa 0,0 mm 1,5 km/h (1 Bft) W 265 0 min 0,000 mm 0,0 UV-I 0 W/m 10,4 C 3,2 km/h (1 Bft)
04.09.2016 06:24 12,2 C 12,2 C 88 % 1016,3 hPa 0,0 mm 2,3 km/h (1 Bft) W 265 0 min 0,000 mm 0,0 UV-I 0 W/m 10,3 C 3,2 km/h (1 Bft)
04.09.2016 06:25 12,2 C 12,2 C 87 % 1016,3 hPa 0,0 mm 3,4 km/h (1 Bft) W 265 0 min 0,000 mm 0,0 UV-I 0 W/m 10,1 C 4,8 km/h (1 Bft)
04.09.2016 06:26 12,1 C 12,2 C 88 % 1016,4 hPa 0,0 mm 1,7 km/h (1 Bft) W 265 0 min 0,000 mm 0,0 UV-I 0 W/m 10,2 C 3,2 km/h (1 Bft)
04.09.2016 06:27 12,2 C 12,2 C 88 % 1016,4 hPa 0,0 mm 0,9 km/h (0 Bft) W 265 0 min 0,000 mm 0,0 UV-I 0 W/m 10,3 C 3,2 km/h (1 Bft)
04.09.2016 06:28 12,2 C 12,2 C 88 % 1016,4 hPa 0,0 mm 1,9 km/h (1 Bft) W 266 0 min 0,000 mm 0,0 UV-I 0 W/m 10,3 C 3,2 km/h (1 Bft)
04.09.2016 06:29 12,3 C 12,3 C 87 % 1016,4 hPa 0,0 mm 1,3 km/h (1 Bft) W 266 0 min 0,000 mm 0,0 UV-I 0 W/m 10,2 C 3,2 km/h (1 Bft)
04.09.2016 06:30 12,4 C 12,4 C 87 % 1016,3 hPa 0,0 mm 0,5 km/h (0 Bft) W 266 0 min 0,000 mm 0,0 UV-I 0 W/m 10,3 C 1,6 km/h (1 Bft)
04.09.2016 06:31 12,5 C 12,5 C 88 % 1016,3 hPa 0,0 mm 0,0 km/h (0 Bft) W 266 0 min 0,000 mm 0,0 UV-I 0 W/m 10,6 C 0,0 km/h (0 Bft)
04.09.2016 06:32 12,4 C 12,5 C 88 % 1016,3 hPa 0,0 mm 0,1 km/h (0 Bft) W 266 0 min 0,000 mm 0,0 UV-I 0 W/m 10,5 C 1,6 km/h (1 Bft)
04.09.2016 06:33 12,4 C 12,4 C 88 % 1016,4 hPa 0,0 mm 0,1 km/h (0 Bft) W 266 0 min 0,000 mm 0,0 UV-I 0 W/m 10,5 C 1,6 km/h (1 Bft)
04.09.2016 06:34 12,3 C 12,4 C 88 % 1016,2 hPa 0,0 mm 2,3 km/h (1 Bft) W 267 0 min 0,000 mm 0,0 UV-I 0 W/m 10,4 C 3,2 km/h (1 Bft)
04.09.2016 06:35 12,2 C 12,3 C 89 % 1016,3 hPa 0,0 mm 0,4 km/h (0 Bft) W 267 0 min 0,000 mm 0,0 UV-I 0 W/m 10,4 C 1,6 km/h (1 Bft)
04.09.2016 06:36 12,2 C 12,2 C 89 % 1016,3 hPa 0,0 mm 1,7 km/h (1 Bft) W 267 0 min 0,000 mm 0,0 UV-I 0 W/m 10,4 C 3,2 km/h (1 Bft)
04.09.2016 06:37 12,2 C 12,2 C 89 % 1016,4 hPa 0,0 mm 1,0 km/h (0 Bft) W 267 0 min 0,000 mm 0,0 UV-I 0 W/m 10,4 C 1,6 km/h (1 Bft)
04.09.2016 06:38 12,2 C 12,2 C 88 % 1016,4 hPa 0,0 mm 0,7 km/h (0 Bft) W 267 0 min 0,000 mm 0,0 UV-I 0 W/m 10,3 C 1,6 km/h (1 Bft)
04.09.2016 06:39 12,3 C 12,3 C 88 % 1016,4 hPa 0,0 mm 0,1 km/h (0 Bft) W 267 0 min 0,000 mm 0,0 UV-I 0 W/m 10,4 C 1,6 km/h (1 Bft)
04.09.2016 06:40 12,3 C 12,3 C 88 % 1016,4 hPa 0,0 mm 0,0 km/h (0 Bft) W 267 0 min 0,000 mm 0,0 UV-I 0 W/m 10,4 C 0,0 km/h (0 Bft)
04.09.2016 06:41 12,3 C 12,3 C 88 % 1016,5 hPa 0,0 mm 0,0 km/h (0 Bft) W 267 0 min 0,000 mm 0,0 UV-I 0 W/m 10,4 C 0,0 km/h (0 Bft)
04.09.2016 06:42 12,4 C 12,4 C 88 % 1016,4 hPa 0,0 mm 0,3 km/h (0 Bft) W 267 0 min 0,000 mm 0,0 UV-I 0 W/m 10,5 C 1,6 km/h (1 Bft)
04.09.2016 06:43 12,4 C 12,4 C 88 % 1016,4 hPa 0,0 mm 2,0 km/h (1 Bft) W-NW 288 0 min 0,000 mm 0,0 UV-I 0 W/m 10,5 C 4,8 km/h (1 Bft)
04.09.2016 06:44 12,4 C 12,4 C 87 % 1016,5 hPa 0,0 mm 0,3 km/h (0 Bft) W-NW 288 0 min 0,000 mm 0,0 UV-I 5 W/m 10,3 C 1,6 km/h (1 Bft)
04.09.2016 06:45 12,4 C 12,4 C 87 % 1016,4 hPa 0,0 mm 0,0 km/h (0 Bft) W-NW 288 0 min 0,000 mm 0,0 UV-I 5 W/m 10,3 C 0,0 km/h (0 Bft)
04.09.2016 06:46 12,5 C 12,5 C 87 % 1016,5 hPa 0,0 mm 0,0 km/h (0 Bft) W-NW 288 0 min 0,000 mm 0,0 UV-I 5 W/m 10,4 C 0,0 km/h (0 Bft)
04.09.2016 06:47 12,5 C 12,5 C 86 % 1016,5 hPa 0,0 mm 0,1 km/h (0 Bft) W-NW 288 0 min 0,000 mm 0,0 UV-I 5 W/m 10,2 C 1,6 km/h (1 Bft)
04.09.2016 06:48 12,6 C 12,6 C 86 % 1016,5 hPa 0,0 mm 0,3 km/h (0 Bft) W-NW 288 0 min 0,000 mm 0,0 UV-I 5 W/m 10,3 C 1,6 km/h (1 Bft)
04.09.2016 06:49 12,5 C 12,6 C 86 % 1016,5 hPa 0,0 mm 0,9 km/h (0 Bft) W-NW 288 0 min 0,000 mm 0,0 UV-I 5 W/m 10,2 C 1,6 km/h (1 Bft)
04.09.2016 06:50 12,4 C 12,5 C 86 % 1016,6 hPa 0,0 mm 1,6 km/h (1 Bft) W-NW 288 0 min 0,000 mm 0,0 UV-I 7 W/m 10,1 C 3,2 km/h (1 Bft)
04.09.2016 06:51 12,4 C 12,4 C 86 % 1016,6 hPa 0,0 mm 0,8 km/h (0 Bft) W-NW 288 0 min 0,000 mm 0,0 UV-I 7 W/m 10,1 C 1,6 km/h (1 Bft)
04.09.2016 06:52 12,4 C 12,4 C 87 % 1016,6 hPa 0,0 mm 1,4 km/h (1 Bft) W-NW 288 0 min 0,000 mm 0,0 UV-I 7 W/m 10,3 C 3,2 km/h (1 Bft)
04.09.2016 06:53 12,3 C 12,4 C 87 % 1016,6 hPa 0,0 mm 0,6 km/h (0 Bft) W-NW 288 0 min 0,000 mm 0,0 UV-I 9 W/m 10,2 C 1,6 km/h (1 Bft)
04.09.2016 06:54 12,3 C 12,4 C 87 % 1016,6 hPa 0,0 mm 0,9 km/h (0 Bft) W-NW 288 0 min 0,000 mm 0,0 UV-I 9 W/m 10,2 C 1,6 km/h (1 Bft)
04.09.2016 06:55 12,3 C 12,3 C 87 % 1016,6 hPa 0,0 mm 4,6 km/h (1 Bft) W-NW 292 0 min 0,000 mm 0,0 UV-I 11 W/m 10,2 C 6,4 km/h (2 Bft)
04.09.2016 06:56 12,3 C 12,3 C 87 % 1016,6 hPa 0,0 mm 2,3 km/h (1 Bft) W-NW 292 0 min 0,000 mm 0,0 UV-I 12 W/m 10,2 C 4,8 km/h (1 Bft)
04.09.2016 06:57 12,3 C 12,3 C 87 % 1016,6 hPa 0,0 mm 2,2 km/h (1 Bft) W-NW 292 0 min 0,000 mm 0,0 UV-I 12 W/m 10,2 C 4,8 km/h (1 Bft)
04.09.2016 06:58 12,3 C 12,3 C 87 % 1016,6 hPa 0,0 mm 1,1 km/h (1 Bft) W-NW 292 0 min 0,000 mm 0,0 UV-I 12 W/m 10,2 C 3,2 km/h (1 Bft)
04.09.2016 06:59 12,3 C 12,3 C 87 % 1016,6 hPa 0,0 mm 0,1 km/h (0 Bft) W-NW 292 0 min 0,000 mm 0,0 UV-I 14 W/m 10,2 C 1,6 km/h (1 Bft)
04.09.2016 07:00 12,3 C 12,3 C 88 % 1016,6 hPa 0,0 mm 0,0 km/h (0 Bft) W-NW 292 0 min 0,000 mm 0,0 UV-I 14 W/m 10,4 C 0,0 km/h (0 Bft)
04.09.2016 07:01 12,3 C 12,3 C 87 % 1016,6 hPa 0,0 mm 0,3 km/h (0 Bft) W-NW 292 0 min 0,000 mm 0,0 UV-I 16 W/m 10,2 C 1,6 km/h (1 Bft)
04.09.2016 07:02 12,3 C 12,3 C 87 % 1016,6 hPa 0,0 mm 0,1 km/h (0 Bft) W-NW 292 0 min 0,000 mm 0,0 UV-I 16 W/m 10,2 C 1,6 km/h (1 Bft)
04.09.2016 07:03 12,3 C 12,3 C 88 % 1016,5 hPa 0,0 mm 0,3 km/h (0 Bft) W-NW 292 0 min 0,000 mm 0,0 UV-I 16 W/m 10,4 C 1,6 km/h (1 Bft)
04.09.2016 07:04 12,3 C 12,3 C 88 % 1016,6 hPa 0,0 mm 0,2 km/h (0 Bft) W-NW 292 0 min 0,000 mm 0,0 UV-I 16 W/m 10,4 C 1,6 km/h (1 Bft)
04.09.2016 07:05 12,3 C 12,3 C 88 % 1016,5 hPa 0,0 mm 0,3 km/h (0 Bft) W-NW 292 0 min 0,000 mm 0,0 UV-I 16 W/m 10,4 C 1,6 km/h (1 Bft)
04.09.2016 07:06 12,3 C 12,4 C 88 % 1016,5 hPa 0,0 mm 0,2 km/h (0 Bft) W-NW 292 0 min 0,000 mm 0,0 UV-I 18 W/m 10,4 C 1,6 km/h (1 Bft)
04.09.2016 07:07 12,4 C 12,4 C 88 % 1016,5 hPa 0,0 mm 0,5 km/h (0 Bft) W-NW 292 0 min 0,000 mm 0,0 UV-I 19 W/m 10,5 C 1,6 km/h (1 Bft)
04.09.2016 07:08 12,5 C 12,5 C 87 % 1016,6 hPa 0,0 mm 0,1 km/h (0 Bft) W-NW 292 0 min 0,000 mm 0,0 UV-I 19 W/m 10,4 C 1,6 km/h (1 Bft)
04.09.2016 07:09 12,5 C 12,5 C 87 % 1016,5 hPa 0,0 mm 1,5 km/h (1 Bft) W-NW 293 0 min 0,000 mm 0,0 UV-I 19 W/m 10,4 C 3,2 km/h (1 Bft)
04.09.2016 07:10 12,6 C 12,6 C 87 % 1016,5 hPa 0,0 mm 1,4 km/h (1 Bft) W-NW 292 0 min 0,000 mm 0,0 UV-I 19 W/m 10,5 C 3,2 km/h (1 Bft)
04.09.2016 07:11 12,5 C 12,6 C 87 % 1016,5 hPa 0,0 mm 0,0 km/h (0 Bft) W-NW 292 0 min 0,000 mm 0,0 UV-I 21 W/m 10,4 C 0,0 km/h (0 Bft)
04.09.2016 07:12 12,6 C 12,6 C 87 % 1016,5 hPa 0,0 mm 0,2 km/h (0 Bft) W-NW 292 0 min 0,000 mm 0,0 UV-I 21 W/m 10,5 C 1,6 km/h (1 Bft)
04.09.2016 07:13 12,5 C 12,6 C 87 % 1016,5 hPa 0,0 mm 1,5 km/h (1 Bft) N-NW 347 0 min 0,000 mm 0,0 UV-I 21 W/m 10,4 C 3,2 km/h (1 Bft)
04.09.2016 07:14 12,4 C 12,5 C 88 % 1016,5 hPa 0,0 mm 0,6 km/h (0 Bft) N-NW 347 0 min 0,000 mm 0,0 UV-I 23 W/m 10,5 C 1,6 km/h (1 Bft)
04.09.2016 07:15 12,4 C 12,4 C 88 % 1016,5 hPa 0,0 mm 0,1 km/h (0 Bft) N-NW 347 0 min 0,000 mm 0,0 UV-I 23 W/m 10,5 C 1,6 km/h (1 Bft)
04.09.2016 07:16 12,6 C 12,6 C 87 % 1016,5 hPa 0,0 mm 0,2 km/h (0 Bft) N-NW 347 0 min 0,000 mm 0,0 UV-I 23 W/m 10,5 C 1,6 km/h (1 Bft)
04.09.2016 07:17 12,6 C 12,6 C 87 % 1016,6 hPa 0,0 mm 0,7 km/h (0 Bft) N-NW 347 0 min 0,000 mm 0,0 UV-I 23 W/m 10,5 C 1,6 km/h (1 Bft)
04.09.2016 07:18 12,8 C 12,8 C 87 % 1016,6 hPa 0,0 mm 1,0 km/h (0 Bft) N-NW 347 0 min 0,000 mm 0,0 UV-I 25 W/m 10,7 C 1,6 km/h (1 Bft)
04.09.2016 07:19 12,8 C 12,8 C 87 % 1016,5 hPa 0,0 mm 0,9 km/h (0 Bft) N-NW 347 0 min 0,000 mm 0,0 UV-I 25 W/m 10,7 C 1,6 km/h (1 Bft)
04.09.2016 07:20 12,9 C 12,9 C 87 % 1016,5 hPa 0,0 mm 0,9 km/h (0 Bft) N-NW 347 0 min 0,000 mm 0,0 UV-I 25 W/m 10,8 C 3,2 km/h (1 Bft)
04.09.2016 07:21 12,9 C 12,9 C 87 % 1016,6 hPa 0,0 mm 1,6 km/h (1 Bft) N-NW 347 0 min 0,000 mm 0,0 UV-I 25 W/m 10,8 C 3,2 km/h (1 Bft)
04.09.2016 07:22 12,9 C 12,9 C 87 % 1016,5 hPa 0,0 mm 1,2 km/h (1 Bft) N-NW 347 0 min 0,000 mm 0,0 UV-I 25 W/m 10,8 C 3,2 km/h (1 Bft)
04.09.2016 07:23 12,9 C 12,9 C 87 % 1016,5 hPa 0,0 mm 1,5 km/h (1 Bft) N-NW 343 0 min 0,000 mm 0,0 UV-I 25 W/m 10,8 C 3,2 km/h (1 Bft)
04.09.2016 07:24 12,8 C 12,9 C 87 % 1016,5 hPa 0,0 mm 0,4 km/h (0 Bft) N-NW 343 0 min 0,000 mm 0,0 UV-I 26 W/m 10,7 C 1,6 km/h (1 Bft)
04.09.2016 07:25 12,8 C 12,8 C 86 % 1016,5 hPa 0,0 mm 0,1 km/h (0 Bft) N-NW 343 0 min 0,000 mm 0,0 UV-I 26 W/m 10,5 C 1,6 km/h (1 Bft)
04.09.2016 07:26 12,8 C 12,8 C 87 % 1016,5 hPa 0,0 mm 1,2 km/h (1 Bft) N-NW 343 0 min 0,000 mm 0,0 UV-I 26 W/m 10,7 C 1,6 km/h (1 Bft)
04.09.2016 07:27 12,8 C 12,8 C 87 % 1016,5 hPa 0,0 mm 0,3 km/h (0 Bft) N-NW 343 0 min 0,000 mm 0,0 UV-I 26 W/m 10,7 C 1,6 km/h (1 Bft)
04.09.2016 07:28 12,7 C 12,8 C 87 % 1016,5 hPa 0,0 mm 0,0 km/h (0 Bft) N-NW 343 0 min 0,000 mm 0,0 UV-I 28 W/m 10,6 C 0,0 km/h (0 Bft)
04.09.2016 07:29 12,7 C 12,7 C 87 % 1016,5 hPa 0,0 mm 0,0 km/h (0 Bft) N-NW 343 0 min 0,000 mm 0,0 UV-I 28 W/m 10,6 C 0,0 km/h (0 Bft)
04.09.2016 07:30 12,7 C 12,7 C 87 % 1016,5 hPa 0,0 mm 0,0 km/h (0 Bft) N-NW 343 0 min 0,000 mm 0,0 UV-I 30 W/m 10,6 C 0,0 km/h (0 Bft)
04.09.2016 07:31 12,7 C 12,7 C 87 % 1016,5 hPa 0,0 mm 0,1 km/h (0 Bft) N-NW 343 0 min 0,000 mm 0,0 UV-I 30 W/m 10,6 C 1,6 km/h (1 Bft)
04.09.2016 07:32 12,7 C 12,7 C 87 % 1016,4 hPa 0,0 mm 0,7 km/h (0 Bft) N-NW 343 0 min 0,000 mm 0,0 UV-I 30 W/m 10,6 C 1,6 km/h (1 Bft)
04.09.2016 07:33 12,7 C 12,7 C 87 % 1016,4 hPa 0,0 mm 0,0 km/h (0 Bft) N-NW 343 0 min 0,000 mm 0,0 UV-I 30 W/m 10,6 C 0,0 km/h (0 Bft)
04.09.2016 07:34 12,6 C 12,7 C 87 % 1016,5 hPa 0,0 mm 0,1 km/h (0 Bft) N-NW 343 0 min 0,000 mm 0,0 UV-I 30 W/m 10,5 C 1,6 km/h (1 Bft)
04.09.2016 07:35 12,7 C 12,7 C 87 % 1016,4 hPa 0,0 mm 0,1 km/h (0 Bft) N-NW 343 0 min 0,000 mm 0,0 UV-I 30 W/m 10,6 C 1,6 km/h (1 Bft)
04.09.2016 07:36 12,7 C 12,7 C 86 % 1016,5 hPa 0,0 mm 1,4 km/h (1 Bft) N-NW 343 0 min 0,000 mm 0,0 UV-I 32 W/m 10,4 C 1,6 km/h (1 Bft)
04.09.2016 07:37 12,7 C 12,7 C 86 % 1016,5 hPa 0,0 mm 0,1 km/h (0 Bft) N-NW 343 0 min 0,000 mm 0,0 UV-I 32 W/m 10,4 C 1,6 km/h (1 Bft)
04.09.2016 07:38 12,8 C 12,8 C 86 % 1016,4 hPa 0,0 mm 0,7 km/h (0 Bft) N-NW 343 0 min 0,000 mm 0,0 UV-I 32 W/m 10,5 C 3,2 km/h (1 Bft)
04.09.2016 07:39 12,9 C 12,9 C 86 % 1016,5 hPa 0,0 mm 1,6 km/h (1 Bft) N-NW 343 0 min 0,000 mm 0,0 UV-I 32 W/m 10,6 C 3,2 km/h (1 Bft)
04.09.2016 07:40 12,9 C 12,9 C 86 % 1016,4 hPa 0,0 mm 0,5 km/h (0 Bft) N-NW 343 0 min 0,000 mm 0,0 UV-I 32 W/m 10,6 C 1,6 km/h (1 Bft)
04.09.2016 07:41 12,9 C 12,9 C 86 % 1016,4 hPa 0,0 mm 0,5 km/h (0 Bft) N-NW 343 0 min 0,000 mm 0,0 UV-I 32 W/m 10,6 C 1,6 km/h (1 Bft)
04.09.2016 07:42 12,9 C 13,0 C 87 % 1016,4 hPa 0,0 mm 0,2 km/h (0 Bft) N-NW 343 0 min 0,000 mm 0,0 UV-I 32 W/m 10,8 C 1,6 km/h (1 Bft)
04.09.2016 07:43 12,9 C 12,9 C 87 % 1016,5 hPa 0,0 mm 0,2 km/h (0 Bft) N-NW 343 0 min 0,000 mm 0,0 UV-I 32 W/m 10,8 C 1,6 km/h (1 Bft)
04.09.2016 07:44 12,9 C 12,9 C 87 % 1016,4 hPa 0,0 mm 0,3 km/h (0 Bft) N-NW 343 0 min 0,000 mm 0,0 UV-I 32 W/m 10,8 C 1,6 km/h (1 Bft)
04.09.2016 07:45 13,0 C 13,0 C 87 % 1016,4 hPa 0,0 mm 0,4 km/h (0 Bft) N-NW 343 0 min 0,000 mm 0,0 UV-I 32 W/m 10,9 C 1,6 km/h (1 Bft)
04.09.2016 07:46 13,1 C 13,1 C 87 % 1016,4 hPa 0,0 mm 0,8 km/h (0 Bft) N-NW 343 0 min 0,000 mm 0,0 UV-I 33 W/m 11,0 C 3,2 km/h (1 Bft)
04.09.2016 07:47 13,1 C 13,1 C 87 % 1016,4 hPa 0,0 mm 0,1 km/h (0 Bft) N-NW 343 0 min 0,000 mm 0,0 UV-I 33 W/m 11,0 C 1,6 km/h (1 Bft)
04.09.2016 07:48 13,2 C 13,2 C 87 % 1016,4 hPa 0,0 mm 0,8 km/h (0 Bft) N-NW 343 0 min 0,000 mm 0,0 UV-I 32 W/m 11,1 C 1,6 km/h (1 Bft)
04.09.2016 07:49 13,2 C 13,2 C 87 % 1016,4 hPa 0,0 mm 0,5 km/h (0 Bft) N-NW 343 0 min 0,000 mm 0,0 UV-I 32 W/m 11,1 C 1,6 km/h (1 Bft)
04.09.2016 07:50 13,2 C 13,2 C 87 % 1016,4 hPa 0,0 mm 1,3 km/h (1 Bft) N-NW 343 0 min 0,000 mm 0,0 UV-I 32 W/m 11,1 C 3,2 km/h (1 Bft)
04.09.2016 07:51 13,3 C 13,3 C 86 % 1016,4 hPa 0,0 mm 0,5 km/h (0 Bft) N-NW 343 0 min 0,000 mm 0,0 UV-I 33 W/m 11,0 C 1,6 km/h (1 Bft)
04.09.2016 07:52 13,4 C 13,4 C 87 % 1016,4 hPa 0,0 mm 0,0 km/h (0 Bft) N-NW 343 0 min 0,000 mm 0,0 UV-I 35 W/m 11,3 C 0,0 km/h (0 Bft)
04.09.2016 07:53 13,4 C 13,4 C 87 % 1016,4 hPa 0,0 mm 0,0 km/h (0 Bft) N-NW 343 0 min 0,000 mm 0,0 UV-I 35 W/m 11,3 C 0,0 km/h (0 Bft)
04.09.2016 07:54 13,4 C 13,4 C 87 % 1016,4 hPa 0,0 mm 0,0 km/h (0 Bft) N-NW 343 0 min 0,000 mm 0,0 UV-I 39 W/m 11,3 C 0,0 km/h (0 Bft)
04.09.2016 07:55 13,5 C 13,5 C 86 % 1016,4 hPa 0,0 mm 0,3 km/h (0 Bft) N-NW 343 0 min 0,000 mm 0,0 UV-I 40 W/m 11,2 C 1,6 km/h (1 Bft)
04.09.2016 07:56 13,6 C 13,6 C 86 % 1016,5 hPa 0,0 mm 0,5 km/h (0 Bft) N-NW 343 0 min 0,000 mm 0,0 UV-I 42 W/m 11,3 C 1,6 km/h (1 Bft)
04.09.2016 07:57 13,6 C 13,6 C 86 % 1016,4 hPa 0,0 mm 0,1 km/h (0 Bft) N-NW 343 0 min 0,000 mm 0,0 UV-I 44 W/m 11,3 C 1,6 km/h (1 Bft)
04.09.2016 07:58 13,7 C 13,7 C 85 % 1016,4 hPa 0,0 mm 0,1 km/h (0 Bft) N-NW 343 0 min 0,000 mm 0,0 UV-I 47 W/m 11,2 C 1,6 km/h (1 Bft)
04.09.2016 07:59 13,8 C 13,8 C 85 % 1016,4 hPa 0,0 mm 1,1 km/h (1 Bft) N-NW 343 0 min 0,000 mm 0,0 UV-I 51 W/m 11,3 C 1,6 km/h (1 Bft)
04.09.2016 08:00 13,8 C 13,8 C 85 % 1016,5 hPa 0,0 mm 0,1 km/h (0 Bft) N-NW 343 0 min 0,000 mm 0,0 UV-I 54 W/m 11,3 C 1,6 km/h (1 Bft)
04.09.2016 08:01 13,9 C 13,9 C 85 % 1016,4 hPa 0,0 mm 0,2 km/h (0 Bft) N-NW 343 0 min 0,025 mm 0,0 UV-I 54 W/m 11,4 C 1,6 km/h (1 Bft)
04.09.2016 08:02 14,0 C 14,0 C 85 % 1016,4 hPa 0,0 mm 0,6 km/h (0 Bft) N-NW 343 0 min 0,000 mm 0,6 UV-I 58 W/m 11,5 C 1,6 km/h (1 Bft)
04.09.2016 08:03 14,1 C 14,1 C 84 % 1016,4 hPa 0,0 mm 0,1 km/h (0 Bft) N-NW 343 0 min 0,000 mm 0,6 UV-I 69 W/m 11,4 C 1,6 km/h (1 Bft)
04.09.2016 08:04 14,2 C 14,2 C 85 % 1016,4 hPa 0,0 mm 0,0 km/h (0 Bft) N-NW 343 0 min 0,000 mm 0,6 UV-I 97 W/m 11,7 C 0,0 km/h (0 Bft)
04.09.2016 08:05 14,2 C 14,2 C 84 % 1016,4 hPa 0,0 mm 0,0 km/h (0 Bft) N-NW 343 1 min 0,000 mm 0,6 UV-I 134 W/m 11,5 C 0,0 km/h (0 Bft)
04.09.2016 08:06 14,2 C 14,2 C 86 % 1016,4 hPa 0,0 mm 0,2 km/h (0 Bft) N-NW 343 1 min 0,000 mm 0,6 UV-I 162 W/m 11,9 C 1,6 km/h (1 Bft)
04.09.2016 08:07 14,2 C 14,2 C 85 % 1016,4 hPa 0,0 mm 0,1 km/h (0 Bft) N-NW 343 1 min 0,000 mm 0,7 UV-I 185 W/m 11,7 C 1,6 km/h (1 Bft)
04.09.2016 08:08 14,3 C 14,3 C 84 % 1016,4 hPa 0,0 mm 1,5 km/h (1 Bft) N-NW 343 1 min 0,000 mm 0,7 UV-I 185 W/m 11,6 C 3,2 km/h (1 Bft)
04.09.2016 08:09 14,4 C 14,4 C 85 % 1016,4 hPa 0,0 mm 1,1 km/h (1 Bft) N-NW 343 1 min 0,000 mm 0,7 UV-I 221 W/m 11,9 C 1,6 km/h (1 Bft)
04.09.2016 08:10 14,4 C 14,4 C 85 % 1016,4 hPa 0,0 mm 0,3 km/h (0 Bft) N-NW 343 1 min 0,000 mm 0,7 UV-I 225 W/m 11,9 C 1,6 km/h (1 Bft)
04.09.2016 08:11 14,6 C 14,6 C 87 % 1016,4 hPa 0,0 mm 0,5 km/h (0 Bft) N-NW 343 1 min 0,000 mm 0,7 UV-I 232 W/m 12,5 C 1,6 km/h (1 Bft)
04.09.2016 08:12 14,8 C 14,8 C 86 % 1016,4 hPa 0,0 mm 1,5 km/h (1 Bft) N-NW 343 1 min 0,000 mm 0,7 UV-I 232 W/m 12,5 C 3,2 km/h (1 Bft)
04.09.2016 08:13 14,9 C 14,9 C 85 % 1016,4 hPa 0,0 mm 0,5 km/h (0 Bft) N-NW 343 1 min 0,000 mm 0,8 UV-I 232 W/m 12,4 C 1,6 km/h (1 Bft)
04.09.2016 08:14 15,0 C 15,0 C 88 % 1016,4 hPa 0,0 mm 0,1 km/h (0 Bft) N-NW 343 1 min 0,000 mm 0,8 UV-I 234 W/m 13,0 C 1,6 km/h (1 Bft)
04.09.2016 08:15 15,2 C 15,2 C 88 % 1016,4 hPa 0,0 mm 0,6 km/h (0 Bft) N-NW 343 1 min 0,000 mm 0,8 UV-I 236 W/m 13,2 C 1,6 km/h (1 Bft)
04.09.2016 08:16 15,2 C 15,2 C 87 % 1016,4 hPa 0,0 mm 0,5 km/h (0 Bft) N-NW 343 1 min 0,000 mm 0,8 UV-I 206 W/m 13,0 C 1,6 km/h (1 Bft)
04.09.2016 08:17 15,3 C 15,3 C 86 % 1016,3 hPa 0,0 mm 0,4 km/h (0 Bft) N-NW 343 1 min 0,000 mm 0,8 UV-I 227 W/m 13,0 C 1,6 km/h (1 Bft)
04.09.2016 08:18 15,3 C 15,3 C 87 % 1016,4 hPa 0,0 mm 0,5 km/h (0 Bft) N-NW 343 1 min 0,000 mm 0,8 UV-I 207 W/m 13,1 C 1,6 km/h (1 Bft)
04.09.2016 08:19 15,4 C 15,4 C 84 % 1016,4 hPa 0,0 mm 0,1 km/h (0 Bft) N-NW 343 1 min 0,000 mm 0,8 UV-I 185 W/m 12,7 C 1,6 km/h (1 Bft)
04.09.2016 08:20 15,4 C 15,4 C 83 % 1016,3 hPa 0,0 mm 0,1 km/h (0 Bft) N-NW 343 0 min 0,000 mm 0,8 UV-I 91 W/m 12,5 C 1,6 km/h (1 Bft)
04.09.2016 08:21 15,4 C 15,4 C 84 % 1016,3 hPa 0,0 mm 0,0 km/h (0 Bft) N-NW 343 0 min 0,000 mm 0,8 UV-I 91 W/m 12,7 C 0,0 km/h (0 Bft)
04.09.2016 08:22 15,4 C 15,4 C 84 % 1016,3 hPa 0,0 mm 0,0 km/h (0 Bft) N-NW 343 0 min 0,000 mm 0,8 UV-I 146 W/m 12,7 C 0,0 km/h (0 Bft)
04.09.2016 08:23 15,4 C 15,4 C 85 % 1016,3 hPa 0,0 mm 0,1 km/h (0 Bft) N-NW 343 1 min 0,000 mm 0,9 UV-I 229 W/m 12,9 C 1,6 km/h (1 Bft)
04.09.2016 08:24 15,4 C 15,4 C 82 % 1016,3 hPa 0,0 mm 0,3 km/h (0 Bft) N-NW 343 1 min 0,000 mm 0,9 UV-I 230 W/m 12,3 C 1,6 km/h (1 Bft)
04.09.2016 08:25 15,4 C 15,4 C 86 % 1016,2 hPa 0,0 mm 0,1 km/h (0 Bft) N-NW 343 1 min 0,000 mm 0,9 UV-I 236 W/m 13,1 C 1,6 km/h (1 Bft)
04.09.2016 08:26 15,6 C 15,6 C 85 % 1016,2 hPa 0,0 mm 0,0 km/h (0 Bft) N-NW 343 1 min 0,000 mm 0,9 UV-I 236 W/m 13,1 C 0,0 km/h (0 Bft)
04.09.2016 08:27 15,7 C 15,7 C 82 % 1016,2 hPa 0,0 mm 0,2 km/h (0 Bft) N-NW 343 1 min 0,000 mm 0,9 UV-I 239 W/m 12,6 C 1,6 km/h (1 Bft)
04.09.2016 08:28 15,8 C 15,8 C 84 % 1016,2 hPa 0,0 mm 0,2 km/h (0 Bft) N-NW 343 1 min 0,000 mm 0,9 UV-I 239 W/m 13,1 C 1,6 km/h (1 Bft)
04.09.2016 08:29 15,8 C 15,8 C 85 % 1016,2 hPa 0,0 mm 0,6 km/h (0 Bft) N-NW 343 1 min 0,000 mm 1,0 UV-I 243 W/m 13,3 C 1,6 km/h (1 Bft)
04.09.2016 08:30 15,8 C 15,8 C 82 % 1016,2 hPa 0,0 mm 0,6 km/h (0 Bft) N-NW 343 1 min 0,000 mm 1,0 UV-I 244 W/m 12,7 C 1,6 km/h (1 Bft)
04.09.2016 08:31 15,8 C 15,8 C 82 % 1016,2 hPa 0,0 mm 0,3 km/h (0 Bft) N-NW 343 1 min 0,000 mm 1,0 UV-I 246 W/m 12,7 C 1,6 km/h (1 Bft)
04.09.2016 08:32 15,8 C 15,8 C 84 % 1016,2 hPa 0,0 mm 0,1 km/h (0 Bft) N-NW 343 1 min 0,000 mm 1,0 UV-I 257 W/m 13,1 C 1,6 km/h (1 Bft)
04.09.2016 08:33 15,8 C 15,8 C 84 % 1016,2 hPa 0,0 mm 0,0 km/h (0 Bft) N-NW 343 1 min 0,000 mm 1,1 UV-I 257 W/m 13,1 C 0,0 km/h (0 Bft)
04.09.2016 08:34 15,8 C 15,8 C 84 % 1016,2 hPa 0,0 mm 0,0 km/h (0 Bft) N-NW 343 1 min 0,000 mm 1,1 UV-I 257 W/m 13,1 C 0,0 km/h (0 Bft)
04.09.2016 08:35 15,8 C 15,8 C 87 % 1016,1 hPa 0,0 mm 0,0 km/h (0 Bft) N-NW 343 1 min 0,000 mm 1,1 UV-I 246 W/m 13,6 C 0,0 km/h (0 Bft)
04.09.2016 08:36 15,9 C 15,9 C 87 % 1016,2 hPa 0,0 mm 0,1 km/h (0 Bft) N-NW 343 1 min 0,000 mm 1,1 UV-I 239 W/m 13,7 C 1,6 km/h (1 Bft)
04.09.2016 08:37 16,0 C 16,0 C 85 % 1016,1 hPa 0,0 mm 0,0 km/h (0 Bft) N-NW 343 1 min 0,000 mm 1,1 UV-I 246 W/m 13,5 C 0,0 km/h (0 Bft)
04.09.2016 08:38 16,1 C 16,1 C 85 % 1016,1 hPa 0,0 mm 0,0 km/h (0 Bft) N-NW 343 1 min 0,000 mm 1,2 UV-I 241 W/m 13,6 C 0,0 km/h (0 Bft)
04.09.2016 08:39 16,1 C 16,1 C 85 % 1016,1 hPa 0,0 mm 0,0 km/h (0 Bft) N-NW 343 1 min 0,000 mm 1,2 UV-I 253 W/m 13,6 C 0,0 km/h (0 Bft)
04.09.2016 08:40 16,1 C 16,1 C 83 % 1016,1 hPa 0,0 mm 1,2 km/h (1 Bft) N-NW 338 1 min 0,000 mm 1,2 UV-I 267 W/m 13,2 C 3,2 km/h (1 Bft)
04.09.2016 08:41 16,2 C 16,2 C 80 % 1016,2 hPa 0,0 mm 0,0 km/h (0 Bft) N-NW 338 1 min 0,000 mm 1,2 UV-I 269 W/m 12,7 C 0,0 km/h (0 Bft)
04.09.2016 08:42 16,3 C 16,3 C 79 % 1016,1 hPa 0,0 mm 0,2 km/h (0 Bft) N-NW 338 1 min 0,000 mm 1,3 UV-I 274 W/m 12,6 C 1,6 km/h (1 Bft)
04.09.2016 08:43 16,4 C 16,4 C 79 % 1016,0 hPa 0,0 mm 0,4 km/h (0 Bft) N-NW 338 1 min 0,000 mm 1,3 UV-I 281 W/m 12,7 C 1,6 km/h (1 Bft)
04.09.2016 08:44 16,5 C 16,5 C 78 % 1016,1 hPa 0,0 mm 0,2 km/h (0 Bft) N-NW 338 1 min 0,000 mm 1,3 UV-I 290 W/m 12,6 C 1,6 km/h (1 Bft)
04.09.2016 08:45 16,6 C 16,6 C 77 % 1016,1 hPa 0,0 mm 0,1 km/h (0 Bft) N-NW 338 1 min 0,000 mm 1,3 UV-I 292 W/m 12,5 C 1,6 km/h (1 Bft)
04.09.2016 08:46 16,6 C 16,6 C 76 % 1016,0 hPa 0,0 mm 0,0 km/h (0 Bft) N-NW 338 1 min 0,000 mm 1,3 UV-I 260 W/m 12,3 C 0,0 km/h (0 Bft)
04.09.2016 08:47 16,7 C 16,7 C 77 % 1016,1 hPa 0,0 mm 0,6 km/h (0 Bft) N-NW 338 1 min 0,000 mm 1,4 UV-I 302 W/m 12,6 C 1,6 km/h (1 Bft)
04.09.2016 08:48 16,7 C 16,7 C 78 % 1016,1 hPa 0,0 mm 0,0 km/h (0 Bft) N-NW 338 1 min 0,000 mm 1,4 UV-I 311 W/m 12,8 C 0,0 km/h (0 Bft)
04.09.2016 08:49 16,8 C 16,8 C 78 % 1016,0 hPa 0,0 mm 0,4 km/h (0 Bft) N-NW 339 1 min 0,000 mm 1,4 UV-I 302 W/m 12,9 C 1,6 km/h (1 Bft)
04.09.2016 08:50 16,9 C 16,9 C 80 % 1016,0 hPa 0,0 mm 0,1 km/h (0 Bft) N-NW 338 1 min 0,000 mm 1,5 UV-I 306 W/m 13,4 C 1,6 km/h (1 Bft)
04.09.2016 08:51 16,9 C 16,9 C 79 % 1016,0 hPa 0,0 mm 0,0 km/h (0 Bft) N-NW 339 1 min 0,000 mm 1,5 UV-I 320 W/m 13,2 C 0,0 km/h (0 Bft)
04.09.2016 08:52 17,1 C 17,1 C 79 % 1016,0 hPa 0,0 mm 0,1 km/h (0 Bft) N-NW 339 1 min 0,000 mm 1,5 UV-I 320 W/m 13,4 C 1,6 km/h (1 Bft)
04.09.2016 08:53 17,2 C 17,2 C 83 % 1015,9 hPa 0,0 mm 0,1 km/h (0 Bft) N-NW 338 1 min 0,000 mm 1,5 UV-I 322 W/m 14,3 C 1,6 km/h (1 Bft)
04.09.2016 08:54 17,3 C 17,3 C 80 % 1015,9 hPa 0,0 mm 0,0 km/h (0 Bft) N-NW 339 1 min 0,000 mm 1,5 UV-I 318 W/m 13,8 C 0,0 km/h (0 Bft)
04.09.2016 08:55 17,4 C 17,5 C 84 % 1015,9 hPa 0,0 mm 0,3 km/h (0 Bft) N-NW 339 1 min 0,000 mm 1,6 UV-I 332 W/m 14,7 C 1,6 km/h (1 Bft)
04.09.2016 08:56 17,4 C 17,5 C 79 % 1015,9 hPa 0,0 mm 1,0 km/h (0 Bft) N-NW 339 1 min 0,000 mm 1,6 UV-I 320 W/m 13,7 C 1,6 km/h (1 Bft)
04.09.2016 08:57 17,4 C 17,5 C 77 % 1015,9 hPa 0,0 mm 0,1 km/h (0 Bft) N-NW 338 1 min 0,000 mm 1,6 UV-I 311 W/m 13,3 C 1,6 km/h (1 Bft)
04.09.2016 08:58 17,4 C 17,4 C 79 % 1015,9 hPa 0,0 mm 0,7 km/h (0 Bft) N-NW 331 1 min 0,000 mm 1,6 UV-I 327 W/m 13,7 C 3,2 km/h (1 Bft)
04.09.2016 08:59 17,4 C 17,4 C 75 % 1015,8 hPa 0,0 mm 0,9 km/h (0 Bft) N-NW 331 1 min 0,000 mm 1,7 UV-I 341 W/m 12,9 C 3,2 km/h (1 Bft)
04.09.2016 09:00 17,4 C 17,4 C 79 % 1015,8 hPa 0,0 mm 1,1 km/h (1 Bft) N-NW 331 1 min 0,000 mm 1,7 UV-I 334 W/m 13,7 C 3,2 km/h (1 Bft)
04.09.2016 09:01 17,4 C 17,4 C 78 % 1015,8 hPa 0,0 mm 1,1 km/h (1 Bft) N-NW 331 1 min 0,127 mm 1,7 UV-I 355 W/m 13,5 C 1,6 km/h (1 Bft)
04.09.2016 09:02 17,3 C 17,4 C 75 % 1015,8 hPa 0,0 mm 0,4 km/h (0 Bft) N-NW 331 1 min 0,000 mm 1,7 UV-I 362 W/m 12,8 C 1,6 km/h (1 Bft)
04.09.2016 09:03 17,4 C 17,4 C 79 % 1015,8 hPa 0,0 mm 0,9 km/h (0 Bft) N-NW 331 1 min 0,000 mm 1,8 UV-I 360 W/m 13,7 C 1,6 km/h (1 Bft)
04.09.2016 09:04 17,6 C 17,6 C 77 % 1015,8 hPa 0,0 mm 0,3 km/h (0 Bft) N-NW 331 1 min 0,000 mm 1,8 UV-I 346 W/m 13,5 C 1,6 km/h (1 Bft)
04.09.2016 09:05 17,6 C 17,6 C 77 % 1015,8 hPa 0,0 mm 0,8 km/h (0 Bft) NW 326 1 min 0,000 mm 1,7 UV-I 336 W/m 13,5 C 3,2 km/h (1 Bft)
04.09.2016 09:06 17,6 C 17,6 C 76 % 1015,7 hPa 0,0 mm 1,1 km/h (1 Bft) NW 326 1 min 0,000 mm 1,7 UV-I 288 W/m 13,3 C 1,6 km/h (1 Bft)
04.09.2016 09:07 17,7 C 17,7 C 78 % 1015,8 hPa 0,0 mm 0,9 km/h (0 Bft) NW 326 1 min 0,000 mm 1,7 UV-I 320 W/m 13,8 C 1,6 km/h (1 Bft)
04.09.2016 09:08 17,7 C 17,7 C 79 % 1015,8 hPa 0,0 mm 1,1 km/h (1 Bft) N-NO 27 1 min 0,000 mm 1,7 UV-I 318 W/m 14,0 C 1,6 km/h (1 Bft)
04.09.2016 09:09 17,7 C 17,7 C 77 % 1015,8 hPa 0,0 mm 1,9 km/h (1 Bft) N-NO 28 1 min 0,000 mm 1,8 UV-I 339 W/m 13,6 C 3,2 km/h (1 Bft)
04.09.2016 09:10 17,7 C 17,7 C 75 % 1015,7 hPa 0,0 mm 1,5 km/h (1 Bft) NO 46 1 min 0,000 mm 1,8 UV-I 339 W/m 13,2 C 3,2 km/h (1 Bft)
04.09.2016 09:11 17,7 C 17,8 C 79 % 1015,7 hPa 0,0 mm 0,1 km/h (0 Bft) NO 45 1 min 0,000 mm 1,8 UV-I 325 W/m 14,0 C 1,6 km/h (1 Bft)
04.09.2016 09:12 17,8 C 17,8 C 75 % 1015,7 hPa 0,0 mm 1,3 km/h (1 Bft) NO 46 1 min 0,000 mm 1,8 UV-I 325 W/m 13,3 C 3,2 km/h (1 Bft)
04.09.2016 09:13 17,9 C 17,9 C 75 % 1015,8 hPa 0,0 mm 1,0 km/h (0 Bft) NO 46 1 min 0,000 mm 1,8 UV-I 318 W/m 13,4 C 1,6 km/h (1 Bft)
04.09.2016 09:14 17,9 C 18,0 C 78 % 1015,7 hPa 0,0 mm 0,0 km/h (0 Bft) NO 46 1 min 0,000 mm 1,8 UV-I 323 W/m 14,0 C 0,0 km/h (0 Bft)
04.09.2016 09:15 17,9 C 17,9 C 74 % 1015,7 hPa 0,0 mm 0,0 km/h (0 Bft) NO 46 1 min 0,000 mm 1,8 UV-I 295 W/m 13,2 C 0,0 km/h (0 Bft)
04.09.2016 09:16 17,9 C 17,9 C 78 % 1015,7 hPa 0,0 mm 0,0 km/h (0 Bft) NO 46 1 min 0,000 mm 1,8 UV-I 267 W/m 14,0 C 0,0 km/h (0 Bft)
04.09.2016 09:17 17,9 C 17,9 C 80 % 1015,8 hPa 0,0 mm 0,0 km/h (0 Bft) NO 46 1 min 0,000 mm 2,0 UV-I 355 W/m 14,4 C 0,0 km/h (0 Bft)
04.09.2016 09:18 17,9 C 17,9 C 77 % 1015,6 hPa 0,0 mm 0,0 km/h (0 Bft) NO 46 1 min 0,000 mm 2,0 UV-I 352 W/m 13,8 C 0,0 km/h (0 Bft)
04.09.2016 09:19 18,0 C 18,0 C 75 % 1015,7 hPa 0,0 mm 0,0 km/h (0 Bft) NO 46 1 min 0,000 mm 2,1 UV-I 380 W/m 13,5 C 0,0 km/h (0 Bft)
04.09.2016 09:20 18,1 C 18,1 C 75 % 1015,7 hPa 0,0 mm 1,5 km/h (1 Bft) NO 46 1 min 0,000 mm 2,1 UV-I 387 W/m 13,6 C 3,2 km/h (1 Bft)
04.09.2016 09:21 18,1 C 18,1 C 75 % 1015,6 hPa 0,0 mm 0,5 km/h (0 Bft) NO 46 1 min 0,000 mm 2,1 UV-I 385 W/m 13,6 C 1,6 km/h (1 Bft)
04.09.2016 09:22 18,2 C 18,2 C 76 % 1015,6 hPa 0,0 mm 0,8 km/h (0 Bft) NO 46 1 min 0,000 mm 2,1 UV-I 381 W/m 13,9 C 1,6 km/h (1 Bft)
04.09.2016 09:23 18,3 C 18,3 C 79 % 1015,6 hPa 0,0 mm 0,0 km/h (0 Bft) NO 46 1 min 0,000 mm 2,2 UV-I 403 W/m 14,6 C 0,0 km/h (0 Bft)
04.09.2016 09:24 18,3 C 18,3 C 76 % 1015,6 hPa 0,0 mm 0,0 km/h (0 Bft) NO 46 1 min 0,000 mm 2,3 UV-I 418 W/m 14,0 C 0,0 km/h (0 Bft)
04.09.2016 09:25 18,4 C 18,4 C 77 % 1015,6 hPa 0,0 mm 0,6 km/h (0 Bft) NO 46 1 min 0,000 mm 2,3 UV-I 415 W/m 14,3 C 1,6 km/h (1 Bft)
04.09.2016 09:26 18,4 C 18,4 C 75 % 1015,5 hPa 0,0 mm 0,0 km/h (0 Bft) NO 46 1 min 0,000 mm 2,4 UV-I 441 W/m 13,9 C 0,0 km/h (0 Bft)
04.09.2016 09:27 18,5 C 18,5 C 74 % 1015,5 hPa 0,0 mm 0,0 km/h (0 Bft) NO 46 1 min 0,000 mm 2,4 UV-I 441 W/m 13,8 C 0,0 km/h (0 Bft)
04.09.2016 09:28 18,6 C 18,6 C 74 % 1015,5 hPa 0,0 mm 0,0 km/h (0 Bft) NO 46 1 min 0,000 mm 2,4 UV-I 448 W/m 13,9 C 0,0 km/h (0 Bft)
04.09.2016 09:29 18,7 C 18,7 C 73 % 1015,4 hPa 0,0 mm 0,0 km/h (0 Bft) NO 46 1 min 0,000 mm 2,4 UV-I 446 W/m 13,8 C 0,0 km/h (0 Bft)
04.09.2016 09:30 18,8 C 18,8 C 72 % 1015,4 hPa 0,0 mm 0,0 km/h (0 Bft) NO 46 1 min 0,000 mm 2,3 UV-I 427 W/m 13,6 C 0,0 km/h (0 Bft)
04.09.2016 09:31 18,9 C 18,9 C 75 % 1015,4 hPa 0,0 mm 0,0 km/h (0 Bft) NO 46 1 min 0,000 mm 2,4 UV-I 418 W/m 14,4 C 0,0 km/h (0 Bft)
04.09.2016 09:32 19,1 C 19,1 C 75 % 1015,4 hPa 0,0 mm 0,0 km/h (0 Bft) NO 46 1 min 0,000 mm 2,4 UV-I 420 W/m 14,6 C 0,0 km/h (0 Bft)
04.09.2016 09:33 19,1 C 19,1 C 72 % 1015,4 hPa 0,0 mm 0,0 km/h (0 Bft) NO 46 1 min 0,000 mm 2,5 UV-I 446 W/m 13,9 C 0,0 km/h (0 Bft)
04.09.2016 09:34 19,1 C 19,2 C 73 % 1015,4 hPa 0,0 mm 0,0 km/h (0 Bft) NO 46 1 min 0,000 mm 2,5 UV-I 434 W/m 14,1 C 0,0 km/h (0 Bft)
04.09.2016 09:35 19,2 C 19,2 C 71 % 1015,4 hPa 0,0 mm 0,0 km/h (0 Bft) NO 46 1 min 0,000 mm 2,4 UV-I 445 W/m 13,8 C 0,0 km/h (0 Bft)
04.09.2016 09:36 19,1 C 19,2 C 71 % 1015,4 hPa 0,0 mm 0,0 km/h (0 Bft) NO 46 1 min 0,000 mm 2,5 UV-I 462 W/m 13,7 C 0,0 km/h (0 Bft)
04.09.2016 09:37 19,1 C 19,1 C 73 % 1015,4 hPa 0,0 mm 0,0 km/h (0 Bft) NO 46 1 min 0,000 mm 2,5 UV-I 461 W/m 14,1 C 0,0 km/h (0 Bft)
04.09.2016 09:38 19,2 C 19,2 C 71 % 1015,4 hPa 0,0 mm 0,0 km/h (0 Bft) NO 46 1 min 0,000 mm 2,4 UV-I 425 W/m 13,8 C 0,0 km/h (0 Bft)
04.09.2016 09:39 19,3 C 19,3 C 73 % 1015,4 hPa 0,0 mm 0,0 km/h (0 Bft) NO 46 1 min 0,000 mm 2,5 UV-I 432 W/m 14,3 C 0,0 km/h (0 Bft)
04.09.2016 09:40 19,3 C 19,3 C 75 % 1015,4 hPa 0,0 mm 0,0 km/h (0 Bft) NO 46 1 min 0,000 mm 2,4 UV-I 411 W/m 14,8 C 0,0 km/h (0 Bft)
04.09.2016 09:41 19,4 C 19,4 C 70 % 1015,3 hPa 0,0 mm 0,0 km/h (0 Bft) NO 46 1 min 0,000 mm 2,5 UV-I 432 W/m 13,8 C 0,0 km/h (0 Bft)
04.09.2016 09:42 19,4 C 19,4 C 70 % 1015,4 hPa 0,0 mm 0,0 km/h (0 Bft) NO 46 1 min 0,000 mm 2,5 UV-I 434 W/m 13,8 C 0,0 km/h (0 Bft)
04.09.2016 09:43 19,7 C 19,7 C 78 % 1015,4 hPa 0,0 mm 0,0 km/h (0 Bft) NO 46 1 min 0,000 mm 2,5 UV-I 411 W/m 15,8 C 0,0 km/h (0 Bft)
04.09.2016 09:44 19,7 C 19,7 C 71 % 1015,4 hPa 0,0 mm 0,0 km/h (0 Bft) NO 46 1 min 0,000 mm 2,6 UV-I 434 W/m 14,3 C 0,0 km/h (0 Bft)
04.09.2016 09:45 19,8 C 19,8 C 74 % 1015,5 hPa 0,0 mm 0,0 km/h (0 Bft) N 5 1 min 0,000 mm 2,5 UV-I 452 W/m 15,0 C 0,0 km/h (0 Bft)
04.09.2016 09:46 19,8 C 19,8 C 71 % 1015,5 hPa 0,0 mm 1,3 km/h (1 Bft) N 360 1 min 0,000 mm 2,7 UV-I 461 W/m 14,4 C 3,2 km/h (1 Bft)
04.09.2016 09:47 19,9 C 19,9 C 73 % 1015,5 hPa 0,0 mm 2,3 km/h (1 Bft) N-NW 333 1 min 0,000 mm 2,6 UV-I 411 W/m 14,9 C 3,2 km/h (1 Bft)
04.09.2016 09:48 19,9 C 19,9 C 75 % 1015,5 hPa 0,0 mm 0,8 km/h (0 Bft) N 355 1 min 0,000 mm 2,6 UV-I 415 W/m 15,3 C 3,2 km/h (1 Bft)
04.09.2016 09:49 20,0 C 20,0 C 74 % 1015,5 hPa 0,0 mm 0,5 km/h (0 Bft) N 355 1 min 0,000 mm 2,6 UV-I 476 W/m 15,2 C 1,6 km/h (1 Bft)
04.09.2016 09:50 20,1 C 20,1 C 74 % 1015,5 hPa 0,0 mm 0,1 km/h (0 Bft) N 355 1 min 0,000 mm 2,8 UV-I 457 W/m 15,3 C 1,6 km/h (1 Bft)
04.09.2016 09:51 20,3 C 20,3 C 73 % 1015,5 hPa 0,0 mm 0,1 km/h (0 Bft) N 355 1 min 0,000 mm 2,8 UV-I 485 W/m 15,3 C 1,6 km/h (1 Bft)
04.09.2016 09:52 20,4 C 20,4 C 76 % 1015,5 hPa 0,0 mm 0,2 km/h (0 Bft) N 355 1 min 0,000 mm 2,9 UV-I 455 W/m 16,0 C 1,6 km/h (1 Bft)
04.09.2016 09:53 20,4 C 20,4 C 72 % 1015,5 hPa 0,0 mm 0,0 km/h (0 Bft) N 355 1 min 0,000 mm 3,0 UV-I 531 W/m 15,2 C 0,0 km/h (0 Bft)
04.09.2016 09:54 20,3 C 20,4 C 73 % 1015,5 hPa 0,0 mm 0,4 km/h (0 Bft) N 355 1 min 0,000 mm 3,0 UV-I 513 W/m 15,3 C 1,6 km/h (1 Bft)
04.09.2016 09:55 20,2 C 20,3 C 71 % 1015,5 hPa 0,0 mm 1,3 km/h (1 Bft) N 355 1 min 0,000 mm 2,6 UV-I 413 W/m 14,8 C 1,6 km/h (1 Bft)
04.09.2016 09:56 20,1 C 20,2 C 71 % 1015,4 hPa 0,0 mm 1,5 km/h (1 Bft) N 355 1 min 0,000 mm 2,7 UV-I 415 W/m 14,7 C 1,6 km/h (1 Bft)
04.09.2016 09:57 20,1 C 20,1 C 70 % 1015,5 hPa 0,0 mm 1,2 km/h (1 Bft) N 355 1 min 0,000 mm 2,9 UV-I 466 W/m 14,5 C 1,6 km/h (1 Bft)
04.09.2016 09:58 20,2 C 20,2 C 70 % 1015,4 hPa 0,0 mm 0,3 km/h (0 Bft) N 355 1 min 0,000 mm 3,0 UV-I 510 W/m 14,5 C 1,6 km/h (1 Bft)
04.09.2016 09:59 20,3 C 20,3 C 70 % 1015,4 hPa 0,0 mm 1,5 km/h (1 Bft) N 355 1 min 0,000 mm 3,0 UV-I 497 W/m 14,6 C 1,6 km/h (1 Bft)
04.09.2016 10:00 20,4 C 20,4 C 70 % 1015,4 hPa 0,0 mm 1,4 km/h (1 Bft) N 355 1 min 0,000 mm 3,0 UV-I 515 W/m 14,7 C 1,6 km/h (1 Bft)
04.09.2016 10:01 20,5 C 20,5 C 69 % 1015,4 hPa 0,0 mm 0,6 km/h (0 Bft) N 355 1 min 0,229 mm 2,8 UV-I 468 W/m 14,6 C 1,6 km/h (1 Bft)
04.09.2016 10:02 20,6 C 20,6 C 69 % 1015,4 hPa 0,0 mm 0,0 km/h (0 Bft) N 355 1 min 0,000 mm 2,3 UV-I 468 W/m 14,7 C 0,0 km/h (0 Bft)
04.09.2016 10:03 20,7 C 20,7 C 69 % 1015,5 hPa 0,0 mm 0,0 km/h (0 Bft) N 355 1 min 0,000 mm 2,3 UV-I 362 W/m 14,8 C 0,0 km/h (0 Bft)
04.09.2016 10:04 20,7 C 20,7 C 69 % 1015,4 hPa 0,0 mm 0,2 km/h (0 Bft) N 355 1 min 0,000 mm 2,6 UV-I 371 W/m 14,8 C 1,6 km/h (1 Bft)
04.09.2016 10:05 20,7 C 20,7 C 72 % 1015,4 hPa 0,0 mm 0,1 km/h (0 Bft) N 355 1 min 0,000 mm 2,4 UV-I 315 W/m 15,5 C 1,6 km/h (1 Bft)
04.09.2016 10:06 20,7 C 20,7 C 72 % 1015,5 hPa 0,0 mm 0,1 km/h (0 Bft) N 355 1 min 0,000 mm 2,5 UV-I 339 W/m 15,5 C 1,6 km/h (1 Bft)
04.09.2016 10:07 20,7 C 20,7 C 72 % 1015,5 hPa 0,0 mm 0,0 km/h (0 Bft) N 355 1 min 0,000 mm 2,6 UV-I 353 W/m 15,5 C 0,0 km/h (0 Bft)
04.09.2016 10:08 20,7 C 20,7 C 76 % 1015,5 hPa 0,0 mm 0,0 km/h (0 Bft) N 355 1 min 0,000 mm 2,7 UV-I 427 W/m 16,3 C 0,0 km/h (0 Bft)
04.09.2016 10:09 20,8 C 20,8 C 80 % 1015,4 hPa 0,0 mm 0,5 km/h (0 Bft) N 355 1 min 0,000 mm 2,8 UV-I 392 W/m 17,2 C 1,6 km/h (1 Bft)
04.09.2016 10:10 20,8 C 20,8 C 78 % 1015,5 hPa 0,0 mm 0,1 km/h (0 Bft) N 355 1 min 0,000 mm 2,6 UV-I 374 W/m 16,8 C 1,6 km/h (1 Bft)
04.09.2016 10:11 21,0 C 21,0 C 76 % 1015,4 hPa 0,0 mm 0,3 km/h (0 Bft) N 355 1 min 0,000 mm 2,6 UV-I 376 W/m 16,6 C 1,6 km/h (1 Bft)
04.09.2016 10:12 21,1 C 21,1 C 71 % 1015,5 hPa 0,0 mm 0,3 km/h (0 Bft) N 355 1 min 0,000 mm 2,5 UV-I 374 W/m 15,6 C 1,6 km/h (1 Bft)
04.09.2016 10:13 21,2 C 21,2 C 72 % 1015,5 hPa 0,0 mm 0,3 km/h (0 Bft) N 355 0 min 0,000 mm 2,2 UV-I 299 W/m 15,9 C 1,6 km/h (1 Bft)
04.09.2016 10:14 21,2 C 21,2 C 75 % 1015,5 hPa 0,0 mm 0,0 km/h (0 Bft) N 355 0 min 0,000 mm 2,2 UV-I 251 W/m 16,6 C 0,0 km/h (0 Bft)
04.09.2016 10:15 21,1 C 21,2 C 75 % 1015,5 hPa 0,0 mm 0,1 km/h (0 Bft) N 355 0 min 0,000 mm 2,0 UV-I 237 W/m 16,5 C 1,6 km/h (1 Bft)
04.09.2016 10:16 20,9 C 21,1 C 77 % 1015,5 hPa 0,0 mm 0,1 km/h (0 Bft) N 355 0 min 0,000 mm 2,0 UV-I 243 W/m 16,7 C 1,6 km/h (1 Bft)
04.09.2016 10:17 20,7 C 20,9 C 76 % 1015,5 hPa 0,0 mm 0,3 km/h (0 Bft) N 355 0 min 0,000 mm 1,9 UV-I 218 W/m 16,3 C 1,6 km/h (1 Bft)
04.09.2016 10:18 20,6 C 20,7 C 76 % 1015,6 hPa 0,0 mm 0,4 km/h (0 Bft) N 355 0 min 0,000 mm 1,9 UV-I 206 W/m 16,2 C 1,6 km/h (1 Bft)
04.09.2016 10:19 20,6 C 20,6 C 72 % 1015,5 hPa 0,0 mm 0,1 km/h (0 Bft) N 355 0 min 0,000 mm 1,9 UV-I 206 W/m 15,4 C 1,6 km/h (1 Bft)
04.09.2016 10:20 20,5 C 20,6 C 71 % 1015,5 hPa 0,0 mm 0,5 km/h (0 Bft) N 355 0 min 0,000 mm 1,8 UV-I 186 W/m 15,1 C 1,6 km/h (1 Bft)
04.09.2016 10:21 20,5 C 20,6 C 72 % 1015,5 hPa 0,0 mm 1,2 km/h (1 Bft) N 355 0 min 0,000 mm 1,9 UV-I 193 W/m 15,3 C 1,6 km/h (1 Bft)
04.09.2016 10:22 20,4 C 20,5 C 74 % 1015,5 hPa 0,0 mm 0,8 km/h (0 Bft) N 355 0 min 0,000 mm 2,1 UV-I 227 W/m 15,6 C 1,6 km/h (1 Bft)
04.09.2016 10:23 20,2 C 20,4 C 74 % 1015,4 hPa 0,0 mm 1,2 km/h (1 Bft) N 355 0 min 0,000 mm 2,2 UV-I 250 W/m 15,4 C 1,6 km/h (1 Bft)
04.09.2016 10:24 20,1 C 20,2 C 75 % 1015,5 hPa 0,0 mm 2,3 km/h (1 Bft) N-NO 33 0 min 0,000 mm 2,2 UV-I 244 W/m 15,5 C 3,2 km/h (1 Bft)
04.09.2016 10:25 20,1 C 20,1 C 75 % 1015,5 hPa 0,0 mm 1,0 km/h (0 Bft) N-NO 33 0 min 0,000 mm 2,4 UV-I 309 W/m 15,5 C 1,6 km/h (1 Bft)
04.09.2016 10:26 19,9 C 20,1 C 77 % 1015,5 hPa 0,0 mm 0,1 km/h (0 Bft) N-NO 33 1 min 0,000 mm 2,6 UV-I 341 W/m 15,7 C 1,6 km/h (1 Bft)
04.09.2016 10:27 20,0 C 20,0 C 76 % 1015,5 hPa 0,0 mm 1,1 km/h (1 Bft) N-NO 33 0 min 0,000 mm 2,3 UV-I 250 W/m 15,6 C 1,6 km/h (1 Bft)
04.09.2016 10:28 20,1 C 20,1 C 76 % 1015,5 hPa 0,0 mm 1,4 km/h (1 Bft) N-NO 33 1 min 0,000 mm 2,7 UV-I 334 W/m 15,7 C 1,6 km/h (1 Bft)
04.09.2016 10:29 20,1 C 20,1 C 77 % 1015,4 hPa 0,0 mm 0,4 km/h (0 Bft) N-NO 33 1 min 0,000 mm 2,7 UV-I 341 W/m 15,9 C 1,6 km/h (1 Bft)
04.09.2016 10:30 20,2 C 20,2 C 76 % 1015,4 hPa 0,0 mm 0,1 km/h (0 Bft) N-NO 33 1 min 0,000 mm 2,8 UV-I 380 W/m 15,8 C 1,6 km/h (1 Bft)
04.09.2016 10:31 20,3 C 20,3 C 75 % 1015,5 hPa 0,0 mm 0,2 km/h (0 Bft) N-NO 33 1 min 0,000 mm 3,1 UV-I 429 W/m 15,7 C 1,6 km/h (1 Bft)
04.09.2016 10:32 20,4 C 20,4 C 73 % 1015,4 hPa 0,0 mm 0,0 km/h (0 Bft) N-NO 33 1 min 0,000 mm 3,1 UV-I 448 W/m 15,4 C 0,0 km/h (0 Bft)
04.09.2016 10:33 20,5 C 20,5 C 73 % 1015,4 hPa 0,0 mm 0,1 km/h (0 Bft) N-NO 33 1 min 0,000 mm 3,6 UV-I 448 W/m 15,5 C 1,6 km/h (1 Bft)
04.09.2016 10:34 20,6 C 20,6 C 72 % 1015,5 hPa 0,0 mm 0,3 km/h (0 Bft) N-NO 33 1 min 0,000 mm 3,2 UV-I 561 W/m 15,4 C 1,6 km/h (1 Bft)
04.09.2016 10:35 20,7 C 20,7 C 73 % 1015,4 hPa 0,0 mm 0,9 km/h (0 Bft) N-NO 33 1 min 0,000 mm 3,2 UV-I 501 W/m 15,7 C 1,6 km/h (1 Bft)
04.09.2016 10:36 20,8 C 20,8 C 70 % 1015,5 hPa 0,0 mm 0,7 km/h (0 Bft) N-NO 33 1 min 0,000 mm 3,2 UV-I 462 W/m 15,1 C 1,6 km/h (1 Bft)
04.09.2016 10:37 20,8 C 20,8 C 72 % 1015,5 hPa 0,0 mm 0,8 km/h (0 Bft) N-NO 33 1 min 0,000 mm 3,5 UV-I 499 W/m 15,6 C 1,6 km/h (1 Bft)
04.09.2016 10:38 20,9 C 20,9 C 74 % 1015,5 hPa 0,0 mm 0,3 km/h (0 Bft) N-NO 33 1 min 0,000 mm 3,7 UV-I 552 W/m 16,1 C 1,6 km/h (1 Bft)
04.09.2016 10:39 21,1 C 21,1 C 72 % 1015,5 hPa 0,0 mm 0,1 km/h (0 Bft) N-NO 33 1 min 0,000 mm 3,8 UV-I 570 W/m 15,8 C 1,6 km/h (1 Bft)
04.09.2016 10:40 21,2 C 21,2 C 70 % 1015,5 hPa 0,0 mm 0,0 km/h (0 Bft) N-NO 33 1 min 0,000 mm 3,9 UV-I 606 W/m 15,5 C 0,0 km/h (0 Bft)
04.09.2016 10:41 21,3 C 21,3 C 77 % 1015,6 hPa 0,0 mm 1,1 km/h (1 Bft) N-NO 33 1 min 0,000 mm 4,0 UV-I 621 W/m 17,1 C 1,6 km/h (1 Bft)
04.09.2016 10:42 21,4 C 21,4 C 69 % 1015,5 hPa 0,0 mm 0,1 km/h (0 Bft) N-NO 33 1 min 0,000 mm 4,1 UV-I 661 W/m 15,5 C 1,6 km/h (1 Bft)
04.09.2016 10:43 21,5 C 21,5 C 65 % 1015,5 hPa 0,0 mm 0,0 km/h (0 Bft) N-NO 33 1 min 0,000 mm 4,0 UV-I 612 W/m 14,6 C 0,0 km/h (0 Bft)
04.09.2016 10:44 21,7 C 21,7 C 69 % 1015,5 hPa 0,0 mm 1,9 km/h (1 Bft) NO 42 1 min 0,000 mm 3,8 UV-I 543 W/m 15,8 C 3,2 km/h (1 Bft)
04.09.2016 10:45 21,9 C 21,9 C 71 % 1015,5 hPa 0,0 mm 2,7 km/h (1 Bft) N-NO 28 1 min 0,000 mm 3,0 UV-I 543 W/m 16,4 C 4,8 km/h (1 Bft)
04.09.2016 10:46 21,8 C 21,9 C 67 % 1015,5 hPa 0,0 mm 3,4 km/h (1 Bft) N-NW 336 1 min 0,000 mm 2,6 UV-I 543 W/m 15,4 C 4,8 km/h (1 Bft)
04.09.2016 10:47 21,5 C 21,8 C 70 % 1015,5 hPa 0,0 mm 3,8 km/h (1 Bft) N-NW 338 0 min 0,000 mm 2,5 UV-I 265 W/m 15,8 C 4,8 km/h (1 Bft)
04.09.2016 10:48 21,2 C 21,5 C 72 % 1015,4 hPa 0,0 mm 1,4 km/h (1 Bft) N-NW 338 0 min 0,000 mm 2,4 UV-I 253 W/m 15,9 C 3,2 km/h (1 Bft)
04.09.2016 10:49 21,1 C 21,2 C 68 % 1015,4 hPa 0,0 mm 1,1 km/h (1 Bft) N-NW 338 0 min 0,000 mm 2,4 UV-I 260 W/m 15,0 C 3,2 km/h (1 Bft)
04.09.2016 10:50 21,0 C 21,1 C 69 % 1015,4 hPa 0,0 mm 0,0 km/h (0 Bft) N-NW 338 0 min 0,000 mm 2,6 UV-I 251 W/m 15,1 C 0,0 km/h (0 Bft)
04.09.2016 10:51 21,1 C 21,1 C 69 % 1015,4 hPa 0,0 mm 0,0 km/h (0 Bft) N-NW 338 0 min 0,000 mm 2,5 UV-I 265 W/m 15,2 C 0,0 km/h (0 Bft)
04.09.2016 10:52 21,1 C 21,1 C 70 % 1015,5 hPa 0,0 mm 0,0 km/h (0 Bft) N-NW 338 0 min 0,000 mm 2,7 UV-I 309 W/m 15,4 C 0,0 km/h (0 Bft)
04.09.2016 10:53 21,2 C 21,2 C 69 % 1015,4 hPa 0,0 mm 0,0 km/h (0 Bft) N-NW 338 0 min 0,000 mm 3,0 UV-I 309 W/m 15,3 C 0,0 km/h (0 Bft)
04.09.2016 10:54 21,4 C 21,4 C 69 % 1015,5 hPa 0,0 mm 2,7 km/h (1 Bft) W-NW 288 0 min 0,000 mm 2,3 UV-I 309 W/m 15,5 C 8,0 km/h (2 Bft)
04.09.2016 10:55 21,5 C 21,6 C 72 % 1015,5 hPa 0,0 mm 4,8 km/h (1 Bft) W 275 0 min 0,000 mm 2,2 UV-I 218 W/m 16,2 C 11,3 km/h (2 Bft)
04.09.2016 10:56 21,5 C 21,6 C 70 % 1015,5 hPa 0,0 mm 2,0 km/h (1 Bft) W-NW 289 0 min 0,000 mm 2,2 UV-I 227 W/m 15,8 C 3,2 km/h (1 Bft)
04.09.2016 10:57 21,4 C 21,5 C 68 % 1015,4 hPa 0,0 mm 2,7 km/h (1 Bft) W-SW 244 0 min 0,000 mm 2,3 UV-I 248 W/m 15,2 C 6,4 km/h (2 Bft)
04.09.2016 10:58 21,4 C 21,4 C 69 % 1015,5 hPa 0,0 mm 7,7 km/h (2 Bft) W-SW 254 0 min 0,000 mm 2,4 UV-I 246 W/m 15,5 C 12,9 km/h (3 Bft)
04.09.2016 10:59 21,4 C 21,4 C 68 % 1015,5 hPa 0,0 mm 7,1 km/h (2 Bft) NW 315 0 min 0,000 mm 2,5 UV-I 253 W/m 15,2 C 12,9 km/h (3 Bft)
04.09.2016 11:00 21,4 C 21,4 C 71 % 1015,5 hPa 0,0 mm 4,2 km/h (1 Bft) W-SW 249 0 min 0,000 mm 2,5 UV-I 244 W/m 15,9 C 8,0 km/h (2 Bft)
04.09.2016 11:01 21,4 C 21,4 C 69 % 1015,6 hPa 0,0 mm 4,3 km/h (1 Bft) W 259 0 min 0,203 mm 3,4 UV-I 244 W/m 15,5 C 6,4 km/h (2 Bft)
04.09.2016 11:02 21,6 C 21,6 C 66 % 1015,6 hPa 0,0 mm 4,6 km/h (1 Bft) W 267 1 min 0,000 mm 4,0 UV-I 606 W/m 15,0 C 6,4 km/h (2 Bft)
04.09.2016 11:03 21,7 C 21,7 C 67 % 1015,6 hPa 0,0 mm 3,5 km/h (1 Bft) W-NW 294 1 min 0,000 mm 4,0 UV-I 605 W/m 15,3 C 4,8 km/h (1 Bft)
04.09.2016 11:04 21,8 C 21,8 C 69 % 1015,6 hPa 0,0 mm 5,3 km/h (1 Bft) W-NW 294 1 min 0,000 mm 3,9 UV-I 571 W/m 15,9 C 9,7 km/h (2 Bft)
04.09.2016 11:05 21,9 C 21,9 C 65 % 1015,5 hPa 0,0 mm 6,0 km/h (2 Bft) W-SW 248 1 min 0,000 mm 3,3 UV-I 571 W/m 15,0 C 11,3 km/h (2 Bft)
04.09.2016 11:06 22,1 C 22,1 C 68 % 1015,5 hPa 0,0 mm 7,1 km/h (2 Bft) W 281 1 min 0,000 mm 3,3 UV-I 420 W/m 15,9 C 12,9 km/h (3 Bft)
04.09.2016 11:07 22,1 C 22,1 C 66 % 1015,5 hPa 0,0 mm 4,4 km/h (1 Bft) W-NW 286 1 min 0,000 mm 3,6 UV-I 510 W/m 15,4 C 6,4 km/h (2 Bft)
04.09.2016 11:08 22,1 C 22,1 C 67 % 1015,5 hPa 0,0 mm 4,4 km/h (1 Bft) W 271 1 min 0,000 mm 2,6 UV-I 510 W/m 15,7 C 6,4 km/h (2 Bft)
04.09.2016 11:09 22,1 C 22,1 C 64 % 1015,6 hPa 0,0 mm 7,1 km/h (2 Bft) W-NW 283 1 min 0,000 mm 3,1 UV-I 369 W/m 15,0 C 9,7 km/h (2 Bft)
04.09.2016 11:10 22,1 C 22,1 C 68 % 1015,5 hPa 0,0 mm 4,6 km/h (1 Bft) W-SW 250 1 min 0,000 mm 3,3 UV-I 413 W/m 15,9 C 6,4 km/h (2 Bft)
04.09.2016 11:11 22,1 C 22,1 C 69 % 1015,5 hPa 0,0 mm 4,8 km/h (1 Bft) W 273 1 min 0,000 mm 4,0 UV-I 513 W/m 16,1 C 6,4 km/h (2 Bft)
04.09.2016 11:12 22,1 C 22,1 C 64 % 1015,5 hPa 0,0 mm 4,1 km/h (1 Bft) W-SW 250 1 min 0,000 mm 4,3 UV-I 513 W/m 15,0 C 8,0 km/h (2 Bft)
04.09.2016 11:13 22,2 C 22,2 C 66 % 1015,5 hPa 0,0 mm 7,4 km/h (2 Bft) W-SW 251 1 min 0,000 mm 4,3 UV-I 622 W/m 15,5 C 14,5 km/h (3 Bft)
04.09.2016 11:14 22,2 C 22,2 C 62 % 1015,5 hPa 0,0 mm 6,6 km/h (2 Bft) W-NW 285 1 min 0,000 mm 4,4 UV-I 617 W/m 14,6 C 9,7 km/h (2 Bft)
04.09.2016 11:15 22,3 C 22,3 C 64 % 1015,5 hPa 0,0 mm 4,6 km/h (1 Bft) NW 311 1 min 0,000 mm 4,7 UV-I 617 W/m 15,2 C 6,4 km/h (2 Bft)
04.09.2016 11:16 22,3 C 22,3 C 66 % 1015,5 hPa 0,0 mm 4,2 km/h (1 Bft) W-NW 288 1 min 0,000 mm 4,3 UV-I 684 W/m 15,6 C 6,4 km/h (2 Bft)
04.09.2016 11:17 22,4 C 22,4 C 63 % 1015,5 hPa 0,0 mm 6,3 km/h (2 Bft) W-NW 298 1 min 0,000 mm 4,4 UV-I 656 W/m 15,0 C 14,5 km/h (3 Bft)
04.09.2016 11:18 22,4 C 22,4 C 63 % 1015,5 hPa 0,0 mm 7,8 km/h (2 Bft) W-NW 285 1 min 0,000 mm 4,1 UV-I 645 W/m 15,0 C 12,9 km/h (3 Bft)
04.09.2016 11:19 22,6 C 22,6 C 63 % 1015,5 hPa 0,0 mm 6,4 km/h (2 Bft) W-NW 289 1 min 0,000 mm 4,3 UV-I 689 W/m 15,2 C 8,0 km/h (2 Bft)
04.09.2016 11:20 22,7 C 22,7 C 65 % 1015,5 hPa 0,0 mm 5,2 km/h (1 Bft) W 264 1 min 0,000 mm 4,5 UV-I 682 W/m 15,8 C 6,4 km/h (2 Bft)
04.09.2016 11:21 22,8 C 22,8 C 66 % 1015,4 hPa 0,0 mm 6,4 km/h (2 Bft) W 259 1 min 0,000 mm 4,2 UV-I 631 W/m 16,1 C 12,9 km/h (3 Bft)
04.09.2016 11:22 22,8 C 22,8 C 65 % 1015,5 hPa 0,0 mm 6,9 km/h (2 Bft) W-SW 256 1 min 0,000 mm 4,0 UV-I 559 W/m 15,9 C 11,3 km/h (2 Bft)
04.09.2016 11:23 22,8 C 22,8 C 61 % 1015,5 hPa 0,0 mm 6,1 km/h (2 Bft) W-SW 239 1 min 0,000 mm 3,8 UV-I 529 W/m 14,9 C 9,7 km/h (2 Bft)
04.09.2016 11:24 22,8 C 22,8 C 65 % 1015,4 hPa 0,0 mm 7,2 km/h (2 Bft) W 263 1 min 0,000 mm 3,5 UV-I 468 W/m 15,9 C 16,1 km/h (3 Bft)
04.09.2016 11:25 22,7 C 22,8 C 62 % 1015,4 hPa 0,0 mm 12,3 km/h (3 Bft) W-SW 238 0 min 0,000 mm 3,1 UV-I 366 W/m 15,0 C 14,5 km/h (3 Bft)
04.09.2016 11:26 22,6 C 22,7 C 60 % 1015,4 hPa 0,0 mm 10,4 km/h (2 Bft) W 277 0 min 0,000 mm 2,9 UV-I 332 W/m 14,4 C 14,5 km/h (3 Bft)
04.09.2016 11:27 22,5 C 22,6 C 62 % 1015,4 hPa 0,0 mm 9,5 km/h (2 Bft) W 281 0 min 0,000 mm 2,8 UV-I 318 W/m 14,8 C 16,1 km/h (3 Bft)
04.09.2016 11:28 22,4 C 22,5 C 63 % 1015,4 hPa 0,0 mm 6,3 km/h (2 Bft) W-NW 290 0 min 0,000 mm 2,8 UV-I 313 W/m 15,0 C 9,7 km/h (2 Bft)
04.09.2016 11:29 22,3 C 22,4 C 66 % 1015,5 hPa 0,0 mm 6,3 km/h (2 Bft) W-SW 253 0 min 0,000 mm 2,8 UV-I 316 W/m 15,6 C 9,7 km/h (2 Bft)
04.09.2016 11:30 22,3 C 22,3 C 64 % 1015,4 hPa 0,0 mm 5,3 km/h (1 Bft) W 271 0 min 0,000 mm 2,8 UV-I 322 W/m 15,2 C 9,7 km/h (2 Bft)
04.09.2016 11:31 22,3 C 22,3 C 64 % 1015,4 hPa 0,0 mm 5,9 km/h (2 Bft) W-NW 283 0 min 0,000 mm 2,8 UV-I 323 W/m 15,2 C 9,7 km/h (2 Bft)
04.09.2016 11:32 22,2 C 22,3 C 64 % 1015,4 hPa 0,0 mm 5,5 km/h (1 Bft) W-SW 239 0 min 0,000 mm 2,8 UV-I 315 W/m 15,1 C 9,7 km/h (2 Bft)
04.09.2016 11:33 22,1 C 22,2 C 65 % 1015,5 hPa 0,0 mm 7,2 km/h (2 Bft) W-NW 288 0 min 0,000 mm 2,7 UV-I 308 W/m 15,2 C 11,3 km/h (2 Bft)
04.09.2016 11:34 22,1 C 22,1 C 65 % 1015,6 hPa 0,0 mm 5,4 km/h (1 Bft) W-SW 254 0 min 0,000 mm 2,7 UV-I 309 W/m 15,2 C 9,7 km/h (2 Bft)
04.09.2016 11:35 22,1 C 22,1 C 65 % 1015,5 hPa 0,0 mm 3,5 km/h (1 Bft) W 271 0 min 0,000 mm 2,6 UV-I 279 W/m 15,2 C 6,4 km/h (2 Bft)
04.09.2016 11:36 22,0 C 22,1 C 65 % 1015,5 hPa 0,0 mm 2,7 km/h (1 Bft) W 271 0 min 0,000 mm 2,5 UV-I 260 W/m 15,1 C 3,2 km/h (1 Bft)
04.09.2016 11:37 21,9 C 22,0 C 66 % 1015,5 hPa 0,0 mm 3,9 km/h (1 Bft) W 276 0 min 0,000 mm 2,6 UV-I 264 W/m 15,3 C 8,0 km/h (2 Bft)
04.09.2016 11:38 21,9 C 21,9 C 65 % 1015,4 hPa 0,0 mm 6,8 km/h (2 Bft) W-SW 249 0 min 0,000 mm 2,8 UV-I 283 W/m 15,0 C 9,7 km/h (2 Bft)
04.09.2016 11:39 21,9 C 21,9 C 68 % 1015,5 hPa 0,0 mm 5,1 km/h (1 Bft) W 276 0 min 0,000 mm 2,9 UV-I 315 W/m 15,7 C 11,3 km/h (2 Bft)
04.09.2016 11:40 21,9 C 21,9 C 65 % 1015,5 hPa 0,0 mm 6,6 km/h (2 Bft) W 275 0 min 0,000 mm 3,1 UV-I 366 W/m 15,0 C 9,7 km/h (2 Bft)
04.09.2016 11:41 21,9 C 21,9 C 68 % 1015,5 hPa 0,0 mm 5,2 km/h (1 Bft) W-SW 254 1 min 0,000 mm 3,5 UV-I 403 W/m 15,7 C 11,3 km/h (2 Bft)
04.09.2016 11:42 21,9 C 21,9 C 67 % 1015,5 hPa 0,0 mm 6,2 km/h (2 Bft) W 263 1 min 0,000 mm 3,7 UV-I 415 W/m 15,5 C 11,3 km/h (2 Bft)
04.09.2016 11:43 21,9 C 21,9 C 68 % 1015,5 hPa 0,0 mm 6,8 km/h (2 Bft) W-NW 294 0 min 0,000 mm 3,2 UV-I 364 W/m 15,7 C 9,7 km/h (2 Bft)
04.09.2016 11:44 22,0 C 22,0 C 68 % 1015,5 hPa 0,0 mm 5,4 km/h (1 Bft) W 277 0 min 0,000 mm 3,3 UV-I 373 W/m 15,8 C 6,4 km/h (2 Bft)
04.09.2016 11:45 22,1 C 22,1 C 67 % 1015,5 hPa 0,0 mm 6,0 km/h (2 Bft) W-NW 290 0 min 0,000 mm 3,3 UV-I 373 W/m 15,7 C 12,9 km/h (3 Bft)
04.09.2016 11:46 22,1 C 22,1 C 65 % 1015,5 hPa 0,0 mm 4,5 km/h (1 Bft) W 279 1 min 0,000 mm 3,4 UV-I 410 W/m 15,2 C 8,0 km/h (2 Bft)
04.09.2016 11:47 22,1 C 22,1 C 67 % 1015,5 hPa 0,0 mm 2,5 km/h (1 Bft) W-NW 286 1 min 0,000 mm 3,4 UV-I 404 W/m 15,7 C 4,8 km/h (1 Bft)
04.09.2016 11:48 22,1 C 22,1 C 66 % 1015,4 hPa 0,0 mm 3,7 km/h (1 Bft) W-SW 248 1 min 0,000 mm 3,8 UV-I 473 W/m 15,4 C 4,8 km/h (1 Bft)
04.09.2016 11:49 22,2 C 22,2 C 68 % 1015,5 hPa 0,0 mm 4,9 km/h (1 Bft) W-NW 297 1 min 0,000 mm 3,9 UV-I 425 W/m 16,0 C 8,0 km/h (2 Bft)
04.09.2016 11:50 22,2 C 22,2 C 67 % 1015,5 hPa 0,0 mm 7,5 km/h (2 Bft) W-SW 258 1 min 0,000 mm 5,1 UV-I 425 W/m 15,8 C 11,3 km/h (2 Bft)
04.09.2016 11:51 22,3 C 22,3 C 69 % 1015,4 hPa 0,0 mm 7,7 km/h (2 Bft) NW 306 1 min 0,000 mm 5,6 UV-I 425 W/m 16,3 C 11,3 km/h (2 Bft)
04.09.2016 11:52 22,4 C 22,4 C 67 % 1015,5 hPa 0,0 mm 11,1 km/h (2 Bft) W 270 1 min 0,000 mm 5,5 UV-I 833 W/m 16,0 C 16,1 km/h (3 Bft)
04.09.2016 11:53 22,5 C 22,5 C 63 % 1015,4 hPa 0,0 mm 10,1 km/h (2 Bft) W 267 1 min 0,000 mm 5,1 UV-I 742 W/m 15,1 C 16,1 km/h (3 Bft)
04.09.2016 11:54 22,6 C 22,6 C 65 % 1015,4 hPa 0,0 mm 9,3 km/h (2 Bft) W-SW 253 1 min 0,000 mm 5,0 UV-I 759 W/m 15,7 C 16,1 km/h (3 Bft)
04.09.2016 11:55 22,8 C 22,8 C 65 % 1015,4 hPa 0,0 mm 6,6 km/h (2 Bft) W 265 1 min 0,000 mm 5,1 UV-I 726 W/m 15,9 C 12,9 km/h (3 Bft)
04.09.2016 11:56 22,9 C 22,9 C 67 % 1015,5 hPa 0,0 mm 5,0 km/h (1 Bft) W-SW 252 1 min 0,000 mm 4,9 UV-I 687 W/m 16,4 C 8,0 km/h (2 Bft)
04.09.2016 11:57 22,9 C 22,9 C 68 % 1015,4 hPa 0,0 mm 8,2 km/h (2 Bft) W-NW 288 1 min 0,000 mm 5,0 UV-I 677 W/m 16,7 C 11,3 km/h (2 Bft)
04.09.2016 11:58 23,0 C 23,0 C 66 % 1015,5 hPa 0,0 mm 6,9 km/h (2 Bft) W-SW 246 1 min 0,000 mm 5,2 UV-I 693 W/m 16,3 C 12,9 km/h (3 Bft)
04.09.2016 11:59 23,1 C 23,1 C 63 % 1015,5 hPa 0,0 mm 11,5 km/h (2 Bft) NW 304 1 min 0,000 mm 5,3 UV-I 721 W/m 15,7 C 14,5 km/h (3 Bft)
04.09.2016 12:00 23,1 C 23,1 C 63 % 1015,4 hPa 0,0 mm 8,2 km/h (2 Bft) W-SW 252 1 min 0,000 mm 5,2 UV-I 691 W/m 15,7 C 12,9 km/h (3 Bft)
04.09.2016 12:01 23,2 C 23,2 C 63 % 1015,4 hPa 0,0 mm 6,4 km/h (2 Bft) NW 319 1 min 0,330 mm 4,8 UV-I 654 W/m 15,8 C 14,5 km/h (3 Bft)
04.09.2016 12:02 23,1 C 23,2 C 62 % 1015,4 hPa 0,0 mm 6,1 km/h (2 Bft) W-SW 250 1 min 0,000 mm 4,6 UV-I 577 W/m 15,4 C 11,3 km/h (2 Bft)
04.09.2016 12:03 23,2 C 23,2 C 63 % 1015,4 hPa 0,0 mm 9,4 km/h (2 Bft) W-SW 248 1 min 0,000 mm 4,9 UV-I 633 W/m 15,8 C 14,5 km/h (3 Bft)
04.09.2016 12:04 23,2 C 23,2 C 65 % 1015,4 hPa 0,0 mm 8,0 km/h (2 Bft) SW 229 1 min 0,000 mm 4,6 UV-I 571 W/m 16,2 C 12,9 km/h (3 Bft)
04.09.2016 12:05 23,2 C 23,2 C 62 % 1015,4 hPa 0,0 mm 8,6 km/h (2 Bft) W 269 1 min 0,000 mm 4,9 UV-I 663 W/m 15,5 C 17,7 km/h (3 Bft)
04.09.2016 12:06 23,2 C 23,2 C 63 % 1015,4 hPa 0,0 mm 12,5 km/h (3 Bft) W-NW 288 1 min 0,000 mm 4,9 UV-I 610 W/m 15,8 C 20,9 km/h (4 Bft)
04.09.2016 12:07 23,2 C 23,2 C 61 % 1015,5 hPa 0,0 mm 9,1 km/h (2 Bft) W-SW 244 1 min 0,000 mm 3,6 UV-I 610 W/m 15,3 C 25,7 km/h (4 Bft)
04.09.2016 12:08 23,1 C 23,2 C 58 % 1015,4 hPa 0,0 mm 10,1 km/h (2 Bft) W-NW 283 0 min 0,000 mm 3,8 UV-I 339 W/m 14,4 C 20,9 km/h (4 Bft)
04.09.2016 12:09 22,9 C 23,1 C 57 % 1015,5 hPa 0,0 mm 11,4 km/h (2 Bft) W 274 0 min 0,000 mm 5,3 UV-I 339 W/m 13,9 C 19,3 km/h (3 Bft)
04.09.2016 12:10 22,9 C 22,9 C 57 % 1015,4 hPa 0,0 mm 12,1 km/h (2 Bft) W 278 1 min 0,000 mm 3,8 UV-I 606 W/m 13,9 C 17,7 km/h (3 Bft)
04.09.2016 12:11 22,9 C 22,9 C 61 % 1015,5 hPa 0,0 mm 8,3 km/h (2 Bft) W-NW 286 1 min 0,000 mm 5,3 UV-I 635 W/m 15,0 C 14,5 km/h (3 Bft)
04.09.2016 12:12 22,9 C 22,9 C 60 % 1015,5 hPa 0,0 mm 8,1 km/h (2 Bft) SW 234 0 min 0,000 mm 4,0 UV-I 338 W/m 14,7 C 14,5 km/h (3 Bft)
04.09.2016 12:13 22,8 C 22,9 C 59 % 1015,5 hPa 0,0 mm 11,6 km/h (2 Bft) W-NW 295 1 min 0,000 mm 5,7 UV-I 403 W/m 14,4 C 14,5 km/h (3 Bft)
04.09.2016 12:14 22,9 C 22,9 C 58 % 1015,6 hPa 0,0 mm 11,0 km/h (2 Bft) W-NW 288 1 min 0,000 mm 6,2 UV-I 403 W/m 14,2 C 16,1 km/h (3 Bft)
04.09.2016 12:15 22,9 C 22,9 C 57 % 1015,5 hPa 0,0 mm 11,6 km/h (2 Bft) W 264 1 min 0,000 mm 5,4 UV-I 403 W/m 13,9 C 16,1 km/h (3 Bft)
04.09.2016 12:16 23,1 C 23,1 C 56 % 1015,5 hPa 0,0 mm 12,5 km/h (3 Bft) W-NW 301 1 min 0,000 mm 5,8 UV-I 675 W/m 13,8 C 20,9 km/h (4 Bft)
04.09.2016 12:17 23,2 C 23,2 C 58 % 1015,5 hPa 0,0 mm 10,4 km/h (2 Bft) W 270 1 min 0,000 mm 4,7 UV-I 675 W/m 14,5 C 16,1 km/h (3 Bft)
04.09.2016 12:18 23,3 C 23,3 C 57 % 1015,5 hPa 0,0 mm 9,8 km/h (2 Bft) S-SW 209 0 min 0,000 mm 3,6 UV-I 383 W/m 14,3 C 12,9 km/h (3 Bft)
04.09.2016 12:19 23,3 C 23,3 C 54 % 1015,5 hPa 0,0 mm 6,3 km/h (2 Bft) W-NW 290 0 min 0,000 mm 3,5 UV-I 359 W/m 13,5 C 9,7 km/h (2 Bft)
04.09.2016 12:20 23,2 C 23,3 C 57 % 1015,6 hPa 0,0 mm 11,9 km/h (2 Bft) N-NW 344 0 min 0,000 mm 3,6 UV-I 376 W/m 14,2 C 17,7 km/h (3 Bft)
04.09.2016 12:21 23,1 C 23,2 C 56 % 1015,6 hPa 0,0 mm 10,5 km/h (2 Bft) SW 220 0 min 0,000 mm 3,6 UV-I 381 W/m 13,8 C 16,1 km/h (3 Bft)
04.09.2016 12:22 22,9 C 23,1 C 55 % 1015,5 hPa 0,0 mm 12,9 km/h (3 Bft) W-NW 285 0 min 0,000 mm 3,5 UV-I 373 W/m 13,4 C 17,7 km/h (3 Bft)
04.09.2016 12:23 22,9 C 22,9 C 56 % 1015,6 hPa 0,0 mm 15,1 km/h (3 Bft) W-NW 284 0 min 0,000 mm 3,4 UV-I 371 W/m 13,6 C 25,7 km/h (4 Bft)
04.09.2016 12:24 22,8 C 22,9 C 53 % 1015,6 hPa 0,0 mm 18,4 km/h (3 Bft) W-SW 240 0 min 0,000 mm 3,4 UV-I 367 W/m 12,7 C 30,6 km/h (5 Bft)
04.09.2016 12:25 22,7 C 22,8 C 52 % 1015,6 hPa 0,0 mm 18,5 km/h (3 Bft) SW 229 0 min 0,000 mm 3,4 UV-I 364 W/m 12,3 C 27,4 km/h (4 Bft)
04.09.2016 12:26 22,6 C 22,7 C 53 % 1015,7 hPa 0,0 mm 17,0 km/h (3 Bft) W 262 0 min 0,000 mm 3,3 UV-I 362 W/m 12,5 C 25,7 km/h (4 Bft)
04.09.2016 12:27 22,4 C 22,6 C 53 % 1015,7 hPa 0,0 mm 12,1 km/h (2 Bft) W-NW 288 0 min 0,000 mm 3,3 UV-I 359 W/m 12,3 C 22,5 km/h (4 Bft)
04.09.2016 12:28 22,4 C 22,4 C 54 % 1015,7 hPa 0,0 mm 16,2 km/h (3 Bft) W 259 0 min 0,000 mm 3,2 UV-I 345 W/m 12,6 C 25,7 km/h (4 Bft)
04.09.2016 12:29 22,3 C 22,4 C 54 % 1015,7 hPa 0,0 mm 14,5 km/h (3 Bft) W 271 0 min 0,000 mm 3,1 UV-I 315 W/m 12,5 C 25,7 km/h (4 Bft)
04.09.2016 12:30 22,3 C 22,3 C 53 % 1015,6 hPa 0,0 mm 16,3 km/h (3 Bft) SW 229 0 min 0,000 mm 3,1 UV-I 316 W/m 12,2 C 22,5 km/h (4 Bft)
04.09.2016 12:31 22,2 C 22,3 C 56 % 1015,5 hPa 0,0 mm 17,7 km/h (3 Bft) W 265 0 min 0,000 mm 3,1 UV-I 322 W/m 13,0 C 24,1 km/h (4 Bft)
04.09.2016 12:32 22,1 C 22,2 C 54 % 1015,6 hPa 0,0 mm 19,5 km/h (3 Bft) NW 315 0 min 0,000 mm 3,1 UV-I 316 W/m 12,3 C 27,4 km/h (4 Bft)
04.09.2016 12:33 22,1 C 22,1 C 55 % 1015,6 hPa 0,0 mm 14,5 km/h (3 Bft) W 260 0 min 0,000 mm 3,1 UV-I 309 W/m 12,6 C 24,1 km/h (4 Bft)
04.09.2016 12:34 22,1 C 22,1 C 55 % 1015,6 hPa 0,0 mm 10,1 km/h (2 Bft) W 259 0 min 0,000 mm 3,0 UV-I 299 W/m 12,6 C 16,1 km/h (3 Bft)
04.09.2016 12:35 22,0 C 22,1 C 55 % 1015,6 hPa 0,0 mm 8,4 km/h (2 Bft) W-SW 253 0 min 0,000 mm 2,9 UV-I 287 W/m 12,5 C 17,7 km/h (3 Bft)
04.09.2016 12:36 22,0 C 22,0 C 59 % 1015,5 hPa 0,0 mm 15,1 km/h (3 Bft) W-SW 255 0 min 0,000 mm 2,9 UV-I 287 W/m 13,6 C 19,3 km/h (3 Bft)
04.09.2016 12:37 22,0 C 22,0 C 58 % 1015,5 hPa 0,0 mm 9,2 km/h (2 Bft) W-NW 286 0 min 0,000 mm 3,0 UV-I 292 W/m 13,3 C 17,7 km/h (3 Bft)
04.09.2016 12:38 21,9 C 22,0 C 56 % 1015,5 hPa 0,0 mm 11,5 km/h (2 Bft) W-SW 250 0 min 0,000 mm 3,1 UV-I 302 W/m 12,7 C 20,9 km/h (4 Bft)
04.09.2016 12:39 21,9 C 22,0 C 56 % 1015,5 hPa 0,0 mm 7,3 km/h (2 Bft) W 262 0 min 0,000 mm 3,0 UV-I 287 W/m 12,7 C 16,1 km/h (3 Bft)
04.09.2016 12:40 21,9 C 21,9 C 56 % 1015,5 hPa 0,0 mm 8,8 km/h (2 Bft) W 267 0 min 0,000 mm 3,0 UV-I 287 W/m 12,7 C 14,5 km/h (3 Bft)
04.09.2016 12:41 21,9 C 22,0 C 57 % 1015,6 hPa 0,0 mm 5,9 km/h (2 Bft) W 276 0 min 0,000 mm 3,0 UV-I 301 W/m 13,0 C 9,7 km/h (2 Bft)
04.09.2016 12:42 22,0 C 22,0 C 56 % 1015,6 hPa 0,0 mm 9,9 km/h (2 Bft) W-NW 289 0 min 0,000 mm 3,1 UV-I 311 W/m 12,8 C 14,5 km/h (3 Bft)
04.09.2016 12:43 22,0 C 22,0 C 57 % 1015,6 hPa 0,0 mm 8,8 km/h (2 Bft) W-SW 248 0 min 0,000 mm 3,2 UV-I 325 W/m 13,1 C 14,5 km/h (3 Bft)
04.09.2016 12:44 22,0 C 22,1 C 56 % 1015,6 hPa 0,0 mm 11,6 km/h (2 Bft) W 263 0 min 0,000 mm 3,3 UV-I 352 W/m 12,8 C 16,1 km/h (3 Bft)
04.09.2016 12:45 22,1 C 22,1 C 57 % 1015,5 hPa 0,0 mm 14,5 km/h (3 Bft) W-NW 283 0 min 0,000 mm 3,4 UV-I 369 W/m 13,2 C 22,5 km/h (4 Bft)
04.09.2016 12:46 22,1 C 22,1 C 57 % 1015,5 hPa 0,0 mm 16,2 km/h (3 Bft) W-NW 303 0 min 0,000 mm 3,3 UV-I 350 W/m 13,2 C 27,4 km/h (4 Bft)
04.09.2016 12:47 22,1 C 22,1 C 56 % 1015,5 hPa 0,0 mm 13,2 km/h (3 Bft) SW 232 0 min 0,000 mm 3,3 UV-I 378 W/m 12,9 C 20,9 km/h (4 Bft)
04.09.2016 12:48 22,1 C 22,1 C 59 % 1015,5 hPa 0,0 mm 8,2 km/h (2 Bft) NW 321 0 min 0,000 mm 3,3 UV-I 371 W/m 13,7 C 14,5 km/h (3 Bft)
04.09.2016 12:49 22,1 C 22,1 C 59 % 1015,4 hPa 0,0 mm 9,3 km/h (2 Bft) W-NW 303 0 min 0,000 mm 3,2 UV-I 350 W/m 13,7 C 11,3 km/h (2 Bft)
04.09.2016 12:50 22,2 C 22,2 C 58 % 1015,5 hPa 0,0 mm 6,6 km/h (2 Bft) W-NW 294 0 min 0,000 mm 3,2 UV-I 350 W/m 13,5 C 11,3 km/h (2 Bft)
04.09.2016 12:51 22,2 C 22,2 C 61 % 1015,5 hPa 0,0 mm 11,8 km/h (2 Bft) W-SW 248 0 min 0,000 mm 3,0 UV-I 336 W/m 14,3 C 17,7 km/h (3 Bft)
04.09.2016 12:52 22,2 C 22,2 C 57 % 1015,5 hPa 0,0 mm 8,6 km/h (2 Bft) W 263 0 min 0,000 mm 2,9 UV-I 288 W/m 13,3 C 12,9 km/h (3 Bft)
04.09.2016 12:53 22,2 C 22,2 C 57 % 1015,6 hPa 0,0 mm 10,6 km/h (2 Bft) W-SW 247 0 min 0,000 mm 2,7 UV-I 281 W/m 13,3 C 16,1 km/h (3 Bft)
04.09.2016 12:54 22,2 C 22,2 C 58 % 1015,5 hPa 0,0 mm 7,9 km/h (2 Bft) W 259 0 min 0,000 mm 2,7 UV-I 281 W/m 13,5 C 12,9 km/h (3 Bft)
04.09.2016 12:55 22,2 C 22,2 C 57 % 1015,5 hPa 0,0 mm 14,2 km/h (3 Bft) W-SW 254 0 min 0,000 mm 2,8 UV-I 287 W/m 13,3 C 20,9 km/h (4 Bft)
04.09.2016 12:56 22,1 C 22,2 C 57 % 1015,5 hPa 0,0 mm 8,1 km/h (2 Bft) W-SW 254 0 min 0,000 mm 2,8 UV-I 290 W/m 13,2 C 14,5 km/h (3 Bft)
04.09.2016 12:57 22,1 C 22,1 C 58 % 1015,5 hPa 0,0 mm 9,9 km/h (2 Bft) W 279 0 min 0,000 mm 2,8 UV-I 294 W/m 13,4 C 14,5 km/h (3 Bft)
04.09.2016 12:58 22,1 C 22,1 C 57 % 1015,4 hPa 0,0 mm 6,8 km/h (2 Bft) W-SW 248 0 min 0,000 mm 2,8 UV-I 297 W/m 13,2 C 11,3 km/h (2 Bft)
04.09.2016 12:59 22,1 C 22,1 C 58 % 1015,4 hPa 0,0 mm 11,4 km/h (2 Bft) W-SW 255 0 min 0,000 mm 2,8 UV-I 294 W/m 13,4 C 17,7 km/h (3 Bft)
04.09.2016 13:00 22,1 C 22,1 C 56 % 1015,4 hPa 0,0 mm 9,5 km/h (2 Bft) S-SW 202 0 min 0,000 mm 2,7 UV-I 285 W/m 12,9 C 12,9 km/h (3 Bft)
04.09.2016 13:01 22,1 C 22,1 C 62 % 1015,4 hPa 0,0 mm 11,0 km/h (2 Bft) W 279 0 min 0,305 mm 2,6 UV-I 274 W/m 14,5 C 17,7 km/h (3 Bft)
04.09.2016 13:02 22,0 C 22,1 C 57 % 1015,4 hPa 0,0 mm 12,6 km/h (3 Bft) W-NW 298 0 min 0,000 mm 2,6 UV-I 267 W/m 13,1 C 16,1 km/h (3 Bft)
04.09.2016 13:03 22,0 C 22,1 C 58 % 1015,3 hPa 0,0 mm 10,6 km/h (2 Bft) W 265 0 min 0,000 mm 2,6 UV-I 267 W/m 13,3 C 17,7 km/h (3 Bft)
04.09.2016 13:04 21,9 C 22,0 C 57 % 1015,2 hPa 0,0 mm 4,1 km/h (1 Bft) W 279 0 min 0,000 mm 2,6 UV-I 274 W/m 13,0 C 6,4 km/h (2 Bft)
04.09.2016 13:05 21,9 C 21,9 C 60 % 1015,3 hPa 0,0 mm 8,0 km/h (2 Bft) W-SW 256 0 min 0,000 mm 2,6 UV-I 274 W/m 13,8 C 14,5 km/h (3 Bft)
04.09.2016 13:06 21,9 C 21,9 C 58 % 1015,3 hPa 0,0 mm 10,1 km/h (2 Bft) W-NW 291 0 min 0,000 mm 2,6 UV-I 274 W/m 13,3 C 14,5 km/h (3 Bft)
04.09.2016 13:07 21,9 C 21,9 C 58 % 1015,3 hPa 0,0 mm 8,3 km/h (2 Bft) W 271 0 min 0,000 mm 2,6 UV-I 271 W/m 13,3 C 12,9 km/h (3 Bft)
04.09.2016 13:08 21,8 C 21,9 C 59 % 1015,3 hPa 0,0 mm 7,4 km/h (2 Bft) W-NW 285 0 min 0,000 mm 2,5 UV-I 269 W/m 13,4 C 14,5 km/h (3 Bft)
04.09.2016 13:09 21,9 C 21,9 C 59 % 1015,3 hPa 0,0 mm 12,1 km/h (2 Bft) W 266 0 min 0,000 mm 2,5 UV-I 269 W/m 13,5 C 17,7 km/h (3 Bft)
04.09.2016 13:10 21,8 C 21,9 C 57 % 1015,2 hPa 0,0 mm 8,3 km/h (2 Bft) W-NW 282 0 min 0,000 mm 2,5 UV-I 272 W/m 12,9 C 14,5 km/h (3 Bft)
04.09.2016 13:11 21,8 C 21,8 C 59 % 1015,2 hPa 0,0 mm 5,0 km/h (1 Bft) N-NW 329 0 min 0,000 mm 2,6 UV-I 276 W/m 13,4 C 8,0 km/h (2 Bft)
04.09.2016 13:12 21,8 C 21,8 C 58 % 1015,2 hPa 0,0 mm 9,7 km/h (2 Bft) W-NW 293 0 min 0,000 mm 2,6 UV-I 278 W/m 13,2 C 14,5 km/h (3 Bft)
04.09.2016 13:13 21,8 C 21,8 C 59 % 1015,2 hPa 0,0 mm 11,1 km/h (2 Bft) W 276 0 min 0,000 mm 2,6 UV-I 278 W/m 13,4 C 12,9 km/h (3 Bft)
04.09.2016 13:14 21,8 C 21,8 C 59 % 1015,2 hPa 0,0 mm 9,1 km/h (2 Bft) W 275 0 min 0,000 mm 2,5 UV-I 276 W/m 13,4 C 11,3 km/h (2 Bft)
04.09.2016 13:15 21,8 C 21,8 C 58 % 1015,2 hPa 0,0 mm 9,7 km/h (2 Bft) W-SW 253 0 min 0,000 mm 2,5 UV-I 272 W/m 13,2 C 16,1 km/h (3 Bft)
04.09.2016 13:16 21,8 C 21,8 C 58 % 1015,1 hPa 0,0 mm 10,1 km/h (2 Bft) W-SW 244 0 min 0,000 mm 2,4 UV-I 265 W/m 13,2 C 17,7 km/h (3 Bft)
04.09.2016 13:17 21,8 C 21,8 C 60 % 1015,1 hPa 0,0 mm 10,8 km/h (2 Bft) W 275 0 min 0,000 mm 2,3 UV-I 258 W/m 13,7 C 16,1 km/h (3 Bft)
04.09.2016 13:18 21,7 C 21,8 C 59 % 1015,1 hPa 0,0 mm 7,5 km/h (2 Bft) W-NW 296 0 min 0,000 mm 2,2 UV-I 204 W/m 13,3 C 11,3 km/h (2 Bft)
04.09.2016 13:19 21,7 C 21,7 C 61 % 1015,1 hPa 0,0 mm 7,0 km/h (2 Bft) W 259 0 min 0,000 mm 2,2 UV-I 197 W/m 13,8 C 11,3 km/h (2 Bft)
04.09.2016 13:20 21,7 C 21,7 C 60 % 1015,0 hPa 0,0 mm 10,3 km/h (2 Bft) W-SW 250 0 min 0,000 mm 2,1 UV-I 229 W/m 13,6 C 16,1 km/h (3 Bft)
04.09.2016 13:21 21,7 C 21,7 C 60 % 1015,0 hPa 0,0 mm 8,2 km/h (2 Bft) W-SW 250 0 min 0,000 mm 2,0 UV-I 193 W/m 13,6 C 12,9 km/h (3 Bft)
04.09.2016 13:22 21,6 C 21,7 C 61 % 1015,0 hPa 0,0 mm 8,8 km/h (2 Bft) W 271 0 min 0,000 mm 2,0 UV-I 214 W/m 13,7 C 16,1 km/h (3 Bft)
04.09.2016 13:23 21,6 C 21,6 C 60 % 1015,0 hPa 0,0 mm 9,0 km/h (2 Bft) W 268 0 min 0,000 mm 2,0 UV-I 216 W/m 13,5 C 12,9 km/h (3 Bft)
04.09.2016 13:24 21,6 C 21,6 C 61 % 1015,1 hPa 0,0 mm 6,8 km/h (2 Bft) W-SW 257 0 min 0,000 mm 2,0 UV-I 216 W/m 13,7 C 12,9 km/h (3 Bft)
04.09.2016 13:25 21,5 C 21,6 C 61 % 1015,1 hPa 0,0 mm 9,3 km/h (2 Bft) W 261 0 min 0,000 mm 2,0 UV-I 218 W/m 13,7 C 14,5 km/h (3 Bft)
04.09.2016 13:26 21,4 C 21,5 C 62 % 1015,1 hPa 0,0 mm 4,4 km/h (1 Bft) NW 305 0 min 0,000 mm 2,0 UV-I 218 W/m 13,8 C 6,4 km/h (2 Bft)
04.09.2016 13:27 21,4 C 21,4 C 62 % 1015,1 hPa 0,0 mm 4,8 km/h (1 Bft) W 273 0 min 0,000 mm 2,0 UV-I 221 W/m 13,8 C 6,4 km/h (2 Bft)
04.09.2016 13:28 21,4 C 21,4 C 64 % 1015,2 hPa 0,0 mm 8,0 km/h (2 Bft) W-NW 289 0 min 0,000 mm 2,0 UV-I 223 W/m 14,3 C 16,1 km/h (3 Bft)
04.09.2016 13:29 21,4 C 21,4 C 63 % 1015,2 hPa 0,0 mm 7,6 km/h (2 Bft) W 262 0 min 0,000 mm 2,0 UV-I 225 W/m 14,1 C 12,9 km/h (3 Bft)
04.09.2016 13:30 21,4 C 21,4 C 63 % 1015,2 hPa 0,0 mm 4,6 km/h (1 Bft) W 271 0 min 0,000 mm 2,0 UV-I 225 W/m 14,1 C 6,4 km/h (2 Bft)
04.09.2016 13:31 21,4 C 21,4 C 62 % 1015,2 hPa 0,0 mm 7,0 km/h (2 Bft) W-SW 254 0 min 0,000 mm 2,0 UV-I 223 W/m 13,8 C 11,3 km/h (2 Bft)
04.09.2016 13:32 21,4 C 21,4 C 61 % 1015,2 hPa 0,0 mm 6,8 km/h (2 Bft) W 280 0 min 0,000 mm 2,0 UV-I 221 W/m 13,6 C 11,3 km/h (2 Bft)
04.09.2016 13:33 21,4 C 21,4 C 61 % 1015,2 hPa 0,0 mm 7,0 km/h (2 Bft) W 269 0 min 0,000 mm 2,0 UV-I 223 W/m 13,6 C 12,9 km/h (3 Bft)
04.09.2016 13:34 21,4 C 21,4 C 61 % 1015,2 hPa 0,0 mm 7,1 km/h (2 Bft) W-SW 244 0 min 0,000 mm 2,0 UV-I 227 W/m 13,6 C 12,9 km/h (3 Bft)
04.09.2016 13:35 21,4 C 21,4 C 60 % 1015,2 hPa 0,0 mm 8,4 km/h (2 Bft) W-SW 252 0 min 0,000 mm 2,1 UV-I 234 W/m 13,3 C 14,5 km/h (3 Bft)
04.09.2016 13:36 21,4 C 21,4 C 59 % 1015,2 hPa 0,0 mm 9,9 km/h (2 Bft) W-SW 249 0 min 0,000 mm 2,2 UV-I 239 W/m 13,0 C 12,9 km/h (3 Bft)
04.09.2016 13:37 21,3 C 21,4 C 61 % 1015,3 hPa 0,0 mm 7,0 km/h (2 Bft) W 277 0 min 0,000 mm 2,2 UV-I 246 W/m 13,5 C 12,9 km/h (3 Bft)
04.09.2016 13:38 21,3 C 21,4 C 60 % 1015,2 hPa 0,0 mm 14,0 km/h (3 Bft) W 263 0 min 0,000 mm 2,3 UV-I 250 W/m 13,2 C 16,1 km/h (3 Bft)
04.09.2016 13:39 21,4 C 21,4 C 59 % 1015,3 hPa 0,0 mm 9,9 km/h (2 Bft) W 267 0 min 0,000 mm 2,3 UV-I 257 W/m 13,0 C 14,5 km/h (3 Bft)
04.09.2016 13:40 21,4 C 21,4 C 60 % 1015,3 hPa 0,0 mm 10,4 km/h (2 Bft) W-NW 290 0 min 0,000 mm 2,4 UV-I 260 W/m 13,3 C 14,5 km/h (3 Bft)
04.09.2016 13:41 21,4 C 21,4 C 60 % 1015,3 hPa 0,0 mm 9,1 km/h (2 Bft) W-SW 254 0 min 0,000 mm 2,4 UV-I 264 W/m 13,3 C 17,7 km/h (3 Bft)
04.09.2016 13:42 21,4 C 21,4 C 60 % 1015,3 hPa 0,0 mm 8,9 km/h (2 Bft) W-NW 293 0 min 0,000 mm 2,5 UV-I 267 W/m 13,3 C 17,7 km/h (3 Bft)
04.09.2016 13:43 21,4 C 21,4 C 62 % 1015,3 hPa 0,0 mm 7,8 km/h (2 Bft) W-NW 288 0 min 0,000 mm 2,5 UV-I 272 W/m 13,8 C 14,5 km/h (3 Bft)
04.09.2016 13:44 21,4 C 21,4 C 61 % 1015,3 hPa 0,0 mm 7,2 km/h (2 Bft) W 272 0 min 0,000 mm 2,6 UV-I 281 W/m 13,6 C 11,3 km/h (2 Bft)
04.09.2016 13:45 21,4 C 21,4 C 61 % 1015,3 hPa 0,0 mm 7,7 km/h (2 Bft) W 275 0 min 0,000 mm 2,6 UV-I 297 W/m 13,6 C 12,9 km/h (3 Bft)
04.09.2016 13:46 21,4 C 21,4 C 62 % 1015,3 hPa 0,0 mm 10,7 km/h (2 Bft) W-NW 286 0 min 0,000 mm 2,8 UV-I 309 W/m 13,8 C 16,1 km/h (3 Bft)
04.09.2016 13:47 21,4 C 21,4 C 63 % 1015,2 hPa 0,0 mm 5,8 km/h (2 Bft) W-NW 292 0 min 0,000 mm 2,7 UV-I 295 W/m 14,1 C 9,7 km/h (2 Bft)
04.09.2016 13:48 21,4 C 21,4 C 62 % 1015,2 hPa 0,0 mm 8,4 km/h (2 Bft) W 262 0 min 0,000 mm 2,6 UV-I 288 W/m 13,8 C 14,5 km/h (3 Bft)
04.09.2016 13:49 21,4 C 21,5 C 62 % 1015,2 hPa 0,0 mm 6,5 km/h (2 Bft) W 277 0 min 0,000 mm 2,6 UV-I 283 W/m 13,8 C 11,3 km/h (2 Bft)
04.09.2016 13:50 21,4 C 21,5 C 61 % 1015,2 hPa 0,0 mm 7,6 km/h (2 Bft) W-SW 255 0 min 0,000 mm 2,5 UV-I 276 W/m 13,6 C 12,9 km/h (3 Bft)
04.09.2016 13:51 21,5 C 21,5 C 63 % 1015,2 hPa 0,0 mm 7,1 km/h (2 Bft) W-NW 291 0 min 0,000 mm 2,4 UV-I 250 W/m 14,2 C 11,3 km/h (2 Bft)
04.09.2016 13:52 21,5 C 21,5 C 61 % 1015,1 hPa 0,0 mm 8,8 km/h (2 Bft) SW 232 0 min 0,000 mm 2,1 UV-I 234 W/m 13,7 C 12,9 km/h (3 Bft)
04.09.2016 13:53 21,4 C 21,5 C 61 % 1015,2 hPa 0,0 mm 12,8 km/h (3 Bft) W-SW 258 0 min 0,000 mm 2,0 UV-I 220 W/m 13,6 C 16,1 km/h (3 Bft)
04.09.2016 13:54 21,4 C 21,4 C 60 % 1015,2 hPa 0,0 mm 10,4 km/h (2 Bft) NW 319 0 min 0,000 mm 1,9 UV-I 207 W/m 13,3 C 14,5 km/h (3 Bft)
04.09.2016 13:55 21,4 C 21,4 C 59 % 1015,2 hPa 0,0 mm 9,1 km/h (2 Bft) W 269 0 min 0,000 mm 1,9 UV-I 199 W/m 13,0 C 14,5 km/h (3 Bft)
04.09.2016 13:56 21,4 C 21,4 C 62 % 1015,2 hPa 0,0 mm 7,2 km/h (2 Bft) W-NW 294 0 min 0,000 mm 1,8 UV-I 193 W/m 13,8 C 11,3 km/h (2 Bft)
04.09.2016 13:57 21,3 C 21,4 C 61 % 1015,1 hPa 0,0 mm 7,0 km/h (2 Bft) W 266 0 min 0,000 mm 1,8 UV-I 188 W/m 13,5 C 12,9 km/h (3 Bft)
04.09.2016 13:58 21,3 C 21,3 C 62 % 1015,2 hPa 0,0 mm 6,6 km/h (2 Bft) W-NW 291 0 min 0,000 mm 1,7 UV-I 185 W/m 13,7 C 11,3 km/h (2 Bft)
04.09.2016 13:59 21,3 C 21,3 C 63 % 1015,2 hPa 0,0 mm 8,8 km/h (2 Bft) W 273 0 min 0,000 mm 1,7 UV-I 181 W/m 14,0 C 16,1 km/h (3 Bft)
04.09.2016 14:00 21,2 C 21,3 C 65 % 1015,2 hPa 0,0 mm 8,7 km/h (2 Bft) W-SW 241 0 min 0,000 mm 1,6 UV-I 176 W/m 14,4 C 16,1 km/h (3 Bft)
04.09.2016 14:01 21,1 C 21,2 C 61 % 1015,3 hPa 0,0 mm 4,7 km/h (1 Bft) W-NW 284 0 min 0,203 mm 1,6 UV-I 172 W/m 13,3 C 6,4 km/h (2 Bft)
04.09.2016 14:02 21,1 C 21,1 C 61 % 1015,2 hPa 0,0 mm 6,4 km/h (2 Bft) W 259 0 min 0,000 mm 1,6 UV-I 171 W/m 13,3 C 11,3 km/h (2 Bft)
04.09.2016 14:03 21,1 C 21,1 C 62 % 1015,3 hPa 0,0 mm 6,9 km/h (2 Bft) W 273 0 min 0,000 mm 1,6 UV-I 174 W/m 13,5 C 14,5 km/h (3 Bft)
04.09.2016 14:04 21,1 C 21,1 C 62 % 1015,2 hPa 0,0 mm 4,9 km/h (1 Bft) W-SW 238 0 min 0,000 mm 1,7 UV-I 179 W/m 13,5 C 9,7 km/h (2 Bft)
04.09.2016 14:05 21,1 C 21,1 C 63 % 1015,2 hPa 0,0 mm 6,8 km/h (2 Bft) W-SW 252 0 min 0,000 mm 1,7 UV-I 185 W/m 13,8 C 12,9 km/h (3 Bft)
04.09.2016 14:06 21,0 C 21,1 C 65 % 1015,2 hPa 0,0 mm 4,0 km/h (1 Bft) W-SW 240 0 min 0,000 mm 1,8 UV-I 190 W/m 14,2 C 8,0 km/h (2 Bft)
04.09.2016 14:07 20,9 C 21,0 C 67 % 1015,1 hPa 0,0 mm 7,5 km/h (2 Bft) W-SW 238 0 min 0,000 mm 1,8 UV-I 195 W/m 14,5 C 11,3 km/h (2 Bft)
04.09.2016 14:08 20,9 C 21,0 C 63 % 1015,2 hPa 0,0 mm 5,0 km/h (1 Bft) W 271 0 min 0,000 mm 1,8 UV-I 199 W/m 13,6 C 11,3 km/h (2 Bft)
04.09.2016 14:09 21,0 C 21,0 C 60 % 1015,2 hPa 0,0 mm 5,0 km/h (1 Bft) W 262 0 min 0,000 mm 1,8 UV-I 197 W/m 12,9 C 8,0 km/h (2 Bft)
04.09.2016 14:10 21,0 C 21,1 C 63 % 1015,2 hPa 0,0 mm 6,0 km/h (2 Bft) W 267 0 min 0,000 mm 1,8 UV-I 199 W/m 13,7 C 9,7 km/h (2 Bft)
04.09.2016 14:11 21,0 C 21,1 C 64 % 1015,2 hPa 0,0 mm 7,0 km/h (2 Bft) SW 217 0 min 0,000 mm 1,9 UV-I 200 W/m 13,9 C 11,3 km/h (2 Bft)
04.09.2016 14:12 21,1 C 21,1 C 65 % 1015,2 hPa 0,0 mm 3,1 km/h (1 Bft) S 188 0 min 0,000 mm 1,9 UV-I 204 W/m 14,3 C 6,4 km/h (2 Bft)
04.09.2016 14:13 21,0 C 21,1 C 67 % 1015,2 hPa 0,0 mm 4,1 km/h (1 Bft) SW 233 0 min 0,000 mm 1,9 UV-I 206 W/m 14,6 C 14,5 km/h (3 Bft)
04.09.2016 14:14 21,0 C 21,1 C 65 % 1015,2 hPa 0,0 mm 6,4 km/h (2 Bft) W 259 0 min 0,000 mm 2,0 UV-I 209 W/m 14,2 C 11,3 km/h (2 Bft)
04.09.2016 14:15 21,1 C 21,1 C 65 % 1015,2 hPa 0,0 mm 6,2 km/h (2 Bft) W-SW 242 0 min 0,000 mm 2,0 UV-I 220 W/m 14,3 C 11,3 km/h (2 Bft)
04.09.2016 14:16 21,1 C 21,1 C 67 % 1015,1 hPa 0,0 mm 5,1 km/h (1 Bft) W 261 0 min 0,000 mm 2,1 UV-I 225 W/m 14,7 C 8,0 km/h (2 Bft)
04.09.2016 14:17 21,1 C 21,1 C 61 % 1015,1 hPa 0,0 mm 2,5 km/h (1 Bft) SW 229 0 min 0,000 mm 2,1 UV-I 229 W/m 13,3 C 6,4 km/h (2 Bft)
04.09.2016 14:18 21,1 C 21,1 C 61 % 1015,2 hPa 0,0 mm 3,7 km/h (1 Bft) SW 225 0 min 0,000 mm 2,1 UV-I 230 W/m 13,3 C 6,4 km/h (2 Bft)
04.09.2016 14:19 21,2 C 21,2 C 62 % 1015,2 hPa 0,0 mm 4,4 km/h (1 Bft) SW 232 0 min 0,000 mm 2,1 UV-I 234 W/m 13,6 C 6,4 km/h (2 Bft)
04.09.2016 14:20 21,2 C 21,2 C 62 % 1015,2 hPa 0,0 mm 6,4 km/h (2 Bft) W-SW 237 0 min 0,000 mm 2,2 UV-I 243 W/m 13,6 C 14,5 km/h (3 Bft)
04.09.2016 14:21 21,2 C 21,2 C 62 % 1015,2 hPa 0,0 mm 5,9 km/h (2 Bft) W 259 0 min 0,000 mm 2,2 UV-I 246 W/m 13,6 C 16,1 km/h (3 Bft)
04.09.2016 14:22 21,2 C 21,2 C 62 % 1015,2 hPa 0,0 mm 9,5 km/h (2 Bft) SW 218 0 min 0,000 mm 2,3 UV-I 251 W/m 13,6 C 14,5 km/h (3 Bft)
04.09.2016 14:23 21,2 C 21,2 C 61 % 1015,2 hPa 0,0 mm 6,3 km/h (2 Bft) W 259 0 min 0,000 mm 2,3 UV-I 253 W/m 13,4 C 14,5 km/h (3 Bft)
04.09.2016 14:24 21,2 C 21,2 C 63 % 1015,2 hPa 0,0 mm 8,7 km/h (2 Bft) W 268 0 min 0,000 mm 2,3 UV-I 257 W/m 13,9 C 14,5 km/h (3 Bft)
04.09.2016 14:25 21,3 C 21,3 C 62 % 1015,2 hPa 0,0 mm 4,4 km/h (1 Bft) SW 236 0 min 0,000 mm 2,3 UV-I 258 W/m 13,7 C 6,4 km/h (2 Bft)
04.09.2016 14:26 21,3 C 21,3 C 64 % 1015,2 hPa 0,0 mm 4,1 km/h (1 Bft) W-NW 284 0 min 0,000 mm 2,4 UV-I 265 W/m 14,2 C 9,7 km/h (2 Bft)
04.09.2016 14:27 21,2 C 21,3 C 61 % 1015,2 hPa 0,0 mm 5,8 km/h (2 Bft) W 260 0 min 0,000 mm 2,4 UV-I 272 W/m 13,4 C 11,3 km/h (2 Bft)
04.09.2016 14:28 21,3 C 21,3 C 65 % 1015,2 hPa 0,0 mm 2,8 km/h (1 Bft) W-SW 244 0 min 0,000 mm 2,4 UV-I 274 W/m 14,4 C 4,8 km/h (1 Bft)
04.09.2016 14:29 21,3 C 21,3 C 64 % 1015,2 hPa 0,0 mm 0,6 km/h (0 Bft) W-SW 244 0 min 0,000 mm 2,4 UV-I 271 W/m 14,2 C 1,6 km/h (1 Bft)
04.09.2016 14:30 21,3 C 21,3 C 65 % 1015,2 hPa 0,0 mm 1,6 km/h (1 Bft) W 269 0 min 0,000 mm 2,4 UV-I 267 W/m 14,4 C 4,8 km/h (1 Bft)
04.09.2016 14:31 21,4 C 21,4 C 65 % 1015,2 hPa 0,0 mm 5,8 km/h (2 Bft) W-SW 242 0 min 0,000 mm 2,3 UV-I 265 W/m 14,5 C 8,0 km/h (2 Bft)
04.09.2016 14:32 21,4 C 21,4 C 65 % 1015,2 hPa 0,0 mm 3,0 km/h (1 Bft) S-SW 208 0 min 0,000 mm 2,3 UV-I 265 W/m 14,5 C 4,8 km/h (1 Bft)
04.09.2016 14:33 21,4 C 21,4 C 65 % 1015,2 hPa 0,0 mm 5,3 km/h (1 Bft) W 259 0 min 0,000 mm 2,3 UV-I 265 W/m 14,5 C 9,7 km/h (2 Bft)
04.09.2016 14:34 21,4 C 21,4 C 62 % 1015,2 hPa 0,0 mm 4,7 km/h (1 Bft) W 266 0 min 0,000 mm 2,3 UV-I 269 W/m 13,8 C 8,0 km/h (2 Bft)
04.09.2016 14:35 21,5 C 21,5 C 62 % 1015,2 hPa 0,0 mm 4,8 km/h (1 Bft) W 265 0 min 0,000 mm 2,4 UV-I 281 W/m 13,9 C 9,7 km/h (2 Bft)
04.09.2016 14:36 21,4 C 21,5 C 63 % 1015,1 hPa 0,0 mm 5,2 km/h (1 Bft) W 259 0 min 0,000 mm 2,4 UV-I 276 W/m 14,1 C 9,7 km/h (2 Bft)
04.09.2016 14:37 21,4 C 21,5 C 62 % 1015,1 hPa 0,0 mm 4,0 km/h (1 Bft) W-SW 242 0 min 0,000 mm 2,3 UV-I 265 W/m 13,8 C 6,4 km/h (2 Bft)
04.09.2016 14:38 21,4 C 21,5 C 63 % 1015,0 hPa 0,0 mm 5,7 km/h (1 Bft) W 276 0 min 0,000 mm 2,1 UV-I 230 W/m 14,1 C 11,3 km/h (2 Bft)
04.09.2016 14:39 21,4 C 21,4 C 60 % 1015,0 hPa 0,0 mm 1,7 km/h (1 Bft) S 188 0 min 0,000 mm 1,9 UV-I 216 W/m 13,3 C 4,8 km/h (1 Bft)
04.09.2016 14:40 21,4 C 21,4 C 62 % 1015,0 hPa 0,0 mm 3,0 km/h (1 Bft) S 188 0 min 0,000 mm 1,8 UV-I 204 W/m 13,8 C 4,8 km/h (1 Bft)
04.09.2016 14:41 21,4 C 21,4 C 59 % 1015,0 hPa 0,0 mm 4,3 km/h (1 Bft) W-SW 252 0 min 0,000 mm 1,7 UV-I 195 W/m 13,0 C 6,4 km/h (2 Bft)
04.09.2016 14:42 21,4 C 21,4 C 64 % 1015,0 hPa 0,0 mm 5,6 km/h (1 Bft) W-NW 285 0 min 0,000 mm 1,7 UV-I 190 W/m 14,3 C 11,3 km/h (2 Bft)
04.09.2016 14:43 21,3 C 21,4 C 60 % 1015,0 hPa 0,0 mm 7,8 km/h (2 Bft) W-NW 300 0 min 0,000 mm 1,6 UV-I 186 W/m 13,2 C 12,9 km/h (3 Bft)
04.09.2016 14:44 21,3 C 21,3 C 62 % 1015,0 hPa 0,0 mm 4,4 km/h (1 Bft) S-SW 192 0 min 0,000 mm 1,6 UV-I 181 W/m 13,7 C 8,0 km/h (2 Bft)
04.09.2016 14:45 21,2 C 21,3 C 61 % 1015,0 hPa 0,0 mm 3,0 km/h (1 Bft) W-SW 248 0 min 0,000 mm 1,6 UV-I 178 W/m 13,4 C 4,8 km/h (1 Bft)
04.09.2016 14:46 21,2 C 21,2 C 61 % 1015,0 hPa 0,0 mm 2,2 km/h (1 Bft) SW 227 0 min 0,000 mm 1,6 UV-I 174 W/m 13,4 C 4,8 km/h (1 Bft)
04.09.2016 14:47 21,2 C 21,2 C 64 % 1015,0 hPa 0,0 mm 1,8 km/h (1 Bft) W-SW 242 0 min 0,000 mm 1,5 UV-I 171 W/m 14,1 C 3,2 km/h (1 Bft)
04.09.2016 14:48 21,1 C 21,2 C 63 % 1015,0 hPa 0,0 mm 6,0 km/h (2 Bft) W 260 0 min 0,000 mm 1,5 UV-I 167 W/m 13,8 C 12,9 km/h (3 Bft)
04.09.2016 14:49 21,1 C 21,1 C 62 % 1014,9 hPa 0,0 mm 8,6 km/h (2 Bft) W 266 0 min 0,000 mm 1,5 UV-I 165 W/m 13,5 C 11,3 km/h (2 Bft)
04.09.2016 14:50 21,0 C 21,1 C 63 % 1014,9 hPa 0,0 mm 5,9 km/h (2 Bft) W-SW 243 0 min 0,000 mm 1,5 UV-I 165 W/m 13,7 C 8,0 km/h (2 Bft)
04.09.2016 14:51 21,0 C 21,0 C 67 % 1014,9 hPa 0,0 mm 2,1 km/h (1 Bft) SW 236 0 min 0,000 mm 1,5 UV-I 167 W/m 14,6 C 4,8 km/h (1 Bft)
04.09.2016 14:52 20,9 C 21,0 C 67 % 1014,9 hPa 0,0 mm 4,6 km/h (1 Bft) W-SW 239 0 min 0,000 mm 1,5 UV-I 169 W/m 14,5 C 9,7 km/h (2 Bft)
04.09.2016 14:53 20,9 C 20,9 C 67 % 1014,9 hPa 0,0 mm 5,2 km/h (1 Bft) W 267 0 min 0,000 mm 1,5 UV-I 172 W/m 14,5 C 9,7 km/h (2 Bft)
04.09.2016 14:54 20,9 C 20,9 C 63 % 1014,9 hPa 0,0 mm 4,1 km/h (1 Bft) S-SW 213 0 min 0,000 mm 1,6 UV-I 178 W/m 13,6 C 8,0 km/h (2 Bft)
04.09.2016 14:55 20,9 C 20,9 C 61 % 1014,8 hPa 0,0 mm 2,3 km/h (1 Bft) S 174 0 min 0,000 mm 1,7 UV-I 192 W/m 13,1 C 6,4 km/h (2 Bft)
04.09.2016 14:56 21,0 C 21,0 C 60 % 1014,9 hPa 0,0 mm 3,6 km/h (1 Bft) S 177 0 min 0,000 mm 1,7 UV-I 197 W/m 12,9 C 6,4 km/h (2 Bft)
04.09.2016 14:57 21,1 C 21,1 C 62 % 1014,9 hPa 0,0 mm 5,6 km/h (1 Bft) W 267 0 min 0,000 mm 1,8 UV-I 204 W/m 13,5 C 9,7 km/h (2 Bft)
04.09.2016 14:58 21,1 C 21,1 C 63 % 1014,8 hPa 0,0 mm 4,0 km/h (1 Bft) W 275 0 min 0,000 mm 1,9 UV-I 209 W/m 13,8 C 6,4 km/h (2 Bft)
04.09.2016 14:59 21,1 C 21,1 C 61 % 1014,8 hPa 0,0 mm 3,1 km/h (1 Bft) W 267 0 min 0,000 mm 1,9 UV-I 214 W/m 13,3 C 4,8 km/h (1 Bft)
04.09.2016 15:00 21,1 C 21,1 C 66 % 1014,8 hPa 0,0 mm 3,0 km/h (1 Bft) W 265 0 min 0,000 mm 1,9 UV-I 218 W/m 14,5 C 4,8 km/h (1 Bft)
04.09.2016 15:01 21,1 C 21,1 C 63 % 1014,8 hPa 0,0 mm 2,3 km/h (1 Bft) W-SW 249 0 min 0,152 mm 2,0 UV-I 220 W/m 13,8 C 4,8 km/h (1 Bft)
04.09.2016 15:02 21,1 C 21,1 C 62 % 1014,8 hPa 0,0 mm 1,5 km/h (1 Bft) S 171 0 min 0,001 mm 2,0 UV-I 220 W/m 13,5 C 4,8 km/h (1 Bft)
04.09.2016 15:03 21,2 C 21,2 C 60 % 1014,8 hPa 0,0 mm 1,4 km/h (1 Bft) S 173 0 min 0,000 mm 2,0 UV-I 218 W/m 13,1 C 3,2 km/h (1 Bft)
04.09.2016 15:04 21,2 C 21,2 C 62 % 1014,8 hPa 0,0 mm 2,7 km/h (1 Bft) W-SW 238 0 min 0,000 mm 1,9 UV-I 218 W/m 13,6 C 8,0 km/h (2 Bft)
04.09.2016 15:05 21,2 C 21,2 C 61 % 1014,7 hPa 0,0 mm 5,0 km/h (1 Bft) W-SW 253 0 min 0,000 mm 1,9 UV-I 207 W/m 13,4 C 8,0 km/h (2 Bft)
04.09.2016 15:06 21,2 C 21,2 C 67 % 1014,7 hPa 0,0 mm 0,5 km/h (0 Bft) W-SW 253 0 min 0,000 mm 1,9 UV-I 206 W/m 14,8 C 3,2 km/h (1 Bft)
04.09.2016 15:07 21,2 C 21,2 C 61 % 1014,7 hPa 0,0 mm 1,1 km/h (1 Bft) W-SW 253 0 min 0,000 mm 1,9 UV-I 209 W/m 13,4 C 1,6 km/h (1 Bft)
04.09.2016 15:08 21,1 C 21,2 C 68 % 1014,7 hPa 0,0 mm 0,2 km/h (0 Bft) W-SW 253 0 min 0,000 mm 1,9 UV-I 213 W/m 15,0 C 3,2 km/h (1 Bft)
04.09.2016 15:09 21,1 C 21,1 C 67 % 1014,6 hPa 0,0 mm 3,3 km/h (1 Bft) W 262 0 min 0,000 mm 2,0 UV-I 220 W/m 14,7 C 4,8 km/h (1 Bft)
04.09.2016 15:10 21,1 C 21,1 C 64 % 1014,6 hPa 0,0 mm 1,9 km/h (1 Bft) S-SW 209 0 min 0,000 mm 2,0 UV-I 227 W/m 14,0 C 6,4 km/h (2 Bft)
04.09.2016 15:11 21,1 C 21,1 C 62 % 1014,6 hPa 0,0 mm 1,4 km/h (1 Bft) S 171 0 min 0,000 mm 2,1 UV-I 227 W/m 13,5 C 3,2 km/h (1 Bft)
04.09.2016 15:12 21,2 C 21,2 C 65 % 1014,6 hPa 0,0 mm 4,2 km/h (1 Bft) W-SW 258 0 min 0,000 mm 2,2 UV-I 257 W/m 14,4 C 11,3 km/h (2 Bft)
04.09.2016 15:13 21,2 C 21,2 C 63 % 1014,7 hPa 0,0 mm 6,2 km/h (2 Bft) W 259 0 min 0,000 mm 2,2 UV-I 260 W/m 13,9 C 9,7 km/h (2 Bft)
04.09.2016 15:14 21,2 C 21,2 C 63 % 1014,6 hPa 0,0 mm 3,4 km/h (1 Bft) W-SW 258 0 min 0,000 mm 2,3 UV-I 262 W/m 13,9 C 4,8 km/h (1 Bft)
04.09.2016 15:15 21,2 C 21,2 C 67 % 1014,6 hPa 0,0 mm 2,7 km/h (1 Bft) W-SW 245 0 min 0,000 mm 2,2 UV-I 258 W/m 14,8 C 3,2 km/h (1 Bft)
04.09.2016 15:16 21,2 C 21,2 C 69 % 1014,6 hPa 0,0 mm 3,8 km/h (1 Bft) W 268 0 min 0,000 mm 2,2 UV-I 258 W/m 15,3 C 6,4 km/h (2 Bft)
04.09.2016 15:17 21,3 C 21,3 C 63 % 1014,6 hPa 0,0 mm 3,5 km/h (1 Bft) W-SW 247 0 min 0,000 mm 2,2 UV-I 253 W/m 14,0 C 4,8 km/h (1 Bft)
04.09.2016 15:18 21,3 C 21,3 C 63 % 1014,6 hPa 0,0 mm 1,9 km/h (1 Bft) S 178 0 min 0,000 mm 2,2 UV-I 244 W/m 14,0 C 3,2 km/h (1 Bft)
04.09.2016 15:19 21,4 C 21,4 C 67 % 1014,6 hPa 0,0 mm 1,0 km/h (0 Bft) S 178 0 min 0,000 mm 2,1 UV-I 225 W/m 15,0 C 1,6 km/h (1 Bft)
04.09.2016 15:20 21,4 C 21,4 C 64 % 1014,6 hPa 0,0 mm 0,9 km/h (0 Bft) S 178 0 min 0,000 mm 1,9 UV-I 216 W/m 14,3 C 3,2 km/h (1 Bft)
04.09.2016 15:21 21,4 C 21,4 C 64 % 1014,6 hPa 0,0 mm 2,7 km/h (1 Bft) SW 234 0 min 0,000 mm 1,9 UV-I 211 W/m 14,3 C 4,8 km/h (1 Bft)
04.09.2016 15:22 21,5 C 21,5 C 66 % 1014,5 hPa 0,0 mm 0,8 km/h (0 Bft) SW 234 0 min 0,000 mm 1,8 UV-I 209 W/m 14,9 C 3,2 km/h (1 Bft)
04.09.2016 15:23 21,4 C 21,5 C 65 % 1014,5 hPa 0,0 mm 1,1 km/h (1 Bft) SW 234 0 min 0,000 mm 1,8 UV-I 209 W/m 14,5 C 3,2 km/h (1 Bft)
04.09.2016 15:24 21,4 C 21,4 C 67 % 1014,6 hPa 0,0 mm 1,1 km/h (1 Bft) W-SW 244 0 min 0,000 mm 1,8 UV-I 207 W/m 15,0 C 3,2 km/h (1 Bft)
04.09.2016 15:25 21,3 C 21,4 C 62 % 1014,5 hPa 0,0 mm 3,4 km/h (1 Bft) W-SW 252 0 min 0,000 mm 1,8 UV-I 207 W/m 13,7 C 6,4 km/h (2 Bft)
04.09.2016 15:26 21,3 C 21,3 C 63 % 1014,5 hPa 0,0 mm 2,8 km/h (1 Bft) W 259 0 min 0,000 mm 1,8 UV-I 207 W/m 14,0 C 6,4 km/h (2 Bft)
04.09.2016 15:27 21,3 C 21,4 C 60 % 1014,5 hPa 0,0 mm 4,0 km/h (1 Bft) W-SW 257 0 min 0,000 mm 1,8 UV-I 211 W/m 13,2 C 6,4 km/h (2 Bft)
04.09.2016 15:28 21,3 C 21,4 C 63 % 1014,5 hPa 0,0 mm 3,6 km/h (1 Bft) W 266 0 min 0,000 mm 1,8 UV-I 213 W/m 14,0 C 4,8 km/h (1 Bft)
04.09.2016 15:29 21,3 C 21,4 C 61 % 1014,5 hPa 0,0 mm 3,0 km/h (1 Bft) W 265 0 min 0,000 mm 1,8 UV-I 213 W/m 13,5 C 4,8 km/h (1 Bft)
04.09.2016 15:30 21,3 C 21,4 C 62 % 1014,4 hPa 0,0 mm 2,2 km/h (1 Bft) W 261 0 min 0,000 mm 1,8 UV-I 211 W/m 13,7 C 3,2 km/h (1 Bft)
04.09.2016 15:31 21,3 C 21,4 C 65 % 1014,4 hPa 0,0 mm 0,6 km/h (0 Bft) W 261 0 min 0,000 mm 1,8 UV-I 218 W/m 14,4 C 1,6 km/h (1 Bft)
04.09.2016 15:32 21,3 C 21,4 C 62 % 1014,4 hPa 0,0 mm 1,0 km/h (0 Bft) S-SW 196 0 min 0,000 mm 1,9 UV-I 225 W/m 13,7 C 1,6 km/h (1 Bft)
04.09.2016 15:33 21,3 C 21,4 C 62 % 1014,4 hPa 0,0 mm 2,4 km/h (1 Bft) S-SW 196 0 min 0,000 mm 1,9 UV-I 227 W/m 13,7 C 4,8 km/h (1 Bft)
04.09.2016 15:34 21,3 C 21,4 C 57 % 1014,4 hPa 0,0 mm 2,3 km/h (1 Bft) S-SW 211 0 min 0,000 mm 1,9 UV-I 227 W/m 12,4 C 4,8 km/h (1 Bft)
04.09.2016 15:35 21,4 C 21,4 C 59 % 1014,3 hPa 0,0 mm 1,1 km/h (1 Bft) S-SW 211 0 min 0,000 mm 1,9 UV-I 225 W/m 13,0 C 1,6 km/h (1 Bft)
04.09.2016 15:36 21,4 C 21,4 C 62 % 1014,3 hPa 0,0 mm 1,3 km/h (1 Bft) S-SW 211 0 min 0,000 mm 1,8 UV-I 211 W/m 13,8 C 1,6 km/h (1 Bft)
04.09.2016 15:37 21,4 C 21,4 C 59 % 1014,3 hPa 0,0 mm 1,1 km/h (1 Bft) S-SW 212 0 min 0,000 mm 1,7 UV-I 199 W/m 13,0 C 3,2 km/h (1 Bft)
04.09.2016 15:38 21,4 C 21,4 C 60 % 1014,3 hPa 0,0 mm 1,9 km/h (1 Bft) S-SW 207 0 min 0,000 mm 1,6 UV-I 190 W/m 13,3 C 3,2 km/h (1 Bft)
04.09.2016 15:39 21,4 C 21,4 C 58 % 1014,3 hPa 0,0 mm 1,7 km/h (1 Bft) S-SW 207 0 min 0,000 mm 1,5 UV-I 186 W/m 12,8 C 3,2 km/h (1 Bft)
04.09.2016 15:40 21,3 C 21,4 C 63 % 1014,3 hPa 0,0 mm 0,9 km/h (0 Bft) S-SW 207 0 min 0,000 mm 1,5 UV-I 179 W/m 14,0 C 3,2 km/h (1 Bft)
04.09.2016 15:41 21,2 C 21,3 C 68 % 1014,3 hPa 0,0 mm 0,5 km/h (0 Bft) S-SW 207 0 min 0,000 mm 1,5 UV-I 176 W/m 15,1 C 1,6 km/h (1 Bft)
04.09.2016 15:42 21,0 C 21,2 C 68 % 1014,3 hPa 0,0 mm 0,1 km/h (0 Bft) S-SW 207 0 min 0,000 mm 1,5 UV-I 172 W/m 14,9 C 1,6 km/h (1 Bft)
04.09.2016 15:43 20,8 C 21,0 C 71 % 1014,3 hPa 0,0 mm 1,0 km/h (0 Bft) SW 214 0 min 0,000 mm 1,5 UV-I 171 W/m 15,3 C 1,6 km/h (1 Bft)
04.09.2016 15:44 20,8 C 20,8 C 71 % 1014,3 hPa 0,0 mm 2,7 km/h (1 Bft) W-SW 252 0 min 0,000 mm 1,4 UV-I 171 W/m 15,3 C 4,8 km/h (1 Bft)
04.09.2016 15:45 20,7 C 20,8 C 69 % 1014,2 hPa 0,0 mm 1,3 km/h (1 Bft) W-SW 252 0 min 0,000 mm 1,4 UV-I 171 W/m 14,8 C 3,2 km/h (1 Bft)
04.09.2016 15:46 20,7 C 20,7 C 65 % 1014,2 hPa 0,0 mm 0,4 km/h (0 Bft) W-SW 252 0 min 0,000 mm 1,4 UV-I 171 W/m 13,9 C 1,6 km/h (1 Bft)
04.09.2016 15:47 20,6 C 20,7 C 69 % 1014,2 hPa 0,0 mm 0,0 km/h (0 Bft) W-SW 252 0 min 0,000 mm 1,4 UV-I 171 W/m 14,7 C 0,0 km/h (0 Bft)
04.09.2016 15:48 20,6 C 20,6 C 73 % 1014,2 hPa 0,0 mm 0,0 km/h (0 Bft) W-SW 252 0 min 0,000 mm 1,4 UV-I 169 W/m 15,6 C 0,0 km/h (0 Bft)
04.09.2016 15:49 20,4 C 20,6 C 68 % 1014,2 hPa 0,0 mm 1,0 km/h (0 Bft) W-SW 251 0 min 0,000 mm 1,3 UV-I 165 W/m 14,3 C 1,6 km/h (1 Bft)
04.09.2016 15:50 20,3 C 20,4 C 67 % 1014,2 hPa 0,0 mm 0,6 km/h (0 Bft) W-SW 251 0 min 0,000 mm 1,3 UV-I 162 W/m 14,0 C 3,2 km/h (1 Bft)
04.09.2016 15:51 20,3 C 20,3 C 65 % 1014,2 hPa 0,0 mm 1,1 km/h (1 Bft) W-SW 251 0 min 0,000 mm 1,3 UV-I 162 W/m 13,5 C 3,2 km/h (1 Bft)
04.09.2016 15:52 20,3 C 20,3 C 68 % 1014,2 hPa 0,0 mm 0,1 km/h (0 Bft) W-SW 251 0 min 0,000 mm 1,3 UV-I 162 W/m 14,2 C 1,6 km/h (1 Bft)
04.09.2016 15:53 20,4 C 20,4 C 68 % 1014,2 hPa 0,0 mm 0,4 km/h (0 Bft) W-SW 251 0 min 0,000 mm 1,3 UV-I 162 W/m 14,3 C 1,6 km/h (1 Bft)
04.09.2016 15:54 20,3 C 20,4 C 69 % 1014,1 hPa 0,0 mm 0,7 km/h (0 Bft) W-SW 251 0 min 0,000 mm 1,3 UV-I 167 W/m 14,4 C 1,6 km/h (1 Bft)
04.09.2016 15:55 20,4 C 20,4 C 69 % 1014,2 hPa 0,0 mm 1,2 km/h (1 Bft) W-SW 251 0 min 0,000 mm 1,3 UV-I 167 W/m 14,5 C 3,2 km/h (1 Bft)
04.09.2016 15:56 20,5 C 20,5 C 63 % 1014,1 hPa 0,0 mm 0,9 km/h (0 Bft) W-SW 251 0 min 0,000 mm 1,3 UV-I 169 W/m 13,2 C 1,6 km/h (1 Bft)
04.09.2016 15:57 20,7 C 20,7 C 60 % 1014,1 hPa 0,0 mm 0,5 km/h (0 Bft) W-SW 251 0 min 0,000 mm 1,3 UV-I 169 W/m 12,7 C 1,6 km/h (1 Bft)
04.09.2016 15:58 20,8 C 20,8 C 60 % 1014,1 hPa 0,0 mm 0,1 km/h (0 Bft) W-SW 251 0 min 0,000 mm 1,3 UV-I 169 W/m 12,7 C 1,6 km/h (1 Bft)
04.09.2016 15:59 20,8 C 20,8 C 68 % 1014,1 hPa 0,0 mm 0,4 km/h (0 Bft) W-SW 251 0 min 0,000 mm 1,4 UV-I 171 W/m 14,7 C 1,6 km/h (1 Bft)
04.09.2016 16:00 20,8 C 20,8 C 64 % 1014,1 hPa 0,0 mm 0,6 km/h (0 Bft) W-SW 251 0 min 0,000 mm 1,4 UV-I 172 W/m 13,7 C 1,6 km/h (1 Bft)
04.09.2016 16:01 20,9 C 20,9 C 62 % 1014,1 hPa 0,0 mm 1,3 km/h (1 Bft) W-SW 251 0 min 0,127 mm 1,4 UV-I 176 W/m 13,3 C 1,6 km/h (1 Bft)
04.09.2016 16:02 20,9 C 20,9 C 64 % 1014,1 hPa 0,0 mm 0,1 km/h (0 Bft) W-SW 251 0 min 0,000 mm 1,5 UV-I 179 W/m 13,8 C 1,6 km/h (1 Bft)
04.09.2016 16:03 20,9 C 20,9 C 65 % 1014,1 hPa 0,0 mm 1,3 km/h (1 Bft) S-SW 206 0 min 0,000 mm 1,5 UV-I 188 W/m 14,1 C 3,2 km/h (1 Bft)
04.09.2016 16:04 21,0 C 21,0 C 61 % 1014,1 hPa 0,0 mm 0,2 km/h (0 Bft) S-SW 206 0 min 0,000 mm 1,6 UV-I 188 W/m 13,2 C 1,6 km/h (1 Bft)
04.09.2016 16:05 20,9 C 21,0 C 67 % 1014,0 hPa 0,0 mm 0,5 km/h (0 Bft) S-SW 206 0 min 0,000 mm 1,6 UV-I 204 W/m 14,5 C 1,6 km/h (1 Bft)
04.09.2016 16:06 20,9 C 20,9 C 65 % 1014,0 hPa 0,0 mm 0,4 km/h (0 Bft) S-SW 206 0 min 0,000 mm 1,7 UV-I 214 W/m 14,1 C 1,6 km/h (1 Bft)
04.09.2016 16:07 20,9 C 20,9 C 66 % 1014,0 hPa 0,0 mm 0,1 km/h (0 Bft) S-SW 206 0 min 0,000 mm 1,7 UV-I 218 W/m 14,3 C 1,6 km/h (1 Bft)
04.09.2016 16:08 20,8 C 20,9 C 72 % 1014,0 hPa 0,0 mm 0,0 km/h (0 Bft) S-SW 207 0 min 0,000 mm 1,8 UV-I 220 W/m 15,6 C 0,0 km/h (0 Bft)
04.09.2016 16:09 20,8 C 20,8 C 69 % 1014,0 hPa 0,0 mm 1,3 km/h (1 Bft) W 281 0 min 0,000 mm 1,8 UV-I 220 W/m 14,9 C 3,2 km/h (1 Bft)
04.09.2016 16:10 20,8 C 20,8 C 71 % 1014,0 hPa 0,0 mm 0,1 km/h (0 Bft) W 281 0 min 0,000 mm 1,7 UV-I 216 W/m 15,3 C 1,6 km/h (1 Bft)
04.09.2016 16:11 20,8 C 20,8 C 72 % 1014,0 hPa 0,0 mm 0,3 km/h (0 Bft) W 281 0 min 0,000 mm 1,7 UV-I 211 W/m 15,6 C 1,6 km/h (1 Bft)
04.09.2016 16:12 20,8 C 20,8 C 69 % 1013,9 hPa 0,0 mm 0,0 km/h (0 Bft) W 281 0 min 0,000 mm 1,7 UV-I 202 W/m 14,9 C 0,0 km/h (0 Bft)
04.09.2016 16:13 20,9 C 20,9 C 64 % 1013,9 hPa 0,0 mm 1,1 km/h (1 Bft) W 280 0 min 0,000 mm 1,6 UV-I 197 W/m 13,8 C 3,2 km/h (1 Bft)
04.09.2016 16:14 21,1 C 21,1 C 60 % 1013,9 hPa 0,0 mm 2,7 km/h (1 Bft) W-SW 237 0 min 0,000 mm 1,6 UV-I 192 W/m 13,0 C 4,8 km/h (1 Bft)
04.09.2016 16:15 21,2 C 21,2 C 65 % 1013,9 hPa 0,0 mm 3,1 km/h (1 Bft) W 263 0 min 0,000 mm 1,5 UV-I 188 W/m 14,4 C 4,8 km/h (1 Bft)
04.09.2016 16:16 21,2 C 21,2 C 57 % 1013,9 hPa 0,0 mm 0,6 km/h (0 Bft) S-SW 192 0 min 0,000 mm 1,5 UV-I 183 W/m 12,3 C 3,2 km/h (1 Bft)
04.09.2016 16:17 21,3 C 21,3 C 59 % 1013,9 hPa 0,0 mm 0,5 km/h (0 Bft) S-SW 192 0 min 0,000 mm 1,4 UV-I 178 W/m 13,0 C 1,6 km/h (1 Bft)
04.09.2016 16:18 21,3 C 21,3 C 59 % 1013,9 hPa 0,0 mm 0,1 km/h (0 Bft) S-SW 192 0 min 0,000 mm 1,4 UV-I 169 W/m 13,0 C 1,6 km/h (1 Bft)
04.09.2016 16:19 21,3 C 21,3 C 58 % 1013,9 hPa 0,0 mm 1,3 km/h (1 Bft) SW 227 0 min 0,000 mm 1,3 UV-I 167 W/m 12,7 C 6,4 km/h (2 Bft)
04.09.2016 16:20 21,3 C 21,3 C 65 % 1013,9 hPa 0,0 mm 3,2 km/h (1 Bft) SW 232 0 min 0,000 mm 1,3 UV-I 167 W/m 14,4 C 6,4 km/h (2 Bft)
04.09.2016 16:21 21,3 C 21,3 C 58 % 1013,9 hPa 0,0 mm 2,9 km/h (1 Bft) S 188 0 min 0,000 mm 1,3 UV-I 167 W/m 12,7 C 4,8 km/h (1 Bft)
04.09.2016 16:22 21,1 C 21,3 C 66 % 1013,9 hPa 0,0 mm 0,7 km/h (0 Bft) S 188 0 min 0,000 mm 1,4 UV-I 169 W/m 14,5 C 3,2 km/h (1 Bft)
04.09.2016 16:23 21,0 C 21,1 C 66 % 1013,9 hPa 0,0 mm 0,4 km/h (0 Bft) S 188 0 min 0,000 mm 1,4 UV-I 172 W/m 14,4 C 1,6 km/h (1 Bft)
04.09.2016 16:24 21,0 C 21,0 C 63 % 1013,8 hPa 0,0 mm 1,3 km/h (1 Bft) S 188 0 min 0,000 mm 1,4 UV-I 176 W/m 13,7 C 1,6 km/h (1 Bft)
04.09.2016 16:25 20,9 C 21,0 C 65 % 1013,9 hPa 0,0 mm 0,9 km/h (0 Bft) S 188 0 min 0,000 mm 1,4 UV-I 174 W/m 14,1 C 1,6 km/h (1 Bft)
04.09.2016 16:26 20,8 C 20,9 C 64 % 1013,9 hPa 0,0 mm 1,3 km/h (1 Bft) S 188 0 min 0,000 mm 1,3 UV-I 171 W/m 13,7 C 1,6 km/h (1 Bft)
04.09.2016 16:27 20,7 C 20,8 C 64 % 1013,9 hPa 0,0 mm 0,2 km/h (0 Bft) S 188 0 min 0,000 mm 1,3 UV-I 171 W/m 13,6 C 1,6 km/h (1 Bft)
04.09.2016 16:28 20,6 C 20,7 C 65 % 1013,9 hPa 0,0 mm 2,1 km/h (1 Bft) S 188 0 min 0,000 mm 1,3 UV-I 171 W/m 13,8 C 3,2 km/h (1 Bft)
04.09.2016 16:29 20,6 C 20,6 C 61 % 1013,9 hPa 0,0 mm 1,8 km/h (1 Bft) S-SW 200 0 min 0,000 mm 1,3 UV-I 176 W/m 12,8 C 3,2 km/h (1 Bft)
04.09.2016 16:30 20,7 C 20,7 C 60 % 1013,8 hPa 0,0 mm 0,3 km/h (0 Bft) S-SW 200 0 min 0,000 mm 1,4 UV-I 183 W/m 12,7 C 1,6 km/h (1 Bft)
04.09.2016 16:31 20,8 C 20,8 C 64 % 1013,8 hPa 0,0 mm 1,1 km/h (1 Bft) S-SW 200 0 min 0,000 mm 1,5 UV-I 186 W/m 13,7 C 3,2 km/h (1 Bft)
04.09.2016 16:32 20,8 C 20,8 C 62 % 1013,8 hPa 0,0 mm 1,1 km/h (1 Bft) S-SW 208 0 min 0,000 mm 1,5 UV-I 188 W/m 13,2 C 3,2 km/h (1 Bft)
04.09.2016 16:33 20,9 C 20,9 C 65 % 1013,8 hPa 0,0 mm 3,2 km/h (1 Bft) S-SW 192 0 min 0,000 mm 1,5 UV-I 190 W/m 14,1 C 4,8 km/h (1 Bft)
04.09.2016 16:34 21,1 C 21,1 C 63 % 1013,9 hPa 0,0 mm 1,9 km/h (1 Bft) S-SW 210 0 min 0,000 mm 1,5 UV-I 192 W/m 13,8 C 4,8 km/h (1 Bft)
04.09.2016 16:35 20,9 C 21,1 C 67 % 1013,8 hPa 0,0 mm 0,8 km/h (0 Bft) S-SW 210 0 min 0,000 mm 1,5 UV-I 190 W/m 14,5 C 1,6 km/h (1 Bft)
04.09.2016 16:36 20,8 C 20,9 C 66 % 1013,8 hPa 0,0 mm 0,6 km/h (0 Bft) S-SW 210 0 min 0,000 mm 1,5 UV-I 185 W/m 14,2 C 1,6 km/h (1 Bft)
04.09.2016 16:37 20,8 C 20,8 C 68 % 1013,8 hPa 0,0 mm 0,2 km/h (0 Bft) S-SW 210 0 min 0,000 mm 1,4 UV-I 179 W/m 14,7 C 1,6 km/h (1 Bft)
04.09.2016 16:38 20,8 C 20,8 C 65 % 1013,7 hPa 0,0 mm 0,0 km/h (0 Bft) S-SW 210 0 min 0,000 mm 1,4 UV-I 176 W/m 14,0 C 0,0 km/h (0 Bft)
04.09.2016 16:39 20,8 C 20,8 C 66 % 1013,7 hPa 0,0 mm 0,1 km/h (0 Bft) S-SW 210 0 min 0,000 mm 1,3 UV-I 172 W/m 14,2 C 1,6 km/h (1 Bft)
04.09.2016 16:40 20,8 C 20,8 C 64 % 1013,7 hPa 0,0 mm 0,6 km/h (0 Bft) S-SW 210 0 min 0,000 mm 1,3 UV-I 167 W/m 13,7 C 3,2 km/h (1 Bft)
04.09.2016 16:41 20,8 C 20,8 C 67 % 1013,7 hPa 0,0 mm 0,6 km/h (0 Bft) S-SW 210 0 min 0,000 mm 1,3 UV-I 158 W/m 14,4 C 3,2 km/h (1 Bft)
04.09.2016 16:42 20,7 C 20,8 C 70 % 1013,8 hPa 0,0 mm 0,7 km/h (0 Bft) S-SW 210 0 min 0,000 mm 1,2 UV-I 156 W/m 15,0 C 1,6 km/h (1 Bft)
04.09.2016 16:43 20,7 C 20,7 C 68 % 1013,7 hPa 0,0 mm 0,7 km/h (0 Bft) S-SW 210 0 min 0,000 mm 1,2 UV-I 156 W/m 14,6 C 1,6 km/h (1 Bft)
04.09.2016 16:44 20,7 C 20,7 C 68 % 1013,7 hPa 0,0 mm 1,2 km/h (1 Bft) S-SW 210 0 min 0,000 mm 1,2 UV-I 156 W/m 14,6 C 3,2 km/h (1 Bft)
04.09.2016 16:45 20,7 C 20,7 C 64 % 1013,7 hPa 0,0 mm 1,5 km/h (1 Bft) S-SW 210 0 min 0,000 mm 1,2 UV-I 158 W/m 13,6 C 3,2 km/h (1 Bft)
04.09.2016 16:46 20,8 C 20,8 C 61 % 1013,7 hPa 0,0 mm 0,1 km/h (0 Bft) S-SW 210 0 min 0,000 mm 1,3 UV-I 160 W/m 13,0 C 1,6 km/h (1 Bft)
04.09.2016 16:47 20,9 C 20,9 C 61 % 1013,7 hPa 0,0 mm 1,1 km/h (1 Bft) S-SW 210 0 min 0,000 mm 1,3 UV-I 165 W/m 13,1 C 3,2 km/h (1 Bft)
04.09.2016 16:48 21,0 C 21,0 C 64 % 1013,7 hPa 0,0 mm 1,7 km/h (1 Bft) S-SW 211 0 min 0,000 mm 1,3 UV-I 167 W/m 13,9 C 3,2 km/h (1 Bft)
04.09.2016 16:49 21,1 C 21,1 C 68 % 1013,7 hPa 0,0 mm 2,7 km/h (1 Bft) W-SW 242 0 min 0,000 mm 1,3 UV-I 169 W/m 15,0 C 3,2 km/h (1 Bft)
04.09.2016 16:50 21,1 C 21,1 C 63 % 1013,7 hPa 0,0 mm 0,4 km/h (0 Bft) W-SW 242 0 min 0,000 mm 1,3 UV-I 169 W/m 13,8 C 3,2 km/h (1 Bft)
04.09.2016 16:51 21,0 C 21,1 C 71 % 1013,8 hPa 0,0 mm 0,6 km/h (0 Bft) W-SW 242 0 min 0,000 mm 1,3 UV-I 169 W/m 15,5 C 4,8 km/h (1 Bft)
04.09.2016 16:52 21,0 C 21,1 C 70 % 1013,8 hPa 0,0 mm 2,6 km/h (1 Bft) W-SW 242 0 min 0,000 mm 1,3 UV-I 169 W/m 15,3 C 4,8 km/h (1 Bft)
04.09.2016 16:53 21,0 C 21,0 C 67 % 1013,7 hPa 0,0 mm 3,3 km/h (1 Bft) S 190 0 min 0,000 mm 1,3 UV-I 165 W/m 14,6 C 4,8 km/h (1 Bft)
04.09.2016 16:54 21,0 C 21,0 C 65 % 1013,7 hPa 0,0 mm 1,9 km/h (1 Bft) S 190 0 min 0,000 mm 1,3 UV-I 163 W/m 14,2 C 3,2 km/h (1 Bft)
04.09.2016 16:55 21,0 C 21,0 C 66 % 1013,7 hPa 0,0 mm 0,5 km/h (0 Bft) S 190 0 min 0,000 mm 1,3 UV-I 162 W/m 14,4 C 1,6 km/h (1 Bft)
04.09.2016 16:56 21,1 C 21,1 C 66 % 1013,7 hPa 0,0 mm 0,3 km/h (0 Bft) S 190 0 min 0,000 mm 1,2 UV-I 160 W/m 14,5 C 1,6 km/h (1 Bft)
04.09.2016 16:57 21,1 C 21,1 C 61 % 1013,7 hPa 0,0 mm 1,5 km/h (1 Bft) S 190 0 min 0,000 mm 1,2 UV-I 158 W/m 13,3 C 3,2 km/h (1 Bft)
04.09.2016 16:58 21,1 C 21,2 C 61 % 1013,8 hPa 0,0 mm 3,9 km/h (1 Bft) W 268 0 min 0,000 mm 1,2 UV-I 160 W/m 13,3 C 6,4 km/h (2 Bft)
04.09.2016 16:59 21,2 C 21,2 C 62 % 1013,8 hPa 0,0 mm 3,5 km/h (1 Bft) SW 236 0 min 0,000 mm 1,2 UV-I 160 W/m 13,6 C 6,4 km/h (2 Bft)
04.09.2016 17:00 21,2 C 21,2 C 63 % 1013,7 hPa 0,0 mm 2,5 km/h (1 Bft) SW 228 0 min 0,000 mm 1,2 UV-I 160 W/m 13,9 C 3,2 km/h (1 Bft)
04.09.2016 17:01 21,3 C 21,3 C 58 % 1013,7 hPa 0,0 mm 1,9 km/h (1 Bft) SW 231 0 min 0,127 mm 1,2 UV-I 162 W/m 12,7 C 3,2 km/h (1 Bft)
04.09.2016 17:02 21,3 C 21,3 C 61 % 1013,8 hPa 0,0 mm 3,3 km/h (1 Bft) W-NW 286 0 min 0,000 mm 1,2 UV-I 162 W/m 13,5 C 6,4 km/h (2 Bft)
04.09.2016 17:03 21,2 C 21,3 C 64 % 1013,7 hPa 0,0 mm 2,4 km/h (1 Bft) W 264 0 min 0,000 mm 1,2 UV-I 160 W/m 14,1 C 6,4 km/h (2 Bft)
04.09.2016 17:04 21,2 C 21,2 C 62 % 1013,7 hPa 0,0 mm 3,9 km/h (1 Bft) SW 229 0 min 0,000 mm 1,2 UV-I 156 W/m 13,6 C 8,0 km/h (2 Bft)
04.09.2016 17:05 21,2 C 21,2 C 61 % 1013,7 hPa 0,0 mm 1,5 km/h (1 Bft) SW 229 0 min 0,000 mm 1,2 UV-I 155 W/m 13,4 C 4,8 km/h (1 Bft)
04.09.2016 17:06 21,2 C 21,2 C 62 % 1013,7 hPa 0,0 mm 1,7 km/h (1 Bft) S-SW 198 0 min 0,000 mm 1,2 UV-I 155 W/m 13,6 C 4,8 km/h (1 Bft)
04.09.2016 17:07 21,2 C 21,2 C 61 % 1013,7 hPa 0,0 mm 2,5 km/h (1 Bft) S 176 0 min 0,000 mm 1,1 UV-I 155 W/m 13,4 C 4,8 km/h (1 Bft)
04.09.2016 17:08 21,1 C 21,2 C 64 % 1013,7 hPa 0,0 mm 1,3 km/h (1 Bft) S 176 0 min 0,000 mm 1,1 UV-I 155 W/m 14,0 C 3,2 km/h (1 Bft)
04.09.2016 17:09 21,2 C 21,2 C 61 % 1013,7 hPa 0,0 mm 1,7 km/h (1 Bft) S-SW 213 0 min 0,000 mm 1,1 UV-I 149 W/m 13,4 C 3,2 km/h (1 Bft)
04.09.2016 17:10 21,2 C 21,2 C 60 % 1013,7 hPa 0,0 mm 2,8 km/h (1 Bft) W-SW 242 0 min 0,000 mm 1,1 UV-I 142 W/m 13,1 C 4,8 km/h (1 Bft)
04.09.2016 17:11 21,1 C 21,2 C 64 % 1013,7 hPa 0,0 mm 3,4 km/h (1 Bft) W-SW 240 0 min 0,000 mm 1,1 UV-I 137 W/m 14,0 C 4,8 km/h (1 Bft)
04.09.2016 17:12 21,1 C 21,1 C 62 % 1013,7 hPa 0,0 mm 1,4 km/h (1 Bft) SW 236 0 min 0,000 mm 1,0 UV-I 134 W/m 13,5 C 4,8 km/h (1 Bft)
04.09.2016 17:13 21,0 C 21,1 C 66 % 1013,7 hPa 0,0 mm 1,8 km/h (1 Bft) SW 236 0 min 0,000 mm 1,0 UV-I 134 W/m 14,4 C 3,2 km/h (1 Bft)
04.09.2016 17:14 21,0 C 21,0 C 64 % 1013,8 hPa 0,0 mm 1,1 km/h (1 Bft) W-SW 250 0 min 0,000 mm 0,9 UV-I 121 W/m 13,9 C 4,8 km/h (1 Bft)
04.09.2016 17:15 20,9 C 21,0 C 66 % 1013,8 hPa 0,0 mm 4,3 km/h (1 Bft) W-SW 248 0 min 0,000 mm 0,9 UV-I 116 W/m 14,3 C 6,4 km/h (2 Bft)
04.09.2016 17:16 20,9 C 20,9 C 67 % 1013,8 hPa 0,0 mm 3,8 km/h (1 Bft) W-SW 246 0 min 0,000 mm 0,8 UV-I 107 W/m 14,5 C 6,4 km/h (2 Bft)
04.09.2016 17:17 20,9 C 20,9 C 64 % 1013,8 hPa 0,0 mm 1,7 km/h (1 Bft) W-SW 254 0 min 0,000 mm 0,8 UV-I 104 W/m 13,8 C 3,2 km/h (1 Bft)
04.09.2016 17:18 20,8 C 20,9 C 65 % 1013,8 hPa 0,0 mm 0,3 km/h (0 Bft) W-SW 254 0 min 0,000 mm 0,8 UV-I 102 W/m 14,0 C 1,6 km/h (1 Bft)
04.09.2016 17:19 20,8 C 20,8 C 65 % 1013,8 hPa 0,0 mm 0,0 km/h (0 Bft) W-SW 254 0 min 0,000 mm 0,7 UV-I 98 W/m 14,0 C 0,0 km/h (0 Bft)
04.09.2016 17:20 20,8 C 20,8 C 63 % 1013,9 hPa 0,0 mm 0,0 km/h (0 Bft) W-SW 254 0 min 0,000 mm 0,7 UV-I 95 W/m 13,5 C 0,0 km/h (0 Bft)
04.09.2016 17:21 20,8 C 20,8 C 67 % 1013,9 hPa 0,0 mm 0,0 km/h (0 Bft) W-SW 254 0 min 0,000 mm 0,7 UV-I 93 W/m 14,4 C 0,0 km/h (0 Bft)
04.09.2016 17:22 20,8 C 20,8 C 65 % 1013,9 hPa 0,0 mm 0,1 km/h (0 Bft) W-SW 254 0 min 0,000 mm 0,7 UV-I 90 W/m 14,0 C 1,6 km/h (1 Bft)
04.09.2016 17:23 20,7 C 20,8 C 64 % 1013,9 hPa 0,0 mm 0,2 km/h (0 Bft) W-SW 254 0 min 0,000 mm 0,6 UV-I 88 W/m 13,6 C 1,6 km/h (1 Bft)
04.09.2016 17:24 20,7 C 20,7 C 65 % 1013,9 hPa 0,0 mm 0,1 km/h (0 Bft) W-SW 254 0 min 0,000 mm 0,6 UV-I 90 W/m 13,9 C 1,6 km/h (1 Bft)
04.09.2016 17:25 20,6 C 20,7 C 65 % 1013,9 hPa 0,0 mm 0,1 km/h (0 Bft) W-SW 254 0 min 0,000 mm 0,6 UV-I 90 W/m 13,8 C 1,6 km/h (1 Bft)
04.09.2016 17:26 20,6 C 20,7 C 65 % 1013,9 hPa 0,0 mm 0,2 km/h (0 Bft) W-SW 254 0 min 0,000 mm 0,7 UV-I 91 W/m 13,8 C 1,6 km/h (1 Bft)
04.09.2016 17:27 20,6 C 20,6 C 65 % 1014,0 hPa 0,0 mm 1,9 km/h (1 Bft) SW 221 0 min 0,000 mm 0,7 UV-I 91 W/m 13,8 C 3,2 km/h (1 Bft)
04.09.2016 17:28 20,5 C 20,6 C 67 % 1014,0 hPa 0,0 mm 1,8 km/h (1 Bft) SW 221 0 min 0,000 mm 0,7 UV-I 90 W/m 14,2 C 4,8 km/h (1 Bft)
04.09.2016 17:29 20,4 C 20,5 C 68 % 1013,9 hPa 0,0 mm 1,1 km/h (1 Bft) SW 221 0 min 0,000 mm 0,6 UV-I 86 W/m 14,3 C 3,2 km/h (1 Bft)
04.09.2016 17:30 20,4 C 20,4 C 69 % 1014,0 hPa 0,0 mm 1,2 km/h (1 Bft) SW 222 0 min 0,000 mm 0,6 UV-I 83 W/m 14,5 C 3,2 km/h (1 Bft)
04.09.2016 17:31 20,3 C 20,4 C 68 % 1014,0 hPa 0,0 mm 4,9 km/h (1 Bft) SW 231 0 min 0,000 mm 0,6 UV-I 77 W/m 14,2 C 8,0 km/h (2 Bft)
04.09.2016 17:32 20,3 C 20,3 C 68 % 1013,9 hPa 0,0 mm 1,5 km/h (1 Bft) W-SW 254 0 min 0,000 mm 0,5 UV-I 74 W/m 14,2 C 3,2 km/h (1 Bft)
04.09.2016 17:33 20,3 C 20,3 C 66 % 1014,0 hPa 0,0 mm 2,4 km/h (1 Bft) W-SW 244 0 min 0,000 mm 0,5 UV-I 67 W/m 13,7 C 4,8 km/h (1 Bft)
04.09.2016 17:34 20,3 C 20,4 C 65 % 1014,0 hPa 0,0 mm 1,9 km/h (1 Bft) S-SW 194 0 min 0,000 mm 0,5 UV-I 67 W/m 13,5 C 4,8 km/h (1 Bft)
04.09.2016 17:35 20,3 C 20,4 C 68 % 1014,0 hPa 0,0 mm 2,3 km/h (1 Bft) S-SW 196 0 min 0,000 mm 0,5 UV-I 65 W/m 14,2 C 3,2 km/h (1 Bft)
04.09.2016 17:36 20,4 C 20,4 C 68 % 1014,0 hPa 0,0 mm 2,8 km/h (1 Bft) W 272 0 min 0,000 mm 0,5 UV-I 67 W/m 14,3 C 4,8 km/h (1 Bft)
04.09.2016 17:37 20,4 C 20,4 C 64 % 1014,0 hPa 0,0 mm 5,0 km/h (1 Bft) W-NW 284 0 min 0,000 mm 0,5 UV-I 67 W/m 13,4 C 6,4 km/h (2 Bft)
04.09.2016 17:38 20,4 C 20,4 C 65 % 1014,1 hPa 0,0 mm 4,3 km/h (1 Bft) W-SW 240 0 min 0,000 mm 0,5 UV-I 69 W/m 13,6 C 4,8 km/h (1 Bft)
04.09.2016 17:39 20,4 C 20,4 C 67 % 1014,1 hPa 0,0 mm 5,3 km/h (1 Bft) W-SW 255 0 min 0,000 mm 0,5 UV-I 67 W/m 14,1 C 9,7 km/h (2 Bft)
04.09.2016 17:40 20,4 C 20,4 C 66 % 1014,1 hPa 0,0 mm 5,2 km/h (1 Bft) W-NW 282 0 min 0,000 mm 0,5 UV-I 65 W/m 13,8 C 6,4 km/h (2 Bft)
04.09.2016 17:41 20,3 C 20,4 C 67 % 1014,1 hPa 0,0 mm 6,2 km/h (2 Bft) W 265 0 min 0,000 mm 0,5 UV-I 63 W/m 14,0 C 9,7 km/h (2 Bft)
04.09.2016 17:42 20,3 C 20,3 C 67 % 1014,2 hPa 0,0 mm 6,0 km/h (2 Bft) W-SW 256 0 min 0,000 mm 0,0 UV-I 62 W/m 14,0 C 9,7 km/h (2 Bft)
04.09.2016 17:43 20,2 C 20,3 C 71 % 1014,2 hPa 0,0 mm 6,5 km/h (2 Bft) W 261 0 min 0,000 mm 0,0 UV-I 58 W/m 14,8 C 9,7 km/h (2 Bft)
04.09.2016 17:44 20,2 C 20,2 C 68 % 1014,3 hPa 0,0 mm 6,3 km/h (2 Bft) W-SW 245 0 min 0,000 mm 0,0 UV-I 54 W/m 14,1 C 9,7 km/h (2 Bft)
04.09.2016 17:45 20,1 C 20,2 C 70 % 1014,3 hPa 0,0 mm 7,0 km/h (2 Bft) W-SW 243 0 min 0,000 mm 0,0 UV-I 46 W/m 14,5 C 11,3 km/h (2 Bft)
04.09.2016 17:46 20,1 C 20,1 C 69 % 1014,3 hPa 0,0 mm 7,1 km/h (2 Bft) W 267 0 min 0,000 mm 0,0 UV-I 44 W/m 14,2 C 9,7 km/h (2 Bft)
04.09.2016 17:47 20,1 C 20,1 C 68 % 1014,4 hPa 0,0 mm 12,4 km/h (3 Bft) S-SW 194 0 min 0,000 mm 0,0 UV-I 42 W/m 14,0 C 19,3 km/h (3 Bft)
04.09.2016 17:48 20,1 C 20,1 C 67 % 1014,4 hPa 0,0 mm 8,1 km/h (2 Bft) NW 326 0 min 0,000 mm 0,0 UV-I 42 W/m 13,8 C 16,1 km/h (3 Bft)
04.09.2016 17:49 20,2 C 20,2 C 66 % 1014,4 hPa 0,0 mm 8,9 km/h (2 Bft) W-SW 248 0 min 0,000 mm 0,0 UV-I 42 W/m 13,6 C 16,1 km/h (3 Bft)
04.09.2016 17:50 20,2 C 20,2 C 66 % 1014,4 hPa 0,0 mm 14,2 km/h (3 Bft) W 265 0 min 0,000 mm 0,0 UV-I 44 W/m 13,6 C 25,7 km/h (4 Bft)
04.09.2016 17:51 20,2 C 20,2 C 64 % 1014,6 hPa 0,0 mm 19,0 km/h (3 Bft) W-NW 296 0 min 0,000 mm 0,0 UV-I 42 W/m 13,2 C 29,0 km/h (5 Bft)
04.09.2016 17:52 20,2 C 20,2 C 65 % 1014,5 hPa 0,0 mm 16,4 km/h (3 Bft) W 261 0 min 0,000 mm 0,0 UV-I 40 W/m 13,4 C 27,4 km/h (4 Bft)
04.09.2016 17:53 20,2 C 20,2 C 64 % 1014,5 hPa 0,0 mm 16,8 km/h (3 Bft) W-NW 302 0 min 0,000 mm 0,0 UV-I 40 W/m 13,2 C 24,1 km/h (4 Bft)
04.09.2016 17:54 20,2 C 20,2 C 65 % 1014,6 hPa 0,0 mm 20,3 km/h (4 Bft) W-NW 282 0 min 0,000 mm 0,0 UV-I 40 W/m 13,4 C 32,2 km/h (5 Bft)
04.09.2016 17:55 20,1 C 20,2 C 63 % 1014,6 hPa 0,0 mm 21,9 km/h (4 Bft) W 274 0 min 0,000 mm 0,0 UV-I 40 W/m 12,8 C 29,0 km/h (5 Bft)
04.09.2016 17:56 20,1 C 20,2 C 64 % 1014,6 hPa 0,0 mm 16,9 km/h (3 Bft) W-SW 253 0 min 0,000 mm 0,0 UV-I 39 W/m 13,1 C 25,7 km/h (4 Bft)
04.09.2016 17:57 20,1 C 20,1 C 64 % 1014,6 hPa 0,0 mm 13,5 km/h (3 Bft) SW 225 0 min 0,000 mm 0,0 UV-I 37 W/m 13,1 C 20,9 km/h (4 Bft)
04.09.2016 17:58 20,1 C 20,1 C 64 % 1014,7 hPa 0,0 mm 18,3 km/h (3 Bft) W-NW 288 0 min 0,000 mm 0,0 UV-I 37 W/m 13,1 C 25,7 km/h (4 Bft)
04.09.2016 17:59 20,1 C 20,1 C 63 % 1014,6 hPa 0,0 mm 14,3 km/h (3 Bft) W 273 0 min 0,000 mm 0,0 UV-I 37 W/m 12,8 C 17,7 km/h (3 Bft)
04.09.2016 18:00 20,1 C 20,1 C 64 % 1014,7 hPa 0,0 mm 15,4 km/h (3 Bft) W 279 0 min 0,000 mm 0,0 UV-I 37 W/m 13,1 C 20,9 km/h (4 Bft)
04.09.2016 18:01 20,1 C 20,1 C 64 % 1014,7 hPa 0,0 mm 13,2 km/h (3 Bft) W-SW 254 0 min 0,076 mm 0,0 UV-I 37 W/m 13,1 C 17,7 km/h (3 Bft)
04.09.2016 18:02 20,0 C 20,1 C 65 % 1014,7 hPa 0,0 mm 11,8 km/h (2 Bft) W-NW 286 0 min 0,000 mm 0,0 UV-I 37 W/m 13,2 C 16,1 km/h (3 Bft)
04.09.2016 18:03 19,9 C 20,0 C 65 % 1014,7 hPa 0,0 mm 8,2 km/h (2 Bft) W 279 0 min 0,000 mm 0,0 UV-I 35 W/m 13,1 C 14,5 km/h (3 Bft)
04.09.2016 18:04 19,9 C 19,9 C 66 % 1014,8 hPa 0,0 mm 12,0 km/h (2 Bft) W-SW 252 0 min 0,000 mm 0,0 UV-I 35 W/m 13,4 C 17,7 km/h (3 Bft)
04.09.2016 18:05 19,8 C 19,9 C 67 % 1014,8 hPa 0,0 mm 12,9 km/h (3 Bft) W-NW 286 0 min 0,000 mm 0,0 UV-I 35 W/m 13,5 C 17,7 km/h (3 Bft)
04.09.2016 18:06 19,8 C 19,8 C 67 % 1014,8 hPa 0,0 mm 13,9 km/h (3 Bft) W-SW 257 0 min 0,000 mm 0,0 UV-I 35 W/m 13,5 C 37,0 km/h (5 Bft)
04.09.2016 18:07 19,7 C 19,8 C 65 % 1014,9 hPa 0,0 mm 19,8 km/h (3 Bft) NW 305 0 min 0,000 mm 0,0 UV-I 33 W/m 12,9 C 32,2 km/h (5 Bft)
04.09.2016 18:08 19,7 C 19,7 C 66 % 1014,7 hPa 0,0 mm 15,6 km/h (3 Bft) W-NW 286 0 min 0,000 mm 0,0 UV-I 33 W/m 13,2 C 22,5 km/h (4 Bft)
04.09.2016 18:09 19,7 C 19,7 C 66 % 1014,6 hPa 0,0 mm 17,4 km/h (3 Bft) W 261 0 min 0,000 mm 0,0 UV-I 32 W/m 13,2 C 27,4 km/h (4 Bft)
04.09.2016 18:10 19,7 C 19,7 C 65 % 1014,8 hPa 0,0 mm 17,6 km/h (3 Bft) W-SW 245 0 min 0,000 mm 0,0 UV-I 30 W/m 12,9 C 22,5 km/h (4 Bft)
04.09.2016 18:11 19,7 C 19,7 C 65 % 1014,8 hPa 0,0 mm 12,6 km/h (3 Bft) W-NW 294 0 min 0,000 mm 0,0 UV-I 30 W/m 12,9 C 19,3 km/h (3 Bft)
04.09.2016 18:12 19,7 C 19,7 C 66 % 1014,8 hPa 0,0 mm 10,1 km/h (2 Bft) NW 312 0 min 0,000 mm 0,0 UV-I 30 W/m 13,2 C 16,1 km/h (3 Bft)
04.09.2016 18:13 19,7 C 19,7 C 66 % 1014,8 hPa 0,0 mm 10,8 km/h (2 Bft) W-NW 291 0 min 0,000 mm 0,0 UV-I 32 W/m 13,2 C 17,7 km/h (3 Bft)
04.09.2016 18:14 19,6 C 19,7 C 66 % 1014,9 hPa 0,0 mm 17,1 km/h (3 Bft) W-NW 292 0 min 0,000 mm 0,0 UV-I 30 W/m 13,1 C 29,0 km/h (5 Bft)
04.09.2016 18:15 19,6 C 19,6 C 66 % 1015,0 hPa 0,0 mm 18,8 km/h (3 Bft) W 271 0 min 0,000 mm 0,0 UV-I 30 W/m 13,1 C 33,8 km/h (5 Bft)
04.09.2016 18:16 19,5 C 19,6 C 66 % 1014,9 hPa 0,0 mm 16,6 km/h (3 Bft) W-SW 238 0 min 0,000 mm 0,0 UV-I 30 W/m 13,0 C 24,1 km/h (4 Bft)
04.09.2016 18:17 19,5 C 19,5 C 67 % 1015,0 hPa 0,0 mm 14,5 km/h (3 Bft) W 273 0 min 0,000 mm 0,0 UV-I 30 W/m 13,2 C 19,3 km/h (3 Bft)
04.09.2016 18:18 19,4 C 19,5 C 68 % 1015,1 hPa 0,0 mm 14,3 km/h (3 Bft) W-NW 296 0 min 0,000 mm 0,0 UV-I 30 W/m 13,3 C 22,5 km/h (4 Bft)
04.09.2016 18:19 19,4 C 19,4 C 68 % 1015,1 hPa 0,0 mm 16,4 km/h (3 Bft) N-NW 344 0 min 0,000 mm 0,0 UV-I 28 W/m 13,3 C 22,5 km/h (4 Bft)
04.09.2016 18:20 19,3 C 19,4 C 68 % 1015,1 hPa 0,0 mm 13,9 km/h (3 Bft) W-NW 288 0 min 0,000 mm 0,0 UV-I 28 W/m 13,2 C 22,5 km/h (4 Bft)
04.09.2016 18:21 19,3 C 19,3 C 69 % 1015,1 hPa 0,0 mm 16,2 km/h (3 Bft) W 281 0 min 0,000 mm 0,0 UV-I 28 W/m 13,5 C 22,5 km/h (4 Bft)
04.09.2016 18:22 19,2 C 19,3 C 69 % 1015,1 hPa 0,0 mm 16,8 km/h (3 Bft) NW 306 0 min 0,000 mm 0,0 UV-I 28 W/m 13,4 C 24,1 km/h (4 Bft)
04.09.2016 18:24 18,9 C 19,2 C 72 % 1015,2 hPa 0,0 mm 18,1 km/h (3 Bft) W-SW 247 0 min 0,000 mm 0,0 UV-I 26 W/m 13,7 C 25,7 km/h (4 Bft)
04.09.2016 18:25 18,8 C 18,9 C 72 % 1015,2 hPa 0,0 mm 19,3 km/h (3 Bft) W-NW 301 0 min 0,000 mm 0,0 UV-I 26 W/m 13,6 C 29,0 km/h (5 Bft)
04.09.2016 18:26 18,7 C 18,8 C 73 % 1015,2 hPa 0,0 mm 15,0 km/h (3 Bft) NW 304 0 min 0,000 mm 0,0 UV-I 26 W/m 13,8 C 24,1 km/h (4 Bft)
04.09.2016 18:27 18,5 C 18,7 C 74 % 1015,2 hPa 0,0 mm 11,9 km/h (2 Bft) W-SW 255 0 min 0,000 mm 0,0 UV-I 28 W/m 13,8 C 20,9 km/h (4 Bft)
04.09.2016 18:28 18,3 C 18,5 C 74 % 1015,3 hPa 0,0 mm 10,6 km/h (2 Bft) NW 309 0 min 0,000 mm 0,0 UV-I 30 W/m 13,6 C 14,5 km/h (3 Bft)
04.09.2016 18:29 18,2 C 18,3 C 75 % 1015,3 hPa 0,0 mm 9,5 km/h (2 Bft) W-NW 282 0 min 0,000 mm 0,0 UV-I 30 W/m 13,7 C 16,1 km/h (3 Bft)
04.09.2016 18:30 18,1 C 18,2 C 76 % 1015,3 hPa 0,0 mm 11,5 km/h (2 Bft) W 265 0 min 0,000 mm 0,0 UV-I 32 W/m 13,8 C 17,7 km/h (3 Bft)
04.09.2016 18:31 17,9 C 18,1 C 77 % 1015,3 hPa 0,0 mm 10,7 km/h (2 Bft) N-NW 327 0 min 0,000 mm 0,0 UV-I 32 W/m 13,8 C 19,3 km/h (3 Bft)
04.09.2016 18:32 17,8 C 17,9 C 77 % 1015,2 hPa 0,0 mm 16,0 km/h (3 Bft) W-SW 253 0 min 0,000 mm 0,0 UV-I 32 W/m 13,7 C 24,1 km/h (4 Bft)
04.09.2016 18:33 17,7 C 17,8 C 77 % 1015,3 hPa 0,0 mm 12,2 km/h (2 Bft) W 271 0 min 0,000 mm 0,0 UV-I 32 W/m 13,6 C 19,3 km/h (3 Bft)
04.09.2016 18:34 17,6 C 17,7 C 78 % 1015,2 hPa 0,0 mm 9,2 km/h (2 Bft) W 266 0 min 0,000 mm 0,0 UV-I 32 W/m 13,7 C 17,7 km/h (3 Bft)
04.09.2016 18:35 17,6 C 17,6 C 78 % 1015,3 hPa 0,0 mm 16,6 km/h (3 Bft) W 264 0 min 0,000 mm 0,0 UV-I 32 W/m 13,7 C 27,4 km/h (4 Bft)
04.09.2016 18:36 17,5 C 17,6 C 78 % 1015,2 hPa 0,0 mm 15,2 km/h (3 Bft) SW 234 0 min 0,000 mm 0,0 UV-I 32 W/m 13,6 C 27,4 km/h (4 Bft)
04.09.2016 18:37 17,4 C 17,5 C 79 % 1015,3 hPa 0,0 mm 14,8 km/h (3 Bft) W 265 0 min 0,000 mm 0,0 UV-I 30 W/m 13,7 C 22,5 km/h (4 Bft)
04.09.2016 18:38 17,4 C 17,4 C 79 % 1015,3 hPa 0,0 mm 12,6 km/h (3 Bft) W 266 0 min 0,000 mm 0,0 UV-I 25 W/m 13,7 C 24,1 km/h (4 Bft)
04.09.2016 18:39 17,3 C 17,4 C 79 % 1015,3 hPa 0,0 mm 13,2 km/h (3 Bft) W-NW 297 0 min 0,000 mm 0,0 UV-I 23 W/m 13,6 C 22,5 km/h (4 Bft)
04.09.2016 18:40 17,3 C 17,3 C 79 % 1015,4 hPa 0,0 mm 16,6 km/h (3 Bft) W 259 0 min 0,000 mm 0,0 UV-I 21 W/m 13,6 C 25,7 km/h (4 Bft)
04.09.2016 18:41 17,3 C 17,3 C 79 % 1015,4 hPa 0,0 mm 13,3 km/h (3 Bft) W 259 0 min 0,000 mm 0,0 UV-I 21 W/m 13,6 C 20,9 km/h (4 Bft)
04.09.2016 18:42 17,2 C 17,3 C 80 % 1015,4 hPa 0,0 mm 9,4 km/h (2 Bft) SW 232 0 min 0,000 mm 0,0 UV-I 21 W/m 13,7 C 16,1 km/h (3 Bft)
04.09.2016 18:43 17,2 C 17,2 C 80 % 1015,5 hPa 0,0 mm 20,3 km/h (4 Bft) W-NW 294 0 min 0,000 mm 0,0 UV-I 21 W/m 13,7 C 27,4 km/h (4 Bft)
04.09.2016 18:44 17,1 C 17,2 C 80 % 1015,5 hPa 0,0 mm 14,8 km/h (3 Bft) W-SW 244 0 min 0,000 mm 0,0 UV-I 19 W/m 13,6 C 19,3 km/h (3 Bft)
04.09.2016 18:45 17,1 C 17,1 C 80 % 1015,6 hPa 0,0 mm 12,1 km/h (2 Bft) SW 223 0 min 0,000 mm 0,0 UV-I 19 W/m 13,6 C 19,3 km/h (3 Bft)
04.09.2016 18:46 17,0 C 17,1 C 81 % 1015,6 hPa 0,0 mm 10,9 km/h (2 Bft) W 279 0 min 0,000 mm 0,0 UV-I 18 W/m 13,7 C 22,5 km/h (4 Bft)
04.09.2016 18:47 16,9 C 17,0 C 81 % 1015,6 hPa 0,0 mm 15,8 km/h (3 Bft) W-SW 251 0 min 0,000 mm 0,0 UV-I 18 W/m 13,6 C 29,0 km/h (5 Bft)
04.09.2016 18:48 16,9 C 16,9 C 81 % 1015,7 hPa 0,0 mm 15,1 km/h (3 Bft) W 261 0 min 0,000 mm 0,0 UV-I 16 W/m 13,6 C 32,2 km/h (5 Bft)
04.09.2016 18:49 16,9 C 16,9 C 82 % 1015,7 hPa 0,0 mm 10,1 km/h (2 Bft) W-SW 253 0 min 0,000 mm 0,0 UV-I 14 W/m 13,8 C 16,1 km/h (3 Bft)
04.09.2016 18:50 16,8 C 16,9 C 82 % 1015,7 hPa 0,0 mm 16,2 km/h (3 Bft) W-SW 253 0 min 0,000 mm 0,0 UV-I 12 W/m 13,7 C 22,5 km/h (4 Bft)
04.09.2016 18:51 16,8 C 16,8 C 82 % 1015,7 hPa 0,0 mm 10,1 km/h (2 Bft) W-SW 252 0 min 0,000 mm 0,0 UV-I 11 W/m 13,7 C 14,5 km/h (3 Bft)
04.09.2016 18:52 16,8 C 16,8 C 82 % 1015,7 hPa 0,2 mm 10,1 km/h (2 Bft) W 259 0 min 0,000 mm 0,0 UV-I 9 W/m 13,7 C 17,7 km/h (3 Bft)
04.09.2016 18:53 16,7 C 16,8 C 82 % 1015,7 hPa 0,0 mm 7,6 km/h (2 Bft) W 269 0 min 0,000 mm 0,0 UV-I 9 W/m 13,6 C 11,3 km/h (2 Bft)
04.09.2016 18:54 16,7 C 16,7 C 83 % 1015,7 hPa 0,0 mm 12,9 km/h (3 Bft) S-SW 194 0 min 0,000 mm 0,0 UV-I 9 W/m 13,8 C 19,3 km/h (3 Bft)
04.09.2016 18:55 16,6 C 16,7 C 83 % 1015,8 hPa 0,2 mm 10,7 km/h (2 Bft) SW 216 0 min 0,000 mm 0,0 UV-I 7 W/m 13,7 C 19,3 km/h (3 Bft)
04.09.2016 18:56 16,5 C 16,6 C 84 % 1015,8 hPa 0,0 mm 11,6 km/h (2 Bft) W 266 0 min 0,000 mm 0,0 UV-I 7 W/m 13,8 C 17,7 km/h (3 Bft)
04.09.2016 18:57 16,4 C 16,5 C 84 % 1015,8 hPa 0,2 mm 9,5 km/h (2 Bft) W 275 0 min 0,000 mm 0,0 UV-I 5 W/m 13,7 C 14,5 km/h (3 Bft)
04.09.2016 18:58 16,3 C 16,4 C 84 % 1015,8 hPa 0,0 mm 10,3 km/h (2 Bft) W-SW 238 0 min 0,000 mm 0,0 UV-I 5 W/m 13,6 C 17,7 km/h (3 Bft)
04.09.2016 18:59 16,3 C 16,3 C 85 % 1015,8 hPa 0,0 mm 12,0 km/h (2 Bft) W-NW 285 0 min 0,000 mm 0,0 UV-I 5 W/m 13,8 C 20,9 km/h (4 Bft)
04.09.2016 19:00 16,2 C 16,3 C 86 % 1015,8 hPa 0,2 mm 10,9 km/h (2 Bft) W-SW 241 0 min 0,000 mm 0,0 UV-I 5 W/m 13,9 C 16,1 km/h (3 Bft)
04.09.2016 19:01 16,1 C 16,2 C 86 % 1015,9 hPa 0,0 mm 11,7 km/h (2 Bft) W-NW 302 0 min 0,076 mm 0,0 UV-I 5 W/m 13,8 C 19,3 km/h (3 Bft)
04.09.2016 19:02 16,0 C 16,1 C 86 % 1015,8 hPa 0,0 mm 8,9 km/h (2 Bft) SW 219 0 min 0,000 mm 0,0 UV-I 5 W/m 13,7 C 19,3 km/h (3 Bft)
04.09.2016 19:03 15,9 C 16,0 C 86 % 1015,7 hPa 0,0 mm 13,6 km/h (3 Bft) W-SW 237 0 min 0,000 mm 0,0 UV-I 7 W/m 13,6 C 20,9 km/h (4 Bft)
04.09.2016 19:04 15,9 C 15,9 C 86 % 1015,7 hPa 0,2 mm 6,4 km/h (2 Bft) W-SW 242 0 min 0,000 mm 0,0 UV-I 7 W/m 13,6 C 12,9 km/h (3 Bft)
04.09.2016 19:05 15,8 C 15,9 C 87 % 1015,7 hPa 0,0 mm 6,6 km/h (2 Bft) W 261 0 min 0,000 mm 0,0 UV-I 9 W/m 13,6 C 9,7 km/h (2 Bft)
04.09.2016 19:06 15,7 C 15,8 C 87 % 1015,7 hPa 0,0 mm 9,7 km/h (2 Bft) W 279 0 min 0,000 mm 0,0 UV-I 12 W/m 13,5 C 22,5 km/h (4 Bft)
04.09.2016 19:07 15,7 C 15,7 C 87 % 1015,7 hPa 0,2 mm 11,7 km/h (2 Bft) W 265 0 min 0,000 mm 0,0 UV-I 14 W/m 13,5 C 19,3 km/h (3 Bft)
04.09.2016 19:08 15,6 C 15,7 C 88 % 1015,6 hPa 0,0 mm 11,9 km/h (2 Bft) W 268 0 min 0,000 mm 0,0 UV-I 19 W/m 13,6 C 17,7 km/h (3 Bft)
04.09.2016 19:09 15,6 C 15,6 C 88 % 1015,6 hPa 0,0 mm 9,7 km/h (2 Bft) W-SW 248 0 min 0,000 mm 0,0 UV-I 21 W/m 13,6 C 19,3 km/h (3 Bft)
04.09.2016 19:10 15,6 C 15,6 C 88 % 1015,6 hPa 0,0 mm 16,4 km/h (3 Bft) W 261 0 min 0,000 mm 0,0 UV-I 19 W/m 13,6 C 25,7 km/h (4 Bft)
04.09.2016 19:11 15,5 C 15,6 C 87 % 1015,5 hPa 0,0 mm 8,9 km/h (2 Bft) W 269 0 min 0,000 mm 0,0 UV-I 18 W/m 13,3 C 14,5 km/h (3 Bft)
04.09.2016 19:12 15,5 C 15,5 C 87 % 1015,5 hPa 0,0 mm 11,9 km/h (2 Bft) W-SW 242 0 min 0,000 mm 0,0 UV-I 16 W/m 13,3 C 17,7 km/h (3 Bft)
04.09.2016 19:13 15,4 C 15,5 C 87 % 1015,5 hPa 0,0 mm 4,7 km/h (1 Bft) SW 234 0 min 0,000 mm 0,0 UV-I 14 W/m 13,2 C 6,4 km/h (2 Bft)
04.09.2016 19:14 15,4 C 15,4 C 87 % 1015,6 hPa 0,2 mm 6,5 km/h (2 Bft) S-SO 156 0 min 0,000 mm 0,0 UV-I 14 W/m 13,2 C 12,9 km/h (3 Bft)
04.09.2016 19:15 15,4 C 15,4 C 87 % 1015,4 hPa 0,0 mm 8,0 km/h (2 Bft) W 279 0 min 0,000 mm 0,0 UV-I 12 W/m 13,2 C 12,9 km/h (3 Bft)
04.09.2016 19:16 15,3 C 15,4 C 88 % 1015,5 hPa 0,0 mm 12,0 km/h (2 Bft) W 265 0 min 0,000 mm 0,0 UV-I 11 W/m 13,3 C 19,3 km/h (3 Bft)
04.09.2016 19:17 15,3 C 15,4 C 88 % 1015,5 hPa 0,0 mm 9,6 km/h (2 Bft) W-SW 254 0 min 0,000 mm 0,0 UV-I 11 W/m 13,3 C 17,7 km/h (3 Bft)
04.09.2016 19:18 15,3 C 15,4 C 88 % 1015,4 hPa 0,0 mm 12,1 km/h (2 Bft) W 277 0 min 0,000 mm 0,0 UV-I 9 W/m 13,3 C 17,7 km/h (3 Bft)
04.09.2016 19:19 15,3 C 15,3 C 88 % 1015,4 hPa 0,0 mm 7,4 km/h (2 Bft) W-SW 242 0 min 0,000 mm 0,0 UV-I 9 W/m 13,3 C 11,3 km/h (2 Bft)
04.09.2016 19:20 15,2 C 15,3 C 89 % 1015,5 hPa 0,0 mm 2,8 km/h (1 Bft) W-SW 246 0 min 0,000 mm 0,0 UV-I 9 W/m 13,4 C 9,7 km/h (2 Bft)
04.09.2016 19:21 15,2 C 15,3 C 89 % 1015,5 hPa 0,0 mm 6,1 km/h (2 Bft) SW 223 0 min 0,000 mm 0,0 UV-I 9 W/m 13,4 C 11,3 km/h (2 Bft)
04.09.2016 19:22 15,2 C 15,2 C 88 % 1015,4 hPa 0,0 mm 5,9 km/h (2 Bft) W 277 0 min 0,000 mm 0,0 UV-I 7 W/m 13,2 C 9,7 km/h (2 Bft)
04.09.2016 19:23 15,2 C 15,2 C 89 % 1015,4 hPa 0,0 mm 6,0 km/h (2 Bft) W-NW 289 0 min 0,000 mm 0,0 UV-I 7 W/m 13,4 C 9,7 km/h (2 Bft)
04.09.2016 19:24 15,2 C 15,2 C 89 % 1015,4 hPa 0,0 mm 4,2 km/h (1 Bft) W-SW 252 0 min 0,000 mm 0,0 UV-I 7 W/m 13,4 C 6,4 km/h (2 Bft)
04.09.2016 19:25 15,2 C 15,2 C 89 % 1015,4 hPa 0,0 mm 7,5 km/h (2 Bft) W-NW 288 0 min 0,000 mm 0,0 UV-I 7 W/m 13,4 C 11,3 km/h (2 Bft)
04.09.2016 19:26 15,1 C 15,2 C 89 % 1015,4 hPa 0,2 mm 7,0 km/h (2 Bft) W-SW 243 0 min 0,000 mm 0,0 UV-I 7 W/m 13,3 C 12,9 km/h (3 Bft)
04.09.2016 19:27 15,1 C 15,2 C 89 % 1015,4 hPa 0,0 mm 6,9 km/h (2 Bft) SW 236 0 min 0,000 mm 0,0 UV-I 7 W/m 13,3 C 9,7 km/h (2 Bft)
04.09.2016 19:28 15,1 C 15,1 C 89 % 1015,4 hPa 0,0 mm 4,9 km/h (1 Bft) W-SW 248 0 min 0,000 mm 0,0 UV-I 7 W/m 13,3 C 8,0 km/h (2 Bft)
04.09.2016 19:29 15,1 C 15,1 C 89 % 1015,5 hPa 0,0 mm 5,0 km/h (1 Bft) W-SW 252 0 min 0,000 mm 0,0 UV-I 7 W/m 13,3 C 11,3 km/h (2 Bft)
04.09.2016 19:30 15,1 C 15,1 C 90 % 1015,5 hPa 0,0 mm 5,0 km/h (1 Bft) S 185 0 min 0,000 mm 0,0 UV-I 5 W/m 13,5 C 9,7 km/h (2 Bft)
04.09.2016 19:31 15,1 C 15,1 C 89 % 1015,5 hPa 0,0 mm 5,0 km/h (1 Bft) W-SW 242 0 min 0,000 mm 0,0 UV-I 0 W/m 13,3 C 6,4 km/h (2 Bft)
04.09.2016 19:32 15,1 C 15,1 C 90 % 1015,6 hPa 0,0 mm 6,2 km/h (2 Bft) W 268 0 min 0,000 mm 0,0 UV-I 0 W/m 13,5 C 9,7 km/h (2 Bft)
04.09.2016 19:33 15,1 C 15,1 C 90 % 1015,6 hPa 0,0 mm 6,0 km/h (2 Bft) W-SW 251 0 min 0,000 mm 0,0 UV-I 0 W/m 13,5 C 9,7 km/h (2 Bft)
04.09.2016 19:34 15,1 C 15,1 C 90 % 1015,6 hPa 0,0 mm 5,6 km/h (1 Bft) W-SW 238 0 min 0,000 mm 0,0 UV-I 0 W/m 13,5 C 12,9 km/h (3 Bft)
04.09.2016 19:35 15,1 C 15,1 C 90 % 1015,5 hPa 0,0 mm 6,6 km/h (2 Bft) W-SW 238 0 min 0,000 mm 0,0 UV-I 0 W/m 13,5 C 12,9 km/h (3 Bft)
04.09.2016 19:36 15,1 C 15,1 C 90 % 1015,5 hPa 0,0 mm 4,0 km/h (1 Bft) W-SW 242 0 min 0,000 mm 0,0 UV-I 0 W/m 13,5 C 4,8 km/h (1 Bft)
04.09.2016 19:37 15,1 C 15,1 C 90 % 1015,6 hPa 0,0 mm 5,4 km/h (1 Bft) SW 220 0 min 0,000 mm 0,0 UV-I 0 W/m 13,5 C 8,0 km/h (2 Bft)
04.09.2016 19:38 15,1 C 15,1 C 90 % 1015,6 hPa 0,0 mm 3,4 km/h (1 Bft) SW 223 0 min 0,000 mm 0,0 UV-I 0 W/m 13,5 C 6,4 km/h (2 Bft)
04.09.2016 19:39 15,0 C 15,1 C 90 % 1015,5 hPa 0,0 mm 3,9 km/h (1 Bft) W-SW 238 0 min 0,000 mm 0,0 UV-I 0 W/m 13,4 C 6,4 km/h (2 Bft)
04.09.2016 19:40 15,0 C 15,0 C 90 % 1015,5 hPa 0,0 mm 3,9 km/h (1 Bft) W-SW 243 0 min 0,000 mm 0,0 UV-I 0 W/m 13,4 C 6,4 km/h (2 Bft)
04.09.2016 19:41 15,1 C 15,1 C 90 % 1015,5 hPa 0,0 mm 5,2 km/h (1 Bft) W-SW 240 0 min 0,000 mm 0,0 UV-I 0 W/m 13,5 C 9,7 km/h (2 Bft)
04.09.2016 19:42 15,0 C 15,1 C 90 % 1015,5 hPa 0,0 mm 3,8 km/h (1 Bft) W-SW 238 0 min 0,000 mm 0,0 UV-I 0 W/m 13,4 C 4,8 km/h (1 Bft)
04.09.2016 19:43 15,1 C 15,1 C 90 % 1015,5 hPa 0,0 mm 4,5 km/h (1 Bft) S 183 0 min 0,000 mm 0,0 UV-I 0 W/m 13,5 C 8,0 km/h (2 Bft)
04.09.2016 19:44 15,1 C 15,1 C 90 % 1015,5 hPa 0,0 mm 1,5 km/h (1 Bft) S 183 0 min 0,000 mm 0,0 UV-I 0 W/m 13,5 C 3,2 km/h (1 Bft)
04.09.2016 19:45 15,1 C 15,1 C 90 % 1015,5 hPa 0,0 mm 3,5 km/h (1 Bft) W-SW 239 0 min 0,000 mm 0,0 UV-I 0 W/m 13,5 C 6,4 km/h (2 Bft)
04.09.2016 19:46 15,1 C 15,1 C 90 % 1015,5 hPa 0,0 mm 4,9 km/h (1 Bft) S 179 0 min 0,000 mm 0,0 UV-I 0 W/m 13,5 C 8,0 km/h (2 Bft)
04.09.2016 19:47 15,1 C 15,1 C 90 % 1015,5 hPa 0,0 mm 2,5 km/h (1 Bft) S 190 0 min 0,000 mm 0,0 UV-I 0 W/m 13,5 C 4,8 km/h (1 Bft)
04.09.2016 19:48 15,1 C 15,1 C 90 % 1015,5 hPa 0,0 mm 5,6 km/h (1 Bft) S 173 0 min 0,000 mm 0,0 UV-I 0 W/m 13,5 C 12,9 km/h (3 Bft)
04.09.2016 19:49 15,2 C 15,2 C 90 % 1015,5 hPa 0,0 mm 5,7 km/h (1 Bft) SW 233 0 min 0,000 mm 0,0 UV-I 0 W/m 13,6 C 11,3 km/h (2 Bft)
04.09.2016 19:50 15,3 C 15,3 C 90 % 1015,5 hPa 0,0 mm 5,2 km/h (1 Bft) W-SW 253 0 min 0,000 mm 0,0 UV-I 0 W/m 13,7 C 8,0 km/h (2 Bft)
04.09.2016 19:51 15,3 C 15,3 C 90 % 1015,6 hPa 0,0 mm 5,6 km/h (1 Bft) SW 233 0 min 0,000 mm 0,0 UV-I 0 W/m 13,7 C 9,7 km/h (2 Bft)
04.09.2016 19:52 15,3 C 15,3 C 90 % 1015,5 hPa 0,0 mm 6,2 km/h (2 Bft) SW 234 0 min 0,000 mm 0,0 UV-I 0 W/m 13,7 C 11,3 km/h (2 Bft)
04.09.2016 19:53 15,3 C 15,3 C 89 % 1015,5 hPa 0,0 mm 9,5 km/h (2 Bft) W-SW 239 0 min 0,000 mm 0,0 UV-I 0 W/m 13,5 C 16,1 km/h (3 Bft)
04.09.2016 19:54 15,4 C 15,4 C 89 % 1015,5 hPa 0,0 mm 4,5 km/h (1 Bft) W 265 0 min 0,000 mm 0,0 UV-I 0 W/m 13,6 C 6,4 km/h (2 Bft)
04.09.2016 19:55 15,4 C 15,4 C 89 % 1015,6 hPa 0,2 mm 7,7 km/h (2 Bft) SW 219 0 min 0,000 mm 0,0 UV-I 0 W/m 13,6 C 12,9 km/h (3 Bft)
04.09.2016 19:56 15,4 C 15,4 C 89 % 1015,6 hPa 0,0 mm 7,2 km/h (2 Bft) S-SW 205 0 min 0,000 mm 0,0 UV-I 0 W/m 13,6 C 14,5 km/h (3 Bft)
04.09.2016 19:57 15,4 C 15,4 C 89 % 1015,7 hPa 0,0 mm 3,0 km/h (1 Bft) W-SW 245 0 min 0,000 mm 0,0 UV-I 0 W/m 13,6 C 4,8 km/h (1 Bft)
04.09.2016 19:58 15,4 C 15,4 C 89 % 1015,7 hPa 0,0 mm 7,6 km/h (2 Bft) S-SW 196 0 min 0,000 mm 0,0 UV-I 0 W/m 13,6 C 14,5 km/h (3 Bft)
04.09.2016 19:59 15,4 C 15,5 C 89 % 1015,7 hPa 0,0 mm 6,1 km/h (2 Bft) S-SW 198 0 min 0,000 mm 0,0 UV-I 0 W/m 13,6 C 9,7 km/h (2 Bft)
04.09.2016 20:00 15,4 C 15,4 C 89 % 1015,7 hPa 0,0 mm 6,5 km/h (2 Bft) W-SW 250 0 min 0,000 mm 0,0 UV-I 0 W/m 13,6 C 11,3 km/h (2 Bft)
04.09.2016 20:01 15,4 C 15,4 C 89 % 1015,7 hPa 0,0 mm 6,2 km/h (2 Bft) W-SW 245 0 min 0,025 mm 0,0 UV-I 0 W/m 13,6 C 11,3 km/h (2 Bft)
04.09.2016 20:02 15,4 C 15,4 C 89 % 1015,7 hPa 0,2 mm 7,9 km/h (2 Bft) W 267 0 min 0,001 mm 0,0 UV-I 0 W/m 13,6 C 11,3 km/h (2 Bft)
04.09.2016 20:03 15,4 C 15,4 C 89 % 1015,6 hPa 0,0 mm 7,6 km/h (2 Bft) W-SW 252 0 min 0,000 mm 0,0 UV-I 0 W/m 13,6 C 12,9 km/h (3 Bft)
04.09.2016 20:04 15,4 C 15,4 C 89 % 1015,7 hPa 0,0 mm 8,8 km/h (2 Bft) W 271 0 min 0,000 mm 0,0 UV-I 0 W/m 13,6 C 16,1 km/h (3 Bft)
04.09.2016 20:05 15,4 C 15,4 C 89 % 1015,7 hPa 0,0 mm 8,5 km/h (2 Bft) SW 229 0 min 0,000 mm 0,0 UV-I 0 W/m 13,6 C 12,9 km/h (3 Bft)
04.09.2016 20:06 15,4 C 15,4 C 89 % 1015,8 hPa 0,0 mm 8,6 km/h (2 Bft) SW 230 0 min 0,000 mm 0,0 UV-I 0 W/m 13,6 C 17,7 km/h (3 Bft)
04.09.2016 20:07 15,4 C 15,4 C 89 % 1015,8 hPa 0,2 mm 7,8 km/h (2 Bft) W-NW 283 0 min 0,000 mm 0,0 UV-I 0 W/m 13,6 C 12,9 km/h (3 Bft)
04.09.2016 20:08 15,4 C 15,4 C 89 % 1015,7 hPa 0,0 mm 11,7 km/h (2 Bft) W-SW 253 0 min 0,000 mm 0,0 UV-I 0 W/m 13,6 C 16,1 km/h (3 Bft)
04.09.2016 20:09 15,4 C 15,4 C 89 % 1015,8 hPa 0,0 mm 11,2 km/h (2 Bft) SW 229 0 min 0,000 mm 0,0 UV-I 0 W/m 13,6 C 16,1 km/h (3 Bft)
04.09.2016 20:10 15,3 C 15,4 C 89 % 1015,8 hPa 0,0 mm 9,9 km/h (2 Bft) W-SW 252 0 min 0,000 mm 0,0 UV-I 0 W/m 13,5 C 16,1 km/h (3 Bft)
04.09.2016 20:11 15,3 C 15,3 C 89 % 1015,9 hPa 0,0 mm 9,5 km/h (2 Bft) W 262 0 min 0,000 mm 0,0 UV-I 0 W/m 13,5 C 12,9 km/h (3 Bft)
04.09.2016 20:12 15,3 C 15,3 C 89 % 1015,8 hPa 0,0 mm 5,8 km/h (2 Bft) SW 232 0 min 0,000 mm 0,0 UV-I 0 W/m 13,5 C 8,0 km/h (2 Bft)
04.09.2016 20:13 15,2 C 15,3 C 89 % 1015,8 hPa 0,0 mm 8,8 km/h (2 Bft) W-SW 248 0 min 0,000 mm 0,0 UV-I 0 W/m 13,4 C 14,5 km/h (3 Bft)
04.09.2016 20:14 15,2 C 15,3 C 89 % 1015,9 hPa 0,0 mm 8,2 km/h (2 Bft) SW 218 0 min 0,000 mm 0,0 UV-I 0 W/m 13,4 C 12,9 km/h (3 Bft)
04.09.2016 20:15 15,2 C 15,2 C 89 % 1015,9 hPa 0,2 mm 6,8 km/h (2 Bft) W-NW 296 0 min 0,000 mm 0,0 UV-I 0 W/m 13,4 C 11,3 km/h (2 Bft)
04.09.2016 20:16 15,2 C 15,2 C 89 % 1015,9 hPa 0,0 mm 10,8 km/h (2 Bft) S-SW 201 0 min 0,000 mm 0,0 UV-I 0 W/m 13,4 C 16,1 km/h (3 Bft)
04.09.2016 20:17 15,1 C 15,2 C 89 % 1015,9 hPa 0,0 mm 6,4 km/h (2 Bft) SW 231 0 min 0,000 mm 0,0 UV-I 0 W/m 13,3 C 11,3 km/h (2 Bft)
04.09.2016 20:18 15,1 C 15,2 C 89 % 1015,9 hPa 0,0 mm 9,8 km/h (2 Bft) W 274 0 min 0,000 mm 0,0 UV-I 0 W/m 13,3 C 12,9 km/h (3 Bft)
04.09.2016 20:19 15,1 C 15,1 C 89 % 1015,9 hPa 0,0 mm 7,4 km/h (2 Bft) W 266 0 min 0,000 mm 0,0 UV-I 0 W/m 13,3 C 11,3 km/h (2 Bft)
04.09.2016 20:20 15,1 C 15,1 C 90 % 1015,9 hPa 0,0 mm 8,4 km/h (2 Bft) W-SW 244 0 min 0,000 mm 0,0 UV-I 0 W/m 13,5 C 14,5 km/h (3 Bft)
04.09.2016 20:21 15,0 C 15,1 C 90 % 1015,9 hPa 0,0 mm 5,5 km/h (1 Bft) W-SW 257 0 min 0,000 mm 0,0 UV-I 0 W/m 13,4 C 11,3 km/h (2 Bft)
04.09.2016 20:22 15,0 C 15,0 C 90 % 1015,9 hPa 0,0 mm 6,2 km/h (2 Bft) W 277 0 min 0,000 mm 0,0 UV-I 0 W/m 13,4 C 11,3 km/h (2 Bft)
04.09.2016 20:23 15,0 C 15,0 C 90 % 1015,9 hPa 0,0 mm 3,9 km/h (1 Bft) N 355 0 min 0,000 mm 0,0 UV-I 0 W/m 13,4 C 6,4 km/h (2 Bft)
04.09.2016 20:24 15,0 C 15,0 C 90 % 1015,9 hPa 0,0 mm 8,4 km/h (2 Bft) W 260 0 min 0,000 mm 0,0 UV-I 0 W/m 13,4 C 12,9 km/h (3 Bft)
04.09.2016 20:25 14,9 C 15,0 C 90 % 1015,9 hPa 0,0 mm 13,2 km/h (3 Bft) W-SW 246 0 min 0,000 mm 0,0 UV-I 0 W/m 13,3 C 17,7 km/h (3 Bft)
04.09.2016 20:26 14,9 C 14,9 C 90 % 1015,9 hPa 0,0 mm 10,4 km/h (2 Bft) SW 230 0 min 0,000 mm 0,0 UV-I 0 W/m 13,3 C 14,5 km/h (3 Bft)
04.09.2016 20:27 14,9 C 14,9 C 89 % 1015,9 hPa 0,0 mm 5,6 km/h (1 Bft) W 269 0 min 0,000 mm 0,0 UV-I 0 W/m 13,1 C 11,3 km/h (2 Bft)
04.09.2016 20:28 14,9 C 14,9 C 89 % 1016,0 hPa 0,0 mm 8,8 km/h (2 Bft) W 267 0 min 0,000 mm 0,0 UV-I 0 W/m 13,1 C 12,9 km/h (3 Bft)
04.09.2016 20:29 14,9 C 14,9 C 89 % 1016,0 hPa 0,0 mm 10,4 km/h (2 Bft) W-SW 254 0 min 0,000 mm 0,0 UV-I 0 W/m 13,1 C 17,7 km/h (3 Bft)
04.09.2016 20:30 14,9 C 14,9 C 89 % 1015,9 hPa 0,0 mm 6,3 km/h (2 Bft) W-SW 246 0 min 0,000 mm 0,0 UV-I 0 W/m 13,1 C 14,5 km/h (3 Bft)
04.09.2016 20:31 14,9 C 14,9 C 89 % 1016,0 hPa 0,0 mm 14,6 km/h (3 Bft) W 262 0 min 0,000 mm 0,0 UV-I 0 W/m 13,1 C 20,9 km/h (4 Bft)
04.09.2016 20:32 14,9 C 14,9 C 89 % 1016,0 hPa 0,0 mm 9,7 km/h (2 Bft) W-SW 254 0 min 0,000 mm 0,0 UV-I 0 W/m 13,1 C 14,5 km/h (3 Bft)
04.09.2016 20:33 14,9 C 14,9 C 89 % 1016,0 hPa 0,0 mm 4,2 km/h (1 Bft) S 179 0 min 0,000 mm 0,0 UV-I 0 W/m 13,1 C 6,4 km/h (2 Bft)
04.09.2016 20:34 14,8 C 14,9 C 88 % 1015,9 hPa 0,0 mm 3,9 km/h (1 Bft) SW 223 0 min 0,000 mm 0,0 UV-I 0 W/m 12,8 C 6,4 km/h (2 Bft)
04.09.2016 20:35 14,8 C 14,8 C 88 % 1016,0 hPa 0,0 mm 10,7 km/h (2 Bft) W-SW 242 0 min 0,000 mm 0,0 UV-I 0 W/m 12,8 C 19,3 km/h (3 Bft)
04.09.2016 20:36 14,8 C 14,8 C 88 % 1015,9 hPa 0,0 mm 8,2 km/h (2 Bft) S 190 0 min 0,000 mm 0,0 UV-I 0 W/m 12,8 C 19,3 km/h (3 Bft)
04.09.2016 20:37 14,8 C 14,9 C 88 % 1015,9 hPa 0,0 mm 5,1 km/h (1 Bft) SW 219 0 min 0,000 mm 0,0 UV-I 0 W/m 12,8 C 9,7 km/h (2 Bft)
04.09.2016 20:38 14,8 C 14,8 C 87 % 1015,9 hPa 0,2 mm 8,8 km/h (2 Bft) SW 216 0 min 0,000 mm 0,0 UV-I 0 W/m 12,7 C 17,7 km/h (3 Bft)
04.09.2016 20:39 14,8 C 14,8 C 88 % 1015,9 hPa 0,0 mm 7,9 km/h (2 Bft) W 265 0 min 0,000 mm 0,0 UV-I 0 W/m 12,8 C 12,9 km/h (3 Bft)
04.09.2016 20:40 14,8 C 14,8 C 88 % 1016,0 hPa 0,0 mm 11,3 km/h (2 Bft) SW 230 0 min 0,000 mm 0,0 UV-I 0 W/m 12,8 C 16,1 km/h (3 Bft)
04.09.2016 20:41 14,8 C 14,8 C 88 % 1016,0 hPa 0,0 mm 5,5 km/h (1 Bft) W 261 0 min 0,000 mm 0,0 UV-I 0 W/m 12,8 C 9,7 km/h (2 Bft)
04.09.2016 20:42 14,7 C 14,8 C 88 % 1015,9 hPa 0,0 mm 9,6 km/h (2 Bft) W-SW 253 0 min 0,000 mm 0,0 UV-I 0 W/m 12,7 C 12,9 km/h (3 Bft)
04.09.2016 20:43 14,7 C 14,8 C 88 % 1015,9 hPa 0,0 mm 4,8 km/h (1 Bft) W 279 0 min 0,000 mm 0,0 UV-I 0 W/m 12,7 C 11,3 km/h (2 Bft)
04.09.2016 20:44 14,7 C 14,7 C 88 % 1015,9 hPa 0,0 mm 6,7 km/h (2 Bft) SW 223 0 min 0,000 mm 0,0 UV-I 0 W/m 12,7 C 12,9 km/h (3 Bft)
04.09.2016 20:45 14,7 C 14,7 C 88 % 1015,8 hPa 0,0 mm 6,6 km/h (2 Bft) W-SW 242 0 min 0,000 mm 0,0 UV-I 0 W/m 12,7 C 9,7 km/h (2 Bft)
04.09.2016 20:46 14,7 C 14,7 C 88 % 1015,8 hPa 0,0 mm 8,7 km/h (2 Bft) W 263 0 min 0,000 mm 0,0 UV-I 0 W/m 12,7 C 17,7 km/h (3 Bft)
04.09.2016 20:47 14,6 C 14,7 C 89 % 1015,8 hPa 0,0 mm 5,5 km/h (1 Bft) SW 236 0 min 0,000 mm 0,0 UV-I 0 W/m 12,8 C 8,0 km/h (2 Bft)
04.09.2016 20:48 14,6 C 14,6 C 89 % 1015,8 hPa 0,0 mm 3,9 km/h (1 Bft) W-SW 239 0 min 0,000 mm 0,0 UV-I 0 W/m 12,8 C 6,4 km/h (2 Bft)
04.09.2016 20:49 14,6 C 14,6 C 88 % 1015,7 hPa 0,0 mm 6,3 km/h (2 Bft) SW 219 0 min 0,000 mm 0,0 UV-I 0 W/m 12,6 C 12,9 km/h (3 Bft)
04.09.2016 20:50 14,5 C 14,6 C 89 % 1015,6 hPa 0,0 mm 2,4 km/h (1 Bft) SW 222 0 min 0,000 mm 0,0 UV-I 0 W/m 12,7 C 4,8 km/h (1 Bft)
04.09.2016 20:51 14,4 C 14,5 C 88 % 1015,6 hPa 0,0 mm 1,0 km/h (0 Bft) SW 222 0 min 0,000 mm 0,0 UV-I 0 W/m 12,4 C 3,2 km/h (1 Bft)
04.09.2016 20:52 14,4 C 14,5 C 88 % 1015,6 hPa 0,0 mm 5,4 km/h (1 Bft) SW 220 0 min 0,000 mm 0,0 UV-I 0 W/m 12,4 C 12,9 km/h (3 Bft)
04.09.2016 20:53 14,4 C 14,4 C 88 % 1015,6 hPa 0,0 mm 4,5 km/h (1 Bft) S-SW 209 0 min 0,000 mm 0,0 UV-I 0 W/m 12,4 C 6,4 km/h (2 Bft)
04.09.2016 20:54 14,4 C 14,4 C 88 % 1015,5 hPa 0,0 mm 4,2 km/h (1 Bft) SW 217 0 min 0,000 mm 0,0 UV-I 0 W/m 12,4 C 8,0 km/h (2 Bft)
04.09.2016 20:55 14,4 C 14,4 C 88 % 1015,5 hPa 0,0 mm 3,6 km/h (1 Bft) W-SW 247 0 min 0,000 mm 0,0 UV-I 0 W/m 12,4 C 6,4 km/h (2 Bft)
04.09.2016 20:56 14,4 C 14,4 C 88 % 1015,5 hPa 0,0 mm 5,2 km/h (1 Bft) SW 234 0 min 0,000 mm 0,0 UV-I 0 W/m 12,4 C 12,9 km/h (3 Bft)
04.09.2016 20:57 14,4 C 14,4 C 88 % 1015,4 hPa 0,0 mm 6,1 km/h (2 Bft) SW 235 0 min 0,000 mm 0,0 UV-I 0 W/m 12,4 C 9,7 km/h (2 Bft)
04.09.2016 20:58 14,3 C 14,4 C 89 % 1015,4 hPa 0,0 mm 2,5 km/h (1 Bft) S-SW 208 0 min 0,000 mm 0,0 UV-I 0 W/m 12,5 C 8,0 km/h (2 Bft)
04.09.2016 20:59 14,3 C 14,3 C 89 % 1015,4 hPa 0,0 mm 3,0 km/h (1 Bft) SW 233 0 min 0,000 mm 0,0 UV-I 0 W/m 12,5 C 6,4 km/h (2 Bft)
04.09.2016 21:00 14,3 C 14,3 C 88 % 1015,4 hPa 0,0 mm 1,3 km/h (1 Bft) W-SW 244 0 min 0,000 mm 0,0 UV-I 0 W/m 12,3 C 4,8 km/h (1 Bft)
04.09.2016 21:01 14,3 C 14,3 C 89 % 1015,4 hPa 0,0 mm 3,8 km/h (1 Bft) W-NW 286 0 min 0,025 mm 0,0 UV-I 0 W/m 12,5 C 6,4 km/h (2 Bft)
04.09.2016 21:02 14,2 C 14,3 C 89 % 1015,4 hPa 0,0 mm 5,2 km/h (1 Bft) W-NW 284 0 min 0,000 mm 0,0 UV-I 0 W/m 12,4 C 6,4 km/h (2 Bft)
04.09.2016 21:03 14,2 C 14,2 C 89 % 1015,4 hPa 0,0 mm 6,2 km/h (2 Bft) W-SW 258 0 min 0,000 mm 0,0 UV-I 0 W/m 12,4 C 11,3 km/h (2 Bft)
04.09.2016 21:04 14,2 C 14,2 C 89 % 1015,4 hPa 0,0 mm 3,2 km/h (1 Bft) W-NW 288 0 min 0,000 mm 0,0 UV-I 0 W/m 12,4 C 4,8 km/h (1 Bft)
04.09.2016 21:05 14,2 C 14,2 C 89 % 1015,4 hPa 0,0 mm 4,9 km/h (1 Bft) W-SW 249 0 min 0,000 mm 0,0 UV-I 0 W/m 12,4 C 6,4 km/h (2 Bft)
04.09.2016 21:06 14,2 C 14,2 C 89 % 1015,5 hPa 0,0 mm 4,5 km/h (1 Bft) W-SW 246 0 min 0,000 mm 0,0 UV-I 0 W/m 12,4 C 4,8 km/h (1 Bft)
04.09.2016 21:07 14,2 C 14,2 C 89 % 1015,5 hPa 0,0 mm 2,8 km/h (1 Bft) W 264 0 min 0,000 mm 0,0 UV-I 0 W/m 12,4 C 4,8 km/h (1 Bft)
04.09.2016 21:08 14,2 C 14,2 C 89 % 1015,3 hPa 0,0 mm 2,4 km/h (1 Bft) W 267 0 min 0,000 mm 0,0 UV-I 0 W/m 12,4 C 3,2 km/h (1 Bft)
04.09.2016 21:09 14,2 C 14,2 C 89 % 1015,4 hPa 0,0 mm 1,3 km/h (1 Bft) W 267 0 min 0,000 mm 0,0 UV-I 0 W/m 12,4 C 3,2 km/h (1 Bft)
04.09.2016 21:10 14,2 C 14,2 C 90 % 1015,3 hPa 0,0 mm 3,3 km/h (1 Bft) W 265 0 min 0,000 mm 0,0 UV-I 0 W/m 12,6 C 4,8 km/h (1 Bft)
04.09.2016 21:11 14,1 C 14,2 C 90 % 1015,4 hPa 0,0 mm 4,4 km/h (1 Bft) W-SW 254 0 min 0,000 mm 0,0 UV-I 0 W/m 12,5 C 6,4 km/h (2 Bft)
04.09.2016 21:12 14,1 C 14,1 C 90 % 1015,4 hPa 0,0 mm 3,6 km/h (1 Bft) W 261 0 min 0,000 mm 0,0 UV-I 0 W/m 12,5 C 6,4 km/h (2 Bft)
04.09.2016 21:13 14,1 C 14,1 C 90 % 1015,4 hPa 0,0 mm 3,4 km/h (1 Bft) W-NW 284 0 min 0,000 mm 0,0 UV-I 0 W/m 12,5 C 4,8 km/h (1 Bft)
04.09.2016 21:14 14,1 C 14,1 C 90 % 1015,4 hPa 0,0 mm 1,7 km/h (1 Bft) W-NW 284 0 min 0,000 mm 0,0 UV-I 0 W/m 12,5 C 3,2 km/h (1 Bft)
04.09.2016 21:15 14,0 C 14,1 C 90 % 1015,4 hPa 0,0 mm 1,7 km/h (1 Bft) W 279 0 min 0,000 mm 0,0 UV-I 0 W/m 12,4 C 3,2 km/h (1 Bft)
04.09.2016 21:16 14,0 C 14,1 C 90 % 1015,4 hPa 0,0 mm 1,5 km/h (1 Bft) W 266 0 min 0,000 mm 0,0 UV-I 0 W/m 12,4 C 3,2 km/h (1 Bft)
04.09.2016 21:17 14,0 C 14,1 C 90 % 1015,5 hPa 0,0 mm 3,6 km/h (1 Bft) NW 312 0 min 0,000 mm 0,0 UV-I 0 W/m 12,4 C 4,8 km/h (1 Bft)
04.09.2016 21:18 14,0 C 14,1 C 90 % 1015,4 hPa 0,0 mm 5,0 km/h (1 Bft) W 262 0 min 0,000 mm 0,0 UV-I 0 W/m 12,4 C 6,4 km/h (2 Bft)
04.09.2016 21:19 14,0 C 14,1 C 90 % 1015,4 hPa 0,0 mm 1,1 km/h (1 Bft) W 262 0 min 0,000 mm 0,0 UV-I 0 W/m 12,4 C 3,2 km/h (1 Bft)
04.09.2016 21:20 14,0 C 14,1 C 91 % 1015,4 hPa 0,0 mm 3,9 km/h (1 Bft) W 272 0 min 0,000 mm 0,0 UV-I 0 W/m 12,6 C 8,0 km/h (2 Bft)
04.09.2016 21:21 14,1 C 14,1 C 90 % 1015,5 hPa 0,0 mm 3,5 km/h (1 Bft) W-SW 251 0 min 0,000 mm 0,0 UV-I 0 W/m 12,5 C 6,4 km/h (2 Bft)
04.09.2016 21:22 14,1 C 14,1 C 90 % 1015,5 hPa 0,0 mm 4,2 km/h (1 Bft) W 271 0 min 0,000 mm 0,0 UV-I 0 W/m 12,5 C 6,4 km/h (2 Bft)
04.09.2016 21:23 14,1 C 14,1 C 90 % 1015,4 hPa 0,0 mm 3,0 km/h (1 Bft) W-NW 300 0 min 0,000 mm 0,0 UV-I 0 W/m 12,5 C 6,4 km/h (2 Bft)
04.09.2016 21:24 14,2 C 14,2 C 90 % 1015,4 hPa 0,0 mm 3,7 km/h (1 Bft) S-SW 192 0 min 0,000 mm 0,0 UV-I 0 W/m 12,6 C 9,7 km/h (2 Bft)
04.09.2016 21:25 14,3 C 14,3 C 89 % 1015,4 hPa 0,0 mm 2,8 km/h (1 Bft) W-SW 252 0 min 0,000 mm 0,0 UV-I 0 W/m 12,5 C 4,8 km/h (1 Bft)
04.09.2016 21:26 14,3 C 14,3 C 89 % 1015,5 hPa 0,0 mm 6,4 km/h (2 Bft) W-SW 248 0 min 0,000 mm 0,0 UV-I 0 W/m 12,5 C 9,7 km/h (2 Bft)
04.09.2016 21:27 14,4 C 14,4 C 89 % 1015,5 hPa 0,0 mm 4,4 km/h (1 Bft) W 276 0 min 0,000 mm 0,0 UV-I 0 W/m 12,6 C 6,4 km/h (2 Bft)
04.09.2016 21:28 14,4 C 14,4 C 89 % 1015,4 hPa 0,0 mm 3,0 km/h (1 Bft) W 267 0 min 0,000 mm 0,0 UV-I 0 W/m 12,6 C 6,4 km/h (2 Bft)
04.09.2016 21:29 14,4 C 14,4 C 89 % 1015,5 hPa 0,0 mm 4,3 km/h (1 Bft) W-NW 285 0 min 0,000 mm 0,0 UV-I 0 W/m 12,6 C 6,4 km/h (2 Bft)
04.09.2016 21:30 14,4 C 14,5 C 89 % 1015,5 hPa 0,0 mm 3,5 km/h (1 Bft) SW 223 0 min 0,000 mm 0,0 UV-I 0 W/m 12,6 C 6,4 km/h (2 Bft)
04.09.2016 21:31 14,5 C 14,5 C 89 % 1015,5 hPa 0,0 mm 3,4 km/h (1 Bft) W-NW 282 0 min 0,000 mm 0,0 UV-I 0 W/m 12,7 C 4,8 km/h (1 Bft)
04.09.2016 21:32 14,5 C 14,5 C 89 % 1015,5 hPa 0,0 mm 3,0 km/h (1 Bft) W-SW 244 0 min 0,000 mm 0,0 UV-I 0 W/m 12,7 C 6,4 km/h (2 Bft)
04.09.2016 21:33 14,5 C 14,5 C 89 % 1015,5 hPa 0,0 mm 6,0 km/h (2 Bft) W 279 0 min 0,000 mm 0,0 UV-I 0 W/m 12,7 C 9,7 km/h (2 Bft)
04.09.2016 21:34 14,5 C 14,5 C 89 % 1015,6 hPa 0,0 mm 3,5 km/h (1 Bft) W-SW 248 0 min 0,000 mm 0,0 UV-I 0 W/m 12,7 C 6,4 km/h (2 Bft)
04.09.2016 21:35 14,5 C 14,5 C 89 % 1015,5 hPa 0,0 mm 3,4 km/h (1 Bft) W-NW 284 0 min 0,000 mm 0,0 UV-I 0 W/m 12,7 C 6,4 km/h (2 Bft)
04.09.2016 21:36 14,6 C 14,6 C 88 % 1015,5 hPa 0,0 mm 6,1 km/h (2 Bft) W 261 0 min 0,000 mm 0,0 UV-I 0 W/m 12,6 C 11,3 km/h (2 Bft)
04.09.2016 21:37 14,6 C 14,6 C 89 % 1015,4 hPa 0,0 mm 7,7 km/h (2 Bft) W-SW 241 0 min 0,000 mm 0,0 UV-I 0 W/m 12,8 C 12,9 km/h (3 Bft)
04.09.2016 21:38 14,6 C 14,6 C 89 % 1015,5 hPa 0,0 mm 8,0 km/h (2 Bft) W-SW 244 0 min 0,000 mm 0,0 UV-I 0 W/m 12,8 C 12,9 km/h (3 Bft)
04.09.2016 21:39 14,6 C 14,6 C 88 % 1015,5 hPa 0,0 mm 8,6 km/h (2 Bft) W 281 0 min 0,000 mm 0,0 UV-I 0 W/m 12,6 C 12,9 km/h (3 Bft)
04.09.2016 21:40 14,7 C 14,7 C 88 % 1015,5 hPa 0,0 mm 6,8 km/h (2 Bft) S-SW 211 0 min 0,000 mm 0,0 UV-I 0 W/m 12,7 C 14,5 km/h (3 Bft)
04.09.2016 21:41 14,7 C 14,7 C 87 % 1015,4 hPa 0,0 mm 9,8 km/h (2 Bft) W 273 0 min 0,000 mm 0,0 UV-I 0 W/m 12,6 C 20,9 km/h (4 Bft)
04.09.2016 21:42 14,8 C 14,8 C 87 % 1015,5 hPa 0,0 mm 9,3 km/h (2 Bft) SW 235 0 min 0,000 mm 0,0 UV-I 0 W/m 12,7 C 11,3 km/h (2 Bft)
04.09.2016 21:43 14,9 C 14,9 C 87 % 1015,5 hPa 0,0 mm 6,1 km/h (2 Bft) W-NW 292 0 min 0,000 mm 0,0 UV-I 0 W/m 12,8 C 9,7 km/h (2 Bft)
04.09.2016 21:44 14,9 C 14,9 C 87 % 1015,5 hPa 0,0 mm 7,1 km/h (2 Bft) W-SW 246 0 min 0,000 mm 0,0 UV-I 0 W/m 12,8 C 11,3 km/h (2 Bft)
04.09.2016 21:45 15,0 C 15,0 C 87 % 1015,5 hPa 0,0 mm 8,5 km/h (2 Bft) W 279 0 min 0,000 mm 0,0 UV-I 0 W/m 12,9 C 12,9 km/h (3 Bft)
04.09.2016 21:46 15,0 C 15,1 C 87 % 1015,6 hPa 0,0 mm 12,6 km/h (3 Bft) W-SW 257 0 min 0,000 mm 0,0 UV-I 0 W/m 12,9 C 20,9 km/h (4 Bft)
04.09.2016 21:47 15,0 C 15,1 C 87 % 1015,6 hPa 0,0 mm 10,6 km/h (2 Bft) SW 230 0 min 0,000 mm 0,0 UV-I 0 W/m 12,9 C 14,5 km/h (3 Bft)
04.09.2016 21:48 15,0 C 15,0 C 87 % 1015,6 hPa 0,0 mm 7,2 km/h (2 Bft) W 273 0 min 0,000 mm 0,0 UV-I 0 W/m 12,9 C 11,3 km/h (2 Bft)
04.09.2016 21:49 15,1 C 15,1 C 87 % 1015,6 hPa 0,0 mm 7,6 km/h (2 Bft) W 273 0 min 0,000 mm 0,0 UV-I 0 W/m 13,0 C 12,9 km/h (3 Bft)
04.09.2016 21:50 15,0 C 15,1 C 87 % 1015,6 hPa 0,0 mm 4,2 km/h (1 Bft) W-SW 246 0 min 0,000 mm 0,0 UV-I 0 W/m 12,9 C 8,0 km/h (2 Bft)
04.09.2016 21:51 15,0 C 15,0 C 87 % 1015,5 hPa 0,0 mm 4,3 km/h (1 Bft) W-SW 242 0 min 0,000 mm 0,0 UV-I 0 W/m 12,9 C 8,0 km/h (2 Bft)
04.09.2016 21:52 14,9 C 15,0 C 87 % 1015,6 hPa 0,0 mm 5,3 km/h (1 Bft) W-SW 257 0 min 0,000 mm 0,0 UV-I 0 W/m 12,8 C 9,7 km/h (2 Bft)
04.09.2016 21:53 14,9 C 15,0 C 87 % 1015,6 hPa 0,2 mm 5,0 km/h (1 Bft) S-SW 198 0 min 0,000 mm 0,0 UV-I 0 W/m 12,8 C 6,4 km/h (2 Bft)
04.09.2016 21:54 14,9 C 15,0 C 87 % 1015,5 hPa 0,0 mm 1,4 km/h (1 Bft) S-SW 195 0 min 0,000 mm 0,0 UV-I 0 W/m 12,8 C 3,2 km/h (1 Bft)
04.09.2016 21:55 15,0 C 15,0 C 87 % 1015,6 hPa 0,0 mm 4,9 km/h (1 Bft) W 270 0 min 0,000 mm 0,0 UV-I 0 W/m 12,9 C 9,7 km/h (2 Bft)
04.09.2016 21:56 14,9 C 15,0 C 87 % 1015,6 hPa 0,0 mm 8,6 km/h (2 Bft) W-SW 257 0 min 0,000 mm 0,0 UV-I 0 W/m 12,8 C 12,9 km/h (3 Bft)
04.09.2016 21:57 14,9 C 14,9 C 88 % 1015,7 hPa 0,0 mm 4,6 km/h (1 Bft) W-SW 242 0 min 0,000 mm 0,0 UV-I 0 W/m 12,9 C 6,4 km/h (2 Bft)
04.09.2016 21:58 14,9 C 14,9 C 88 % 1015,7 hPa 0,0 mm 6,6 km/h (2 Bft) SW 230 0 min 0,000 mm 0,0 UV-I 0 W/m 12,9 C 11,3 km/h (2 Bft)
04.09.2016 21:59 14,9 C 14,9 C 87 % 1015,7 hPa 0,0 mm 4,2 km/h (1 Bft) S 189 0 min 0,000 mm 0,0 UV-I 0 W/m 12,8 C 8,0 km/h (2 Bft)
04.09.2016 22:00 14,9 C 14,9 C 87 % 1015,7 hPa 0,0 mm 4,2 km/h (1 Bft) W-SW 248 0 min 0,000 mm 0,0 UV-I 0 W/m 12,8 C 11,3 km/h (2 Bft)
04.09.2016 22:01 14,9 C 14,9 C 88 % 1015,7 hPa 0,0 mm 3,3 km/h (1 Bft) S 169 0 min 0,025 mm 0,0 UV-I 0 W/m 12,9 C 8,0 km/h (2 Bft)
04.09.2016 22:02 14,9 C 14,9 C 87 % 1015,7 hPa 0,0 mm 5,5 km/h (1 Bft) W-SW 246 0 min 0,000 mm 0,0 UV-I 0 W/m 12,8 C 11,3 km/h (2 Bft)
04.09.2016 22:03 14,9 C 14,9 C 87 % 1015,7 hPa 0,0 mm 3,7 km/h (1 Bft) W-SW 251 0 min 0,000 mm 0,0 UV-I 0 W/m 12,8 C 4,8 km/h (1 Bft)
04.09.2016 22:04 14,9 C 14,9 C 88 % 1015,7 hPa 0,0 mm 4,7 km/h (1 Bft) W-SW 238 0 min 0,000 mm 0,0 UV-I 0 W/m 12,9 C 6,4 km/h (2 Bft)
04.09.2016 22:05 14,8 C 14,9 C 88 % 1015,7 hPa 0,0 mm 3,9 km/h (1 Bft) W 267 0 min 0,000 mm 0,0 UV-I 0 W/m 12,8 C 6,4 km/h (2 Bft)
04.09.2016 22:06 14,8 C 14,8 C 88 % 1015,7 hPa 0,0 mm 6,6 km/h (2 Bft) W-SW 248 0 min 0,000 mm 0,0 UV-I 0 W/m 12,8 C 9,7 km/h (2 Bft)
04.09.2016 22:07 14,8 C 14,8 C 88 % 1015,6 hPa 0,0 mm 5,6 km/h (1 Bft) W-SW 254 0 min 0,000 mm 0,0 UV-I 0 W/m 12,8 C 11,3 km/h (2 Bft)
04.09.2016 22:08 14,8 C 14,8 C 88 % 1015,6 hPa 0,0 mm 10,2 km/h (2 Bft) W-SW 239 0 min 0,000 mm 0,0 UV-I 0 W/m 12,8 C 14,5 km/h (3 Bft)
04.09.2016 22:09 14,8 C 14,8 C 88 % 1015,7 hPa 0,0 mm 4,1 km/h (1 Bft) W-SW 244 0 min 0,000 mm 0,0 UV-I 0 W/m 12,8 C 8,0 km/h (2 Bft)
04.09.2016 22:10 14,8 C 14,8 C 88 % 1015,7 hPa 0,0 mm 4,7 km/h (1 Bft) W-NW 284 0 min 0,000 mm 0,0 UV-I 0 W/m 12,8 C 9,7 km/h (2 Bft)
04.09.2016 22:11 14,8 C 14,8 C 88 % 1015,8 hPa 0,0 mm 8,9 km/h (2 Bft) W-SW 248 0 min 0,000 mm 0,0 UV-I 0 W/m 12,8 C 16,1 km/h (3 Bft)
04.09.2016 22:12 14,8 C 14,8 C 88 % 1015,8 hPa 0,0 mm 7,2 km/h (2 Bft) W 274 0 min 0,000 mm 0,0 UV-I 0 W/m 12,8 C 9,7 km/h (2 Bft)
04.09.2016 22:13 14,8 C 14,8 C 88 % 1015,7 hPa 0,0 mm 5,1 km/h (1 Bft) W 274 0 min 0,000 mm 0,0 UV-I 0 W/m 12,8 C 6,4 km/h (2 Bft)
04.09.2016 22:14 14,8 C 14,8 C 88 % 1015,8 hPa 0,0 mm 2,9 km/h (1 Bft) W 279 0 min 0,000 mm 0,0 UV-I 0 W/m 12,8 C 4,8 km/h (1 Bft)
04.09.2016 22:15 14,7 C 14,8 C 88 % 1015,8 hPa 0,0 mm 3,6 km/h (1 Bft) W-SW 244 0 min 0,000 mm 0,0 UV-I 0 W/m 12,7 C 6,4 km/h (2 Bft)
04.09.2016 22:16 14,7 C 14,7 C 88 % 1015,8 hPa 0,0 mm 6,2 km/h (2 Bft) W 274 0 min 0,000 mm 0,0 UV-I 0 W/m 12,7 C 11,3 km/h (2 Bft)
04.09.2016 22:17 14,7 C 14,7 C 88 % 1015,8 hPa 0,0 mm 8,1 km/h (2 Bft) W-SW 246 0 min 0,000 mm 0,0 UV-I 0 W/m 12,7 C 16,1 km/h (3 Bft)
04.09.2016 22:18 14,7 C 14,7 C 88 % 1015,8 hPa 0,0 mm 6,7 km/h (2 Bft) W-SW 254 0 min 0,000 mm 0,0 UV-I 0 W/m 12,7 C 12,9 km/h (3 Bft)
04.09.2016 22:19 14,8 C 14,8 C 88 % 1015,8 hPa 0,0 mm 5,9 km/h (2 Bft) W 274 0 min 0,000 mm 0,0 UV-I 0 W/m 12,8 C 8,0 km/h (2 Bft)
04.09.2016 22:20 14,7 C 14,8 C 88 % 1015,8 hPa 0,0 mm 10,5 km/h (2 Bft) W-NW 286 0 min 0,000 mm 0,0 UV-I 0 W/m 12,7 C 16,1 km/h (3 Bft)
04.09.2016 22:21 14,8 C 14,8 C 87 % 1015,8 hPa 0,0 mm 12,3 km/h (3 Bft) W-NW 296 0 min 0,000 mm 0,0 UV-I 0 W/m 12,7 C 19,3 km/h (3 Bft)
04.09.2016 22:22 14,8 C 14,8 C 87 % 1015,9 hPa 0,0 mm 13,1 km/h (3 Bft) W-SW 250 0 min 0,000 mm 0,0 UV-I 0 W/m 12,7 C 16,1 km/h (3 Bft)
04.09.2016 22:23 14,8 C 14,8 C 87 % 1015,9 hPa 0,0 mm 11,2 km/h (2 Bft) W 272 0 min 0,000 mm 0,0 UV-I 0 W/m 12,7 C 16,1 km/h (3 Bft)
04.09.2016 22:24 14,8 C 14,8 C 87 % 1015,9 hPa 0,0 mm 12,0 km/h (2 Bft) W 269 0 min 0,000 mm 0,0 UV-I 0 W/m 12,7 C 16,1 km/h (3 Bft)
04.09.2016 22:25 14,8 C 14,8 C 87 % 1015,9 hPa 0,0 mm 9,0 km/h (2 Bft) W-NW 282 0 min 0,000 mm 0,0 UV-I 0 W/m 12,7 C 14,5 km/h (3 Bft)
04.09.2016 22:26 14,8 C 14,8 C 87 % 1015,9 hPa 0,0 mm 8,0 km/h (2 Bft) W 262 0 min 0,000 mm 0,0 UV-I 0 W/m 12,7 C 14,5 km/h (3 Bft)
04.09.2016 22:27 14,8 C 14,8 C 87 % 1015,9 hPa 0,0 mm 5,7 km/h (1 Bft) W 281 0 min 0,000 mm 0,0 UV-I 0 W/m 12,7 C 9,7 km/h (2 Bft)
04.09.2016 22:28 14,8 C 14,8 C 87 % 1015,9 hPa 0,0 mm 7,3 km/h (2 Bft) W-NW 292 0 min 0,000 mm 0,0 UV-I 0 W/m 12,7 C 11,3 km/h (2 Bft)
04.09.2016 22:29 14,8 C 14,8 C 87 % 1016,0 hPa 0,0 mm 6,1 km/h (2 Bft) W 266 0 min 0,000 mm 0,0 UV-I 0 W/m 12,7 C 9,7 km/h (2 Bft)
04.09.2016 22:30 14,8 C 14,8 C 88 % 1015,9 hPa 0,0 mm 3,8 km/h (1 Bft) W-NW 285 0 min 0,000 mm 0,0 UV-I 0 W/m 12,8 C 6,4 km/h (2 Bft)
04.09.2016 22:31 14,8 C 14,8 C 88 % 1016,1 hPa 0,0 mm 5,5 km/h (1 Bft) W-NW 285 0 min 0,000 mm 0,0 UV-I 0 W/m 12,8 C 6,4 km/h (2 Bft)
04.09.2016 22:32 14,7 C 14,8 C 88 % 1016,1 hPa 0,0 mm 8,8 km/h (2 Bft) W-NW 282 0 min 0,000 mm 0,0 UV-I 0 W/m 12,7 C 14,5 km/h (3 Bft)
04.09.2016 22:33 14,7 C 14,7 C 88 % 1016,1 hPa 0,0 mm 5,2 km/h (1 Bft) W-NW 290 0 min 0,000 mm 0,0 UV-I 0 W/m 12,7 C 6,4 km/h (2 Bft)
04.09.2016 22:34 14,7 C 14,7 C 88 % 1016,1 hPa 0,2 mm 6,2 km/h (2 Bft) W 277 0 min 0,000 mm 0,0 UV-I 0 W/m 12,7 C 11,3 km/h (2 Bft)
04.09.2016 22:35 14,7 C 14,7 C 88 % 1016,1 hPa 0,0 mm 5,7 km/h (1 Bft) W 281 0 min 0,000 mm 0,0 UV-I 0 W/m 12,7 C 9,7 km/h (2 Bft)
04.09.2016 22:36 14,6 C 14,7 C 89 % 1016,0 hPa 0,0 mm 7,4 km/h (2 Bft) W-NW 295 0 min 0,000 mm 0,0 UV-I 0 W/m 12,8 C 12,9 km/h (3 Bft)
04.09.2016 22:37 14,6 C 14,7 C 89 % 1016,1 hPa 0,0 mm 10,3 km/h (2 Bft) W-SW 252 0 min 0,000 mm 0,0 UV-I 0 W/m 12,8 C 16,1 km/h (3 Bft)
04.09.2016 22:38 14,6 C 14,6 C 89 % 1016,0 hPa 0,0 mm 10,3 km/h (2 Bft) W 275 0 min 0,000 mm 0,0 UV-I 0 W/m 12,8 C 16,1 km/h (3 Bft)
04.09.2016 22:39 14,6 C 14,6 C 89 % 1016,0 hPa 0,0 mm 8,2 km/h (2 Bft) W 267 0 min 0,000 mm 0,0 UV-I 0 W/m 12,8 C 12,9 km/h (3 Bft)
04.09.2016 22:40 14,6 C 14,6 C 89 % 1016,0 hPa 0,0 mm 6,1 km/h (2 Bft) W 270 0 min 0,000 mm 0,0 UV-I 0 W/m 12,8 C 9,7 km/h (2 Bft)
04.09.2016 22:41 14,5 C 14,6 C 89 % 1016,1 hPa 0,0 mm 9,0 km/h (2 Bft) W 273 0 min 0,000 mm 0,0 UV-I 0 W/m 12,7 C 12,9 km/h (3 Bft)
04.09.2016 22:42 14,4 C 14,5 C 89 % 1016,0 hPa 0,0 mm 8,2 km/h (2 Bft) W 274 0 min 0,000 mm 0,0 UV-I 0 W/m 12,6 C 11,3 km/h (2 Bft)
04.09.2016 22:43 14,4 C 14,4 C 89 % 1015,9 hPa 0,0 mm 5,0 km/h (1 Bft) W-NW 294 0 min 0,000 mm 0,0 UV-I 0 W/m 12,6 C 6,4 km/h (2 Bft)
04.09.2016 22:44 14,4 C 14,4 C 90 % 1016,0 hPa 0,0 mm 5,2 km/h (1 Bft) W-SW 251 0 min 0,000 mm 0,0 UV-I 0 W/m 12,8 C 8,0 km/h (2 Bft)
04.09.2016 22:45 14,4 C 14,4 C 90 % 1016,0 hPa 0,0 mm 7,6 km/h (2 Bft) W-SW 242 0 min 0,000 mm 0,0 UV-I 0 W/m 12,8 C 14,5 km/h (3 Bft)
04.09.2016 22:46 14,3 C 14,4 C 90 % 1016,1 hPa 0,0 mm 9,4 km/h (2 Bft) W 281 0 min 0,000 mm 0,0 UV-I 0 W/m 12,7 C 19,3 km/h (3 Bft)
04.09.2016 22:47 14,3 C 14,3 C 90 % 1016,0 hPa 0,0 mm 9,8 km/h (2 Bft) W-SW 246 0 min 0,000 mm 0,0 UV-I 0 W/m 12,7 C 14,5 km/h (3 Bft)
04.09.2016 22:48 14,3 C 14,3 C 90 % 1016,0 hPa 0,0 mm 7,8 km/h (2 Bft) W 261 0 min 0,000 mm 0,0 UV-I 0 W/m 12,7 C 11,3 km/h (2 Bft)
04.09.2016 22:49 14,3 C 14,3 C 90 % 1016,0 hPa 0,0 mm 9,2 km/h (2 Bft) W-SW 238 0 min 0,000 mm 0,0 UV-I 0 W/m 12,7 C 12,9 km/h (3 Bft)
04.09.2016 22:50 14,3 C 14,3 C 90 % 1015,9 hPa 0,0 mm 10,5 km/h (2 Bft) W-SW 246 0 min 0,000 mm 0,0 UV-I 0 W/m 12,7 C 14,5 km/h (3 Bft)
04.09.2016 22:51 14,3 C 14,3 C 90 % 1016,0 hPa 0,0 mm 12,5 km/h (3 Bft) W-SW 255 0 min 0,000 mm 0,0 UV-I 0 W/m 12,7 C 20,9 km/h (4 Bft)
04.09.2016 22:52 14,3 C 14,3 C 90 % 1015,9 hPa 0,0 mm 7,0 km/h (2 Bft) SW 229 0 min 0,000 mm 0,0 UV-I 0 W/m 12,7 C 11,3 km/h (2 Bft)
04.09.2016 22:53 14,3 C 14,3 C 90 % 1015,9 hPa 0,0 mm 10,4 km/h (2 Bft) W-SW 254 0 min 0,000 mm 0,0 UV-I 0 W/m 12,7 C 16,1 km/h (3 Bft)
04.09.2016 22:54 14,3 C 14,3 C 90 % 1015,9 hPa 0,0 mm 7,0 km/h (2 Bft) W-NW 282 0 min 0,000 mm 0,0 UV-I 0 W/m 12,7 C 11,3 km/h (2 Bft)
04.09.2016 22:55 14,2 C 14,3 C 90 % 1016,0 hPa 0,0 mm 8,2 km/h (2 Bft) W 271 0 min 0,000 mm 0,0 UV-I 0 W/m 12,6 C 14,5 km/h (3 Bft)
04.09.2016 22:56 14,3 C 14,3 C 90 % 1016,0 hPa 0,0 mm 7,9 km/h (2 Bft) W 263 0 min 0,000 mm 0,0 UV-I 0 W/m 12,7 C 11,3 km/h (2 Bft)
04.09.2016 22:57 14,3 C 14,3 C 90 % 1016,1 hPa 0,0 mm 4,7 km/h (1 Bft) W 273 0 min 0,000 mm 0,0 UV-I 0 W/m 12,7 C 11,3 km/h (2 Bft)
04.09.2016 22:58 14,2 C 14,3 C 90 % 1016,1 hPa 0,0 mm 8,5 km/h (2 Bft) W 266 0 min 0,000 mm 0,0 UV-I 0 W/m 12,6 C 16,1 km/h (3 Bft)
04.09.2016 22:59 14,2 C 14,2 C 90 % 1016,1 hPa 0,0 mm 11,6 km/h (2 Bft) W-SW 249 0 min 0,000 mm 0,0 UV-I 0 W/m 12,6 C 17,7 km/h (3 Bft)
04.09.2016 23:00 14,2 C 14,2 C 91 % 1016,1 hPa 0,0 mm 7,8 km/h (2 Bft) W 259 0 min 0,000 mm 0,0 UV-I 0 W/m 12,8 C 12,9 km/h (3 Bft)
04.09.2016 23:01 14,2 C 14,2 C 91 % 1016,1 hPa 0,2 mm 7,8 km/h (2 Bft) W 280 0 min 0,026 mm 0,0 UV-I 0 W/m 12,8 C 14,5 km/h (3 Bft)
04.09.2016 23:02 14,2 C 14,2 C 91 % 1016,1 hPa 0,0 mm 10,3 km/h (2 Bft) SW 236 0 min 0,000 mm 0,0 UV-I 0 W/m 12,8 C 16,1 km/h (3 Bft)
04.09.2016 23:03 14,2 C 14,2 C 91 % 1016,0 hPa 0,0 mm 9,4 km/h (2 Bft) W-NW 302 0 min 0,000 mm 0,0 UV-I 0 W/m 12,8 C 16,1 km/h (3 Bft)
04.09.2016 23:04 14,2 C 14,2 C 91 % 1016,0 hPa 0,0 mm 4,5 km/h (1 Bft) W 275 0 min 0,000 mm 0,0 UV-I 0 W/m 12,8 C 8,0 km/h (2 Bft)
04.09.2016 23:05 14,2 C 14,2 C 91 % 1016,0 hPa 0,0 mm 7,9 km/h (2 Bft) SW 236 0 min 0,000 mm 0,0 UV-I 0 W/m 12,8 C 16,1 km/h (3 Bft)
04.09.2016 23:06 14,1 C 14,2 C 91 % 1016,1 hPa 0,0 mm 11,1 km/h (2 Bft) SW 235 0 min 0,000 mm 0,0 UV-I 0 W/m 12,7 C 16,1 km/h (3 Bft)
04.09.2016 23:07 14,1 C 14,1 C 91 % 1016,1 hPa 0,0 mm 9,9 km/h (2 Bft) W 263 0 min 0,000 mm 0,0 UV-I 0 W/m 12,7 C 19,3 km/h (3 Bft)
04.09.2016 23:08 14,1 C 14,1 C 91 % 1016,0 hPa 0,0 mm 6,8 km/h (2 Bft) W 271 0 min 0,000 mm 0,0 UV-I 0 W/m 12,7 C 11,3 km/h (2 Bft)
04.09.2016 23:09 14,1 C 14,1 C 91 % 1015,9 hPa 0,0 mm 10,7 km/h (2 Bft) W-SW 257 0 min 0,000 mm 0,0 UV-I 0 W/m 12,7 C 17,7 km/h (3 Bft)
04.09.2016 23:10 14,1 C 14,1 C 91 % 1015,9 hPa 0,2 mm 14,0 km/h (3 Bft) W 268 0 min 0,000 mm 0,0 UV-I 0 W/m 12,7 C 19,3 km/h (3 Bft)
04.09.2016 23:11 14,0 C 14,1 C 91 % 1015,9 hPa 0,0 mm 10,6 km/h (2 Bft) W-SW 237 0 min 0,000 mm 0,0 UV-I 0 W/m 12,6 C 17,7 km/h (3 Bft)
04.09.2016 23:12 14,0 C 14,1 C 92 % 1015,9 hPa 0,0 mm 8,4 km/h (2 Bft) W 273 0 min 0,000 mm 0,0 UV-I 0 W/m 12,7 C 12,9 km/h (3 Bft)
04.09.2016 23:13 14,0 C 14,0 C 92 % 1015,9 hPa 0,0 mm 7,2 km/h (2 Bft) SW 232 0 min 0,000 mm 0,0 UV-I 0 W/m 12,7 C 12,9 km/h (3 Bft)
04.09.2016 23:14 14,0 C 14,0 C 92 % 1015,9 hPa 0,0 mm 14,3 km/h (3 Bft) W 263 0 min 0,000 mm 0,0 UV-I 0 W/m 12,7 C 22,5 km/h (4 Bft)
04.09.2016 23:15 13,9 C 14,0 C 92 % 1015,9 hPa 0,0 mm 13,6 km/h (3 Bft) W-SW 251 0 min 0,000 mm 0,0 UV-I 0 W/m 12,6 C 17,7 km/h (3 Bft)
04.09.2016 23:16 13,9 C 13,9 C 92 % 1015,9 hPa 0,0 mm 7,9 km/h (2 Bft) W 275 0 min 0,000 mm 0,0 UV-I 0 W/m 12,6 C 11,3 km/h (2 Bft)
04.09.2016 23:17 13,9 C 13,9 C 92 % 1015,9 hPa 0,0 mm 7,2 km/h (2 Bft) W 279 0 min 0,000 mm 0,0 UV-I 0 W/m 12,6 C 12,9 km/h (3 Bft)
04.09.2016 23:18 13,9 C 13,9 C 92 % 1015,9 hPa 0,0 mm 9,3 km/h (2 Bft) W-SW 251 0 min 0,000 mm 0,0 UV-I 0 W/m 12,6 C 12,9 km/h (3 Bft)
04.09.2016 23:19 13,9 C 13,9 C 92 % 1015,9 hPa 0,0 mm 8,2 km/h (2 Bft) W-SW 250 0 min 0,000 mm 0,0 UV-I 0 W/m 12,6 C 11,3 km/h (2 Bft)
04.09.2016 23:20 13,9 C 13,9 C 92 % 1015,9 hPa 0,0 mm 9,2 km/h (2 Bft) S-SO 159 0 min 0,000 mm 0,0 UV-I 0 W/m 12,6 C 17,7 km/h (3 Bft)
04.09.2016 23:21 13,8 C 13,9 C 92 % 1015,8 hPa 0,0 mm 12,0 km/h (2 Bft) W 273 0 min 0,000 mm 0,0 UV-I 0 W/m 12,5 C 20,9 km/h (4 Bft)
04.09.2016 23:22 13,9 C 13,9 C 92 % 1016,0 hPa 0,0 mm 10,0 km/h (2 Bft) NW 309 0 min 0,000 mm 0,0 UV-I 0 W/m 12,6 C 16,1 km/h (3 Bft)
04.09.2016 23:23 13,9 C 13,9 C 92 % 1015,9 hPa 0,0 mm 14,1 km/h (3 Bft) S 187 0 min 0,000 mm 0,0 UV-I 0 W/m 12,6 C 20,9 km/h (4 Bft)
04.09.2016 23:24 13,9 C 13,9 C 92 % 1016,0 hPa 0,0 mm 12,1 km/h (2 Bft) W-SW 250 0 min 0,000 mm 0,0 UV-I 0 W/m 12,6 C 19,3 km/h (3 Bft)
04.09.2016 23:25 13,9 C 13,9 C 92 % 1015,9 hPa 0,0 mm 9,7 km/h (2 Bft) W 259 0 min 0,000 mm 0,0 UV-I 0 W/m 12,6 C 19,3 km/h (3 Bft)
04.09.2016 23:26 13,9 C 13,9 C 92 % 1016,0 hPa 0,2 mm 10,5 km/h (2 Bft) W-SW 252 0 min 0,000 mm 0,0 UV-I 0 W/m 12,6 C 12,9 km/h (3 Bft)
04.09.2016 23:27 13,9 C 13,9 C 92 % 1015,9 hPa 0,0 mm 13,3 km/h (3 Bft) W 265 0 min 0,000 mm 0,0 UV-I 0 W/m 12,6 C 20,9 km/h (4 Bft)
04.09.2016 23:28 13,8 C 13,9 C 92 % 1015,9 hPa 0,0 mm 12,8 km/h (3 Bft) W 277 0 min 0,000 mm 0,0 UV-I 0 W/m 12,5 C 20,9 km/h (4 Bft)
04.09.2016 23:29 13,8 C 13,9 C 92 % 1015,8 hPa 0,0 mm 12,0 km/h (2 Bft) W 271 0 min 0,000 mm 0,0 UV-I 0 W/m 12,5 C 19,3 km/h (3 Bft)
04.09.2016 23:30 13,9 C 13,9 C 92 % 1015,9 hPa 0,0 mm 11,4 km/h (2 Bft) S-SW 213 0 min 0,000 mm 0,0 UV-I 0 W/m 12,6 C 14,5 km/h (3 Bft)
04.09.2016 23:31 13,8 C 13,9 C 92 % 1015,9 hPa 0,0 mm 5,8 km/h (2 Bft) W-SW 250 0 min 0,000 mm 0,0 UV-I 0 W/m 12,5 C 14,5 km/h (3 Bft)
04.09.2016 23:32 13,8 C 13,9 C 92 % 1015,9 hPa 0,0 mm 14,8 km/h (3 Bft) W-SW 246 0 min 0,000 mm 0,0 UV-I 0 W/m 12,5 C 17,7 km/h (3 Bft)
04.09.2016 23:33 13,9 C 13,9 C 92 % 1015,8 hPa 0,0 mm 9,5 km/h (2 Bft) W-NW 293 0 min 0,000 mm 0,0 UV-I 0 W/m 12,6 C 14,5 km/h (3 Bft)
04.09.2016 23:34 13,9 C 13,9 C 92 % 1015,8 hPa 0,0 mm 8,5 km/h (2 Bft) SW 232 0 min 0,000 mm 0,0 UV-I 0 W/m 12,6 C 14,5 km/h (3 Bft)
04.09.2016 23:35 13,9 C 13,9 C 92 % 1015,8 hPa 0,0 mm 6,2 km/h (2 Bft) W 265 0 min 0,000 mm 0,0 UV-I 0 W/m 12,6 C 9,7 km/h (2 Bft)
04.09.2016 23:36 13,9 C 13,9 C 92 % 1015,8 hPa 0,0 mm 7,4 km/h (2 Bft) W-SW 238 0 min 0,000 mm 0,0 UV-I 0 W/m 12,6 C 11,3 km/h (2 Bft)
04.09.2016 23:37 13,8 C 13,9 C 92 % 1015,9 hPa 0,0 mm 10,1 km/h (2 Bft) W-SW 256 0 min 0,000 mm 0,0 UV-I 0 W/m 12,5 C 17,7 km/h (3 Bft)
04.09.2016 23:38 13,9 C 13,9 C 92 % 1015,8 hPa 0,0 mm 11,8 km/h (2 Bft) W 270 0 min 0,000 mm 0,0 UV-I 0 W/m 12,6 C 16,1 km/h (3 Bft)
04.09.2016 23:39 13,9 C 13,9 C 92 % 1015,7 hPa 0,0 mm 9,3 km/h (2 Bft) W 277 0 min 0,000 mm 0,0 UV-I 0 W/m 12,6 C 12,9 km/h (3 Bft)
04.09.2016 23:40 13,8 C 13,9 C 92 % 1015,8 hPa 0,0 mm 6,4 km/h (2 Bft) W 266 0 min 0,000 mm 0,0 UV-I 0 W/m 12,5 C 11,3 km/h (2 Bft)
04.09.2016 23:41 13,8 C 13,9 C 93 % 1015,8 hPa 0,0 mm 4,1 km/h (1 Bft) W 268 0 min 0,000 mm 0,0 UV-I 0 W/m 12,7 C 6,4 km/h (2 Bft)
04.09.2016 23:42 13,8 C 13,9 C 93 % 1015,8 hPa 0,0 mm 6,7 km/h (2 Bft) W-SW 250 0 min 0,000 mm 0,0 UV-I 0 W/m 12,7 C 11,3 km/h (2 Bft)
04.09.2016 23:43 13,9 C 13,9 C 93 % 1015,9 hPa 0,0 mm 8,2 km/h (2 Bft) SW 223 0 min 0,000 mm 0,0 UV-I 0 W/m 12,8 C 11,3 km/h (2 Bft)
04.09.2016 23:44 13,8 C 13,9 C 93 % 1015,9 hPa 0,0 mm 8,9 km/h (2 Bft) SW 219 0 min 0,000 mm 0,0 UV-I 0 W/m 12,7 C 17,7 km/h (3 Bft)
04.09.2016 23:45 13,8 C 13,9 C 93 % 1015,9 hPa 0,0 mm 6,0 km/h (2 Bft) W-SW 250 0 min 0,000 mm 0,0 UV-I 0 W/m 12,7 C 17,7 km/h (3 Bft)
04.09.2016 23:46 13,8 C 13,8 C 92 % 1015,9 hPa 0,0 mm 12,2 km/h (2 Bft) W-SW 254 0 min 0,000 mm 0,0 UV-I 0 W/m 12,5 C 17,7 km/h (3 Bft)
04.09.2016 23:47 13,8 C 13,8 C 93 % 1015,9 hPa 0,0 mm 6,4 km/h (2 Bft) SW 227 0 min 0,000 mm 0,0 UV-I 0 W/m 12,7 C 11,3 km/h (2 Bft)
04.09.2016 23:48 13,8 C 13,8 C 93 % 1015,8 hPa 0,2 mm 6,0 km/h (2 Bft) W 273 0 min 0,000 mm 0,0 UV-I 0 W/m 12,7 C 11,3 km/h (2 Bft)
04.09.2016 23:49 13,8 C 13,8 C 93 % 1015,7 hPa 0,0 mm 8,2 km/h (2 Bft) W 264 0 min 0,000 mm 0,0 UV-I 0 W/m 12,7 C 17,7 km/h (3 Bft)
04.09.2016 23:50 13,8 C 13,8 C 93 % 1015,7 hPa 0,0 mm 14,1 km/h (3 Bft) W-NW 288 0 min 0,000 mm 0,0 UV-I 0 W/m 12,7 C 20,9 km/h (4 Bft)
04.09.2016 23:51 13,8 C 13,8 C 93 % 1015,7 hPa 0,0 mm 8,8 km/h (2 Bft) W 264 0 min 0,000 mm 0,0 UV-I 0 W/m 12,7 C 19,3 km/h (3 Bft)
04.09.2016 23:52 13,8 C 13,8 C 93 % 1015,8 hPa 0,0 mm 8,7 km/h (2 Bft) W-SW 258 0 min 0,000 mm 0,0 UV-I 0 W/m 12,7 C 12,9 km/h (3 Bft)
04.09.2016 23:53 13,8 C 13,8 C 93 % 1015,8 hPa 0,0 mm 6,0 km/h (2 Bft) W 265 0 min 0,000 mm 0,0 UV-I 0 W/m 12,7 C 11,3 km/h (2 Bft)
04.09.2016 23:54 13,8 C 13,8 C 93 % 1015,9 hPa 0,0 mm 7,0 km/h (2 Bft) W-SW 257 0 min 0,000 mm 0,0 UV-I 0 W/m 12,7 C 16,1 km/h (3 Bft)
04.09.2016 23:55 13,8 C 13,8 C 93 % 1015,9 hPa 0,0 mm 7,4 km/h (2 Bft) W-SW 250 0 min 0,000 mm 0,0 UV-I 0 W/m 12,7 C 19,3 km/h (3 Bft)
04.09.2016 23:56 13,8 C 13,8 C 93 % 1015,8 hPa 0,0 mm 11,5 km/h (2 Bft) W 265 0 min 0,000 mm 0,0 UV-I 0 W/m 12,7 C 17,7 km/h (3 Bft)
04.09.2016 23:57 13,8 C 13,8 C 93 % 1015,8 hPa 0,0 mm 11,3 km/h (2 Bft) SW 230 0 min 0,000 mm 0,0 UV-I 0 W/m 12,7 C 16,1 km/h (3 Bft)
04.09.2016 23:58 13,8 C 13,8 C 93 % 1015,7 hPa 0,0 mm 7,0 km/h (2 Bft) W-SW 248 0 min 0,000 mm 0,0 UV-I 0 W/m 12,7 C 12,9 km/h (3 Bft)
04.09.2016 23:59 13,8 C 13,8 C 93 % 1015,7 hPa 0,0 mm 8,3 km/h (2 Bft) W-SW 251 0 min 0,000 mm 0,0 UV-I 0 W/m 12,7 C 14,5 km/h (3 Bft)
_ Min-Zeit 06:10 06:10 12:25 17:13 - 17:21 - - - - - - 06:02 17:21
Minimum _ 11,3 C 11,3 C 52 % 1013,7 hPa - 0,0 km/h (0 Bft) - - - - - - 9,7 C 0,0 km/h (0 Bft)
_ Max-Zeit 12:19 12:20 03:54 00:03 23:48 17:55 - - 12:17 12:01 12:14 11:52 10:09 18:06
Maximum _ 23,3 C 23,3 C 95 % 1017,6 hPa 0,2 mm 21,9 km/h
W (4 Bft)
- - 1 min 0,330 mm 6,2 UV-I 833 W/m 17,2 C 37,0 km/h
SW (5 Bft)
Durchschnitt _ 16,7 C 16,7 C 80 % 1015,8 hPa #3,8 mm 3,9 km/h (1 Bft) W - #3:19 h #2,083 mm 2,2 UV-I 119 W/m 12,9 C 6,7 km/h (2 Bft)